<?xml version="1.0" encoding="utf-8"?>
<gpx xmlns:xsi="http://www.w3.org/2001/XMLSchema-instance" xmlns:xsd="http://www.w3.org/2001/XMLSchema" version="1.1" creator="Shapelink.com" xmlns="http://www.topografix.com/GPX/1/1" xmlns:gpxtpx="http://www.garmin.com/xmlschemas/TrackPointExtension/v1">
  <metadata>
    <name>Löpning 7.03 km, 2011-05-12</name>
    <desc></desc>
    <author><name>Jojje Borssén</name></author> 
    <time>2011-05-12T17:49:13Z</time>
  </metadata>
  <trk>
    <name>Löpning 7.03 km, 2011-05-12</name>
    <trkseg>
      <trkpt lat="59.3042079599" lon="18.0910669918">
        <ele>0</ele>
        <time>2011-05-12T17:49:13Z</time>
      </trkpt>
      <trkpt lat="59.304264873" lon="18.0913017689">
        <ele>0</ele>
        <time>2011-05-12T17:49:19Z</time>
      </trkpt>
      <trkpt lat="59.3042669685" lon="18.091338733">
        <ele>0</ele>
        <time>2011-05-12T17:49:20Z</time>
      </trkpt>
      <trkpt lat="59.304299155" lon="18.0915781201">
        <ele>0</ele>
        <time>2011-05-12T17:49:26Z</time>
      </trkpt>
      <trkpt lat="59.3043453393" lon="18.0918941177">
        <ele>0</ele>
        <time>2011-05-12T17:49:34Z</time>
      </trkpt>
      <trkpt lat="59.3043817167" lon="18.0920114643">
        <ele>0</ele>
        <time>2011-05-12T17:49:38Z</time>
      </trkpt>
      <trkpt lat="59.3043888413" lon="18.0920511945">
        <ele>0</ele>
        <time>2011-05-12T17:49:39Z</time>
      </trkpt>
      <trkpt lat="59.3044528791" lon="18.092413125">
        <ele>0</ele>
        <time>2011-05-12T17:49:48Z</time>
      </trkpt>
      <trkpt lat="59.3044567347" lon="18.0924468202">
        <ele>0</ele>
        <time>2011-05-12T17:49:49Z</time>
      </trkpt>
      <trkpt lat="59.3044953753" lon="18.0926593852">
        <ele>0</ele>
        <time>2011-05-12T17:49:53Z</time>
      </trkpt>
      <trkpt lat="59.3045412243" lon="18.0929249238">
        <ele>0</ele>
        <time>2011-05-12T17:49:59Z</time>
      </trkpt>
      <trkpt lat="59.3045449961" lon="18.0929635644">
        <ele>0</ele>
        <time>2011-05-12T17:50:00Z</time>
      </trkpt>
      <trkpt lat="59.3045536295" lon="18.0930806595">
        <ele>0</ele>
        <time>2011-05-12T17:50:03Z</time>
      </trkpt>
      <trkpt lat="59.3045630172" lon="18.0931688371">
        <ele>0</ele>
        <time>2011-05-12T17:50:05Z</time>
      </trkpt>
      <trkpt lat="59.3045849778" lon="18.0933695836">
        <ele>0</ele>
        <time>2011-05-12T17:50:09Z</time>
      </trkpt>
      <trkpt lat="59.3046117999" lon="18.0936455996">
        <ele>0</ele>
        <time>2011-05-12T17:50:15Z</time>
      </trkpt>
      <trkpt lat="59.304637197" lon="18.0939417321">
        <ele>0</ele>
        <time>2011-05-12T17:50:22Z</time>
      </trkpt>
      <trkpt lat="59.3046377838" lon="18.0940019141">
        <ele>0</ele>
        <time>2011-05-12T17:50:23Z</time>
      </trkpt>
      <trkpt lat="59.3046431482" lon="18.0942452407">
        <ele>0.2</ele>
        <time>2011-05-12T17:50:29Z</time>
      </trkpt>
      <trkpt lat="59.3046226963" lon="18.0943269642">
        <ele>0.4</ele>
        <time>2011-05-12T17:50:33Z</time>
      </trkpt>
      <trkpt lat="59.3045438227" lon="18.0943978751">
        <ele>1.2</ele>
        <time>2011-05-12T17:50:37Z</time>
        <extensions><gpxtpx:TrackPointExtension><gpxtpx:hr>114</gpxtpx:hr></gpxtpx:TrackPointExtension></extensions>
      </trkpt>
      <trkpt lat="59.3044113886" lon="18.0945138806">
        <ele>2.6</ele>
        <time>2011-05-12T17:50:43Z</time>
        <extensions><gpxtpx:TrackPointExtension><gpxtpx:hr>116</gpxtpx:hr></gpxtpx:TrackPointExtension></extensions>
      </trkpt>
      <trkpt lat="59.3042564911" lon="18.0946147148">
        <ele>4.8</ele>
        <time>2011-05-12T17:50:49Z</time>
        <extensions><gpxtpx:TrackPointExtension><gpxtpx:hr>116</gpxtpx:hr></gpxtpx:TrackPointExtension></extensions>
      </trkpt>
      <trkpt lat="59.3041182736" lon="18.0946852904">
        <ele>6.8</ele>
        <time>2011-05-12T17:50:54Z</time>
        <extensions><gpxtpx:TrackPointExtension><gpxtpx:hr>115</gpxtpx:hr></gpxtpx:TrackPointExtension></extensions>
      </trkpt>
      <trkpt lat="59.3040067943" lon="18.0947468974">
        <ele>8.8</ele>
        <time>2011-05-12T17:50:59Z</time>
        <extensions><gpxtpx:TrackPointExtension><gpxtpx:hr>114</gpxtpx:hr></gpxtpx:TrackPointExtension></extensions>
      </trkpt>
      <trkpt lat="59.3039273339" lon="18.0948473126">
        <ele>10</ele>
        <time>2011-05-12T17:51:03Z</time>
        <extensions><gpxtpx:TrackPointExtension><gpxtpx:hr>113</gpxtpx:hr></gpxtpx:TrackPointExtension></extensions>
      </trkpt>
      <trkpt lat="59.3038327023" lon="18.0950171299">
        <ele>12</ele>
        <time>2011-05-12T17:51:09Z</time>
        <extensions><gpxtpx:TrackPointExtension><gpxtpx:hr>115</gpxtpx:hr></gpxtpx:TrackPointExtension></extensions>
      </trkpt>
      <trkpt lat="59.3038052096" lon="18.0950799941">
        <ele>12.8</ele>
        <time>2011-05-12T17:51:11Z</time>
        <extensions><gpxtpx:TrackPointExtension><gpxtpx:hr>114</gpxtpx:hr></gpxtpx:TrackPointExtension></extensions>
      </trkpt>
      <trkpt lat="59.3037376515" lon="18.0952742865">
        <ele>14</ele>
        <time>2011-05-12T17:51:15Z</time>
        <extensions><gpxtpx:TrackPointExtension><gpxtpx:hr>114</gpxtpx:hr></gpxtpx:TrackPointExtension></extensions>
      </trkpt>
      <trkpt lat="59.3036606219" lon="18.0954825768">
        <ele>15.6</ele>
        <time>2011-05-12T17:51:20Z</time>
        <extensions><gpxtpx:TrackPointExtension><gpxtpx:hr>112</gpxtpx:hr></gpxtpx:TrackPointExtension></extensions>
      </trkpt>
      <trkpt lat="59.303648971" lon="18.0955107399">
        <ele>16</ele>
        <time>2011-05-12T17:51:21Z</time>
        <extensions><gpxtpx:TrackPointExtension><gpxtpx:hr>112</gpxtpx:hr></gpxtpx:TrackPointExtension></extensions>
      </trkpt>
      <trkpt lat="59.3035928961" lon="18.0957223829">
        <ele>17.2</ele>
        <time>2011-05-12T17:51:26Z</time>
        <extensions><gpxtpx:TrackPointExtension><gpxtpx:hr>111</gpxtpx:hr></gpxtpx:TrackPointExtension></extensions>
      </trkpt>
      <trkpt lat="59.3035624698" lon="18.0959242191">
        <ele>18</ele>
        <time>2011-05-12T17:51:30Z</time>
        <extensions><gpxtpx:TrackPointExtension><gpxtpx:hr>120</gpxtpx:hr></gpxtpx:TrackPointExtension></extensions>
      </trkpt>
      <trkpt lat="59.3035496455" lon="18.0959698166">
        <ele>18.4</ele>
        <time>2011-05-12T17:51:31Z</time>
        <extensions><gpxtpx:TrackPointExtension><gpxtpx:hr>120</gpxtpx:hr></gpxtpx:TrackPointExtension></extensions>
      </trkpt>
      <trkpt lat="59.3035333846" lon="18.0960079543">
        <ele>18.6</ele>
        <time>2011-05-12T17:51:32Z</time>
        <extensions><gpxtpx:TrackPointExtension><gpxtpx:hr>120</gpxtpx:hr></gpxtpx:TrackPointExtension></extensions>
      </trkpt>
      <trkpt lat="59.3035167885" lon="18.0960310883">
        <ele>19</ele>
        <time>2011-05-12T17:51:34Z</time>
        <extensions><gpxtpx:TrackPointExtension><gpxtpx:hr>116</gpxtpx:hr></gpxtpx:TrackPointExtension></extensions>
      </trkpt>
      <trkpt lat="59.3033966758" lon="18.0960005782">
        <ele>19.8</ele>
        <time>2011-05-12T17:51:39Z</time>
        <extensions><gpxtpx:TrackPointExtension><gpxtpx:hr>112</gpxtpx:hr></gpxtpx:TrackPointExtension></extensions>
      </trkpt>
      <trkpt lat="59.3032250983" lon="18.0960841457">
        <ele>20.8</ele>
        <time>2011-05-12T17:51:45Z</time>
        <extensions><gpxtpx:TrackPointExtension><gpxtpx:hr>111</gpxtpx:hr></gpxtpx:TrackPointExtension></extensions>
      </trkpt>
      <trkpt lat="59.3030702846" lon="18.096219262">
        <ele>22</ele>
        <time>2011-05-12T17:51:51Z</time>
        <extensions><gpxtpx:TrackPointExtension><gpxtpx:hr>111</gpxtpx:hr></gpxtpx:TrackPointExtension></extensions>
      </trkpt>
      <trkpt lat="59.302943215" lon="18.0962479281">
        <ele>22.4</ele>
        <time>2011-05-12T17:51:56Z</time>
        <extensions><gpxtpx:TrackPointExtension><gpxtpx:hr>112</gpxtpx:hr></gpxtpx:TrackPointExtension></extensions>
      </trkpt>
      <trkpt lat="59.3027454022" lon="18.0961475129">
        <ele>22.8</ele>
        <time>2011-05-12T17:52:03Z</time>
        <extensions><gpxtpx:TrackPointExtension><gpxtpx:hr>113</gpxtpx:hr></gpxtpx:TrackPointExtension></extensions>
      </trkpt>
      <trkpt lat="59.3027258724" lon="18.096109962">
        <ele>23.4</ele>
        <time>2011-05-12T17:52:04Z</time>
        <extensions><gpxtpx:TrackPointExtension><gpxtpx:hr>114</gpxtpx:hr></gpxtpx:TrackPointExtension></extensions>
      </trkpt>
      <trkpt lat="59.3026956137" lon="18.0957225506">
        <ele>24.4</ele>
        <time>2011-05-12T17:52:12Z</time>
        <extensions><gpxtpx:TrackPointExtension><gpxtpx:hr>114</gpxtpx:hr></gpxtpx:TrackPointExtension></extensions>
      </trkpt>
      <trkpt lat="59.3026988827" lon="18.0953479634">
        <ele>24.8</ele>
        <time>2011-05-12T17:52:19Z</time>
        <extensions><gpxtpx:TrackPointExtension><gpxtpx:hr>114</gpxtpx:hr></gpxtpx:TrackPointExtension></extensions>
      </trkpt>
      <trkpt lat="59.3027018163" lon="18.0950491487">
        <ele>25</ele>
        <time>2011-05-12T17:52:24Z</time>
        <extensions><gpxtpx:TrackPointExtension><gpxtpx:hr>116</gpxtpx:hr></gpxtpx:TrackPointExtension></extensions>
      </trkpt>
      <trkpt lat="59.3027055882" lon="18.0947295469">
        <ele>25</ele>
        <time>2011-05-12T17:52:30Z</time>
        <extensions><gpxtpx:TrackPointExtension><gpxtpx:hr>116</gpxtpx:hr></gpxtpx:TrackPointExtension></extensions>
      </trkpt>
      <trkpt lat="59.302548679" lon="18.09456325">
        <ele>25.6</ele>
        <time>2011-05-12T17:52:39Z</time>
        <extensions><gpxtpx:TrackPointExtension><gpxtpx:hr>115</gpxtpx:hr></gpxtpx:TrackPointExtension></extensions>
      </trkpt>
      <trkpt lat="59.3025250421" lon="18.0945702908">
        <ele>26</ele>
        <time>2011-05-12T17:52:42Z</time>
        <extensions><gpxtpx:TrackPointExtension><gpxtpx:hr>115</gpxtpx:hr></gpxtpx:TrackPointExtension></extensions>
      </trkpt>
      <trkpt lat="59.3025040873" lon="18.0945622441">
        <ele>26.2</ele>
        <time>2011-05-12T17:52:44Z</time>
        <extensions><gpxtpx:TrackPointExtension><gpxtpx:hr>117</gpxtpx:hr></gpxtpx:TrackPointExtension></extensions>
      </trkpt>
      <trkpt lat="59.3023753413" lon="18.0946063329">
        <ele>27.4</ele>
        <time>2011-05-12T17:52:50Z</time>
        <extensions><gpxtpx:TrackPointExtension><gpxtpx:hr>119</gpxtpx:hr></gpxtpx:TrackPointExtension></extensions>
      </trkpt>
      <trkpt lat="59.3022840624" lon="18.0946915769">
        <ele>28.2</ele>
        <time>2011-05-12T17:52:54Z</time>
        <extensions><gpxtpx:TrackPointExtension><gpxtpx:hr>119</gpxtpx:hr></gpxtpx:TrackPointExtension></extensions>
      </trkpt>
      <trkpt lat="59.3022056917" lon="18.0947660081">
        <ele>29.4</ele>
        <time>2011-05-12T17:52:58Z</time>
        <extensions><gpxtpx:TrackPointExtension><gpxtpx:hr>119</gpxtpx:hr></gpxtpx:TrackPointExtension></extensions>
      </trkpt>
      <trkpt lat="59.3021390556" lon="18.0948246814">
        <ele>30</ele>
        <time>2011-05-12T17:53:01Z</time>
        <extensions><gpxtpx:TrackPointExtension><gpxtpx:hr>122</gpxtpx:hr></gpxtpx:TrackPointExtension></extensions>
      </trkpt>
      <trkpt lat="59.3021058632" lon="18.0948575385">
        <ele>30.8</ele>
        <time>2011-05-12T17:53:04Z</time>
        <extensions><gpxtpx:TrackPointExtension><gpxtpx:hr>122</gpxtpx:hr></gpxtpx:TrackPointExtension></extensions>
      </trkpt>
      <trkpt lat="59.3019703279" lon="18.0949681796">
        <ele>32</ele>
        <time>2011-05-12T17:53:09Z</time>
        <extensions><gpxtpx:TrackPointExtension><gpxtpx:hr>124</gpxtpx:hr></gpxtpx:TrackPointExtension></extensions>
      </trkpt>
      <trkpt lat="59.3019444278" lon="18.0949767291">
        <ele>32.2</ele>
        <time>2011-05-12T17:53:10Z</time>
        <extensions><gpxtpx:TrackPointExtension><gpxtpx:hr>124</gpxtpx:hr></gpxtpx:TrackPointExtension></extensions>
      </trkpt>
      <trkpt lat="59.3017406638" lon="18.0949996117">
        <ele>34.4</ele>
        <time>2011-05-12T17:53:18Z</time>
        <extensions><gpxtpx:TrackPointExtension><gpxtpx:hr>135</gpxtpx:hr></gpxtpx:TrackPointExtension></extensions>
      </trkpt>
      <trkpt lat="59.3017179489" lon="18.0949996955">
        <ele>34.6</ele>
        <time>2011-05-12T17:53:19Z</time>
        <extensions><gpxtpx:TrackPointExtension><gpxtpx:hr>135</gpxtpx:hr></gpxtpx:TrackPointExtension></extensions>
      </trkpt>
      <trkpt lat="59.301648882" lon="18.0950018748">
        <ele>34.8</ele>
        <time>2011-05-12T17:53:21Z</time>
        <extensions><gpxtpx:TrackPointExtension><gpxtpx:hr>147</gpxtpx:hr></gpxtpx:TrackPointExtension></extensions>
      </trkpt>
      <trkpt lat="59.3016291846" lon="18.0949997793">
        <ele>35</ele>
        <time>2011-05-12T17:53:22Z</time>
        <extensions><gpxtpx:TrackPointExtension><gpxtpx:hr>147</gpxtpx:hr></gpxtpx:TrackPointExtension></extensions>
      </trkpt>
      <trkpt lat="59.3013747101" lon="18.095067086">
        <ele>36.6</ele>
        <time>2011-05-12T17:53:29Z</time>
        <extensions><gpxtpx:TrackPointExtension><gpxtpx:hr>139</gpxtpx:hr></gpxtpx:TrackPointExtension></extensions>
      </trkpt>
      <trkpt lat="59.3013467145" lon="18.0950818381">
        <ele>36.8</ele>
        <time>2011-05-12T17:53:30Z</time>
        <extensions><gpxtpx:TrackPointExtension><gpxtpx:hr>138</gpxtpx:hr></gpxtpx:TrackPointExtension></extensions>
      </trkpt>
      <trkpt lat="59.3012471376" lon="18.0951079897">
        <ele>37.2</ele>
        <time>2011-05-12T17:53:33Z</time>
        <extensions><gpxtpx:TrackPointExtension><gpxtpx:hr>138</gpxtpx:hr></gpxtpx:TrackPointExtension></extensions>
      </trkpt>
      <trkpt lat="59.3010888035" lon="18.0951100851">
        <ele>37.8</ele>
        <time>2011-05-12T17:53:38Z</time>
        <extensions><gpxtpx:TrackPointExtension><gpxtpx:hr>132</gpxtpx:hr></gpxtpx:TrackPointExtension></extensions>
      </trkpt>
      <trkpt lat="59.3009162202" lon="18.0951274357">
        <ele>38.8</ele>
        <time>2011-05-12T17:53:43Z</time>
        <extensions><gpxtpx:TrackPointExtension><gpxtpx:hr>130</gpxtpx:hr></gpxtpx:TrackPointExtension></extensions>
      </trkpt>
      <trkpt lat="59.3007810201" lon="18.0951101689">
        <ele>39.4</ele>
        <time>2011-05-12T17:53:48Z</time>
        <extensions><gpxtpx:TrackPointExtension><gpxtpx:hr>127</gpxtpx:hr></gpxtpx:TrackPointExtension></extensions>
      </trkpt>
      <trkpt lat="59.3006935969" lon="18.0950609672">
        <ele>39.8</ele>
        <time>2011-05-12T17:53:53Z</time>
        <extensions><gpxtpx:TrackPointExtension><gpxtpx:hr>122</gpxtpx:hr></gpxtpx:TrackPointExtension></extensions>
      </trkpt>
      <trkpt lat="59.3006878972" lon="18.0950576144">
        <ele>39.8</ele>
        <time>2011-05-12T17:53:54Z</time>
        <extensions><gpxtpx:TrackPointExtension><gpxtpx:hr>121</gpxtpx:hr></gpxtpx:TrackPointExtension></extensions>
      </trkpt>
      <trkpt lat="59.3006952733" lon="18.0950640685">
        <ele>39.8</ele>
        <time>2011-05-12T17:53:56Z</time>
        <extensions><gpxtpx:TrackPointExtension><gpxtpx:hr>120</gpxtpx:hr></gpxtpx:TrackPointExtension></extensions>
      </trkpt>
      <trkpt lat="59.3007054992" lon="18.0951064809">
        <ele>40</ele>
        <time>2011-05-12T17:54:01Z</time>
        <extensions><gpxtpx:TrackPointExtension><gpxtpx:hr>119</gpxtpx:hr></gpxtpx:TrackPointExtension></extensions>
      </trkpt>
      <trkpt lat="59.3006918367" lon="18.095157359">
        <ele>40.2</ele>
        <time>2011-05-12T17:54:06Z</time>
        <extensions><gpxtpx:TrackPointExtension><gpxtpx:hr>119</gpxtpx:hr></gpxtpx:TrackPointExtension></extensions>
      </trkpt>
      <trkpt lat="59.3006750729" lon="18.0951558503">
        <ele>39</ele>
        <time>2011-05-12T17:54:15Z</time>
        <extensions><gpxtpx:TrackPointExtension><gpxtpx:hr>116</gpxtpx:hr></gpxtpx:TrackPointExtension></extensions>
      </trkpt>
      <trkpt lat="59.3006419644" lon="18.0951602927">
        <ele>38.8</ele>
        <time>2011-05-12T17:54:17Z</time>
        <extensions><gpxtpx:TrackPointExtension><gpxtpx:hr>116</gpxtpx:hr></gpxtpx:TrackPointExtension></extensions>
      </trkpt>
      <trkpt lat="59.3005806089" lon="18.0953350553">
        <ele>37.8</ele>
        <time>2011-05-12T17:54:22Z</time>
        <extensions><gpxtpx:TrackPointExtension><gpxtpx:hr>113</gpxtpx:hr></gpxtpx:TrackPointExtension></extensions>
      </trkpt>
      <trkpt lat="59.3005784296" lon="18.0953852629">
        <ele>37.6</ele>
        <time>2011-05-12T17:54:23Z</time>
        <extensions><gpxtpx:TrackPointExtension><gpxtpx:hr>113</gpxtpx:hr></gpxtpx:TrackPointExtension></extensions>
      </trkpt>
      <trkpt lat="59.3005690419" lon="18.0956357141">
        <ele>37</ele>
        <time>2011-05-12T17:54:28Z</time>
        <extensions><gpxtpx:TrackPointExtension><gpxtpx:hr>114</gpxtpx:hr></gpxtpx:TrackPointExtension></extensions>
      </trkpt>
      <trkpt lat="59.3006106999" lon="18.096010385">
        <ele>36.4</ele>
        <time>2011-05-12T17:54:35Z</time>
        <extensions><gpxtpx:TrackPointExtension><gpxtpx:hr>115</gpxtpx:hr></gpxtpx:TrackPointExtension></extensions>
      </trkpt>
      <trkpt lat="59.3006351751" lon="18.0963957009">
        <ele>36.2</ele>
        <time>2011-05-12T17:54:42Z</time>
        <extensions><gpxtpx:TrackPointExtension><gpxtpx:hr>112</gpxtpx:hr></gpxtpx:TrackPointExtension></extensions>
      </trkpt>
      <trkpt lat="59.3006323252" lon="18.0966427994">
        <ele>36</ele>
        <time>2011-05-12T17:54:48Z</time>
        <extensions><gpxtpx:TrackPointExtension><gpxtpx:hr>111</gpxtpx:hr></gpxtpx:TrackPointExtension></extensions>
      </trkpt>
      <trkpt lat="59.3006173216" lon="18.0967153866">
        <ele>36</ele>
        <time>2011-05-12T17:54:53Z</time>
        <extensions><gpxtpx:TrackPointExtension><gpxtpx:hr>110</gpxtpx:hr></gpxtpx:TrackPointExtension></extensions>
      </trkpt>
      <trkpt lat="59.3005994682" lon="18.0967408676">
        <ele>35.8</ele>
        <time>2011-05-12T17:54:58Z</time>
        <extensions><gpxtpx:TrackPointExtension><gpxtpx:hr>103</gpxtpx:hr></gpxtpx:TrackPointExtension></extensions>
      </trkpt>
      <trkpt lat="59.3005873982" lon="18.0967344973">
        <ele>34.8</ele>
        <time>2011-05-12T17:55:05Z</time>
        <extensions><gpxtpx:TrackPointExtension><gpxtpx:hr>103</gpxtpx:hr></gpxtpx:TrackPointExtension></extensions>
      </trkpt>
      <trkpt lat="59.3005209298" lon="18.0963931864">
        <ele>31.8</ele>
        <time>2011-05-12T17:56:32Z</time>
        <extensions><gpxtpx:TrackPointExtension><gpxtpx:hr>86</gpxtpx:hr></gpxtpx:TrackPointExtension></extensions>
      </trkpt>
      <trkpt lat="59.3005262942" lon="18.0963792724">
        <ele>31.8</ele>
        <time>2011-05-12T17:56:33Z</time>
        <extensions><gpxtpx:TrackPointExtension><gpxtpx:hr>87</gpxtpx:hr></gpxtpx:TrackPointExtension></extensions>
      </trkpt>
      <trkpt lat="59.3005314071" lon="18.0963578148">
        <ele>31.8</ele>
        <time>2011-05-12T17:56:34Z</time>
        <extensions><gpxtpx:TrackPointExtension><gpxtpx:hr>89</gpxtpx:hr></gpxtpx:TrackPointExtension></extensions>
      </trkpt>
      <trkpt lat="59.3005314071" lon="18.096337782">
        <ele>31.8</ele>
        <time>2011-05-12T17:56:35Z</time>
        <extensions><gpxtpx:TrackPointExtension><gpxtpx:hr>90</gpxtpx:hr></gpxtpx:TrackPointExtension></extensions>
      </trkpt>
      <trkpt lat="59.300564348" lon="18.096212305">
        <ele>31.8</ele>
        <time>2011-05-12T17:56:39Z</time>
        <extensions><gpxtpx:TrackPointExtension><gpxtpx:hr>94</gpxtpx:hr></gpxtpx:TrackPointExtension></extensions>
      </trkpt>
      <trkpt lat="59.3005910024" lon="18.0960718243">
        <ele>31.8</ele>
        <time>2011-05-12T17:56:42Z</time>
        <extensions><gpxtpx:TrackPointExtension><gpxtpx:hr>93</gpxtpx:hr></gpxtpx:TrackPointExtension></extensions>
      </trkpt>
      <trkpt lat="59.3005993005" lon="18.0957739316">
        <ele>31.8</ele>
        <time>2011-05-12T17:56:49Z</time>
        <extensions><gpxtpx:TrackPointExtension><gpxtpx:hr>97</gpxtpx:hr></gpxtpx:TrackPointExtension></extensions>
      </trkpt>
      <trkpt lat="59.3005956963" lon="18.0955531524">
        <ele>31.8</ele>
        <time>2011-05-12T17:56:54Z</time>
        <extensions><gpxtpx:TrackPointExtension><gpxtpx:hr>102</gpxtpx:hr></gpxtpx:TrackPointExtension></extensions>
      </trkpt>
      <trkpt lat="59.3005845484" lon="18.09533011">
        <ele>31.8</ele>
        <time>2011-05-12T17:56:59Z</time>
        <extensions><gpxtpx:TrackPointExtension><gpxtpx:hr>102</gpxtpx:hr></gpxtpx:TrackPointExtension></extensions>
      </trkpt>
      <trkpt lat="59.3005879011" lon="18.0950696844">
        <ele>31</ele>
        <time>2011-05-12T17:57:05Z</time>
        <extensions><gpxtpx:TrackPointExtension><gpxtpx:hr>104</gpxtpx:hr></gpxtpx:TrackPointExtension></extensions>
      </trkpt>
      <trkpt lat="59.3005818662" lon="18.0948415291">
        <ele>30.4</ele>
        <time>2011-05-12T17:57:10Z</time>
        <extensions><gpxtpx:TrackPointExtension><gpxtpx:hr>106</gpxtpx:hr></gpxtpx:TrackPointExtension></extensions>
      </trkpt>
      <trkpt lat="59.3005717241" lon="18.0947567042">
        <ele>30.4</ele>
        <time>2011-05-12T17:57:12Z</time>
        <extensions><gpxtpx:TrackPointExtension><gpxtpx:hr>107</gpxtpx:hr></gpxtpx:TrackPointExtension></extensions>
      </trkpt>
      <trkpt lat="59.3004967061" lon="18.0946497512">
        <ele>30</ele>
        <time>2011-05-12T17:57:17Z</time>
        <extensions><gpxtpx:TrackPointExtension><gpxtpx:hr>109</gpxtpx:hr></gpxtpx:TrackPointExtension></extensions>
      </trkpt>
      <trkpt lat="59.3004869831" lon="18.0946296346">
        <ele>30</ele>
        <time>2011-05-12T17:57:19Z</time>
        <extensions><gpxtpx:TrackPointExtension><gpxtpx:hr>110</gpxtpx:hr></gpxtpx:TrackPointExtension></extensions>
      </trkpt>
      <trkpt lat="59.3004716442" lon="18.0945567121">
        <ele>30</ele>
        <time>2011-05-12T17:57:23Z</time>
        <extensions><gpxtpx:TrackPointExtension><gpxtpx:hr>114</gpxtpx:hr></gpxtpx:TrackPointExtension></extensions>
      </trkpt>
      <trkpt lat="59.3004607477" lon="18.09452528">
        <ele>29.8</ele>
        <time>2011-05-12T17:57:25Z</time>
        <extensions><gpxtpx:TrackPointExtension><gpxtpx:hr>117</gpxtpx:hr></gpxtpx:TrackPointExtension></extensions>
      </trkpt>
      <trkpt lat="59.3004446545" lon="18.0944879805">
        <ele>29.8</ele>
        <time>2011-05-12T17:57:28Z</time>
        <extensions><gpxtpx:TrackPointExtension><gpxtpx:hr>120</gpxtpx:hr></gpxtpx:TrackPointExtension></extensions>
      </trkpt>
      <trkpt lat="59.3004242865" lon="18.0944438917">
        <ele>29.8</ele>
        <time>2011-05-12T17:57:32Z</time>
        <extensions><gpxtpx:TrackPointExtension><gpxtpx:hr>123</gpxtpx:hr></gpxtpx:TrackPointExtension></extensions>
      </trkpt>
      <trkpt lat="59.3004226939" lon="18.0944305645">
        <ele>29.8</ele>
        <time>2011-05-12T17:57:33Z</time>
        <extensions><gpxtpx:TrackPointExtension><gpxtpx:hr>124</gpxtpx:hr></gpxtpx:TrackPointExtension></extensions>
      </trkpt>
      <trkpt lat="59.3004252085" lon="18.0944233561">
        <ele>29.8</ele>
        <time>2011-05-12T17:57:34Z</time>
        <extensions><gpxtpx:TrackPointExtension><gpxtpx:hr>124</gpxtpx:hr></gpxtpx:TrackPointExtension></extensions>
      </trkpt>
      <trkpt lat="59.300379108" lon="18.0943304846">
        <ele>29.8</ele>
        <time>2011-05-12T17:57:39Z</time>
        <extensions><gpxtpx:TrackPointExtension><gpxtpx:hr>127</gpxtpx:hr></gpxtpx:TrackPointExtension></extensions>
      </trkpt>
      <trkpt lat="59.3003703908" lon="18.094313637">
        <ele>29.8</ele>
        <time>2011-05-12T17:57:40Z</time>
        <extensions><gpxtpx:TrackPointExtension><gpxtpx:hr>127</gpxtpx:hr></gpxtpx:TrackPointExtension></extensions>
      </trkpt>
      <trkpt lat="59.3003335943" lon="18.0942599928">
        <ele>30.6</ele>
        <time>2011-05-12T17:57:48Z</time>
        <extensions><gpxtpx:TrackPointExtension><gpxtpx:hr>128</gpxtpx:hr></gpxtpx:TrackPointExtension></extensions>
      </trkpt>
      <trkpt lat="59.3003237037" lon="18.0942464141">
        <ele>31.4</ele>
        <time>2011-05-12T17:57:54Z</time>
        <extensions><gpxtpx:TrackPointExtension><gpxtpx:hr>125</gpxtpx:hr></gpxtpx:TrackPointExtension></extensions>
      </trkpt>
      <trkpt lat="59.3006334987" lon="18.0946945943">
        <ele>32</ele>
        <time>2011-05-12T18:01:42Z</time>
        <extensions><gpxtpx:TrackPointExtension><gpxtpx:hr>85</gpxtpx:hr></gpxtpx:TrackPointExtension></extensions>
      </trkpt>
      <trkpt lat="59.3006357618" lon="18.0947458078">
        <ele>31.8</ele>
        <time>2011-05-12T18:01:43Z</time>
        <extensions><gpxtpx:TrackPointExtension><gpxtpx:hr>85</gpxtpx:hr></gpxtpx:TrackPointExtension></extensions>
      </trkpt>
      <trkpt lat="59.300635678" lon="18.0947976917">
        <ele>31.6</ele>
        <time>2011-05-12T18:01:44Z</time>
        <extensions><gpxtpx:TrackPointExtension><gpxtpx:hr>85</gpxtpx:hr></gpxtpx:TrackPointExtension></extensions>
      </trkpt>
      <trkpt lat="59.3006353427" lon="18.0949711132">
        <ele>31</ele>
        <time>2011-05-12T18:01:47Z</time>
        <extensions><gpxtpx:TrackPointExtension><gpxtpx:hr>90</gpxtpx:hr></gpxtpx:TrackPointExtension></extensions>
      </trkpt>
      <trkpt lat="59.3006369353" lon="18.0951831753">
        <ele>30.6</ele>
        <time>2011-05-12T18:01:50Z</time>
        <extensions><gpxtpx:TrackPointExtension><gpxtpx:hr>95</gpxtpx:hr></gpxtpx:TrackPointExtension></extensions>
      </trkpt>
      <trkpt lat="59.3006391984" lon="18.0953938124">
        <ele>30.4</ele>
        <time>2011-05-12T18:01:53Z</time>
        <extensions><gpxtpx:TrackPointExtension><gpxtpx:hr>100</gpxtpx:hr></gpxtpx:TrackPointExtension></extensions>
      </trkpt>
      <trkpt lat="59.3006561298" lon="18.0957293399">
        <ele>30</ele>
        <time>2011-05-12T18:01:58Z</time>
        <extensions><gpxtpx:TrackPointExtension><gpxtpx:hr>106</gpxtpx:hr></gpxtpx:TrackPointExtension></extensions>
      </trkpt>
      <trkpt lat="59.3006838739" lon="18.0960726625">
        <ele>29.8</ele>
        <time>2011-05-12T18:02:04Z</time>
        <extensions><gpxtpx:TrackPointExtension><gpxtpx:hr>105</gpxtpx:hr></gpxtpx:TrackPointExtension></extensions>
      </trkpt>
      <trkpt lat="59.3006614942" lon="18.0962682961">
        <ele>29.8</ele>
        <time>2011-05-12T18:02:08Z</time>
        <extensions><gpxtpx:TrackPointExtension><gpxtpx:hr>105</gpxtpx:hr></gpxtpx:TrackPointExtension></extensions>
      </trkpt>
      <trkpt lat="59.3006520227" lon="18.0965177414">
        <ele>29.6</ele>
        <time>2011-05-12T18:02:13Z</time>
        <extensions><gpxtpx:TrackPointExtension><gpxtpx:hr>106</gpxtpx:hr></gpxtpx:TrackPointExtension></extensions>
      </trkpt>
      <trkpt lat="59.3006121248" lon="18.0967643369">
        <ele>29.6</ele>
        <time>2011-05-12T18:02:19Z</time>
        <extensions><gpxtpx:TrackPointExtension><gpxtpx:hr>110</gpxtpx:hr></gpxtpx:TrackPointExtension></extensions>
      </trkpt>
      <trkpt lat="59.3005905833" lon="18.0969756446">
        <ele>29.6</ele>
        <time>2011-05-12T18:02:24Z</time>
        <extensions><gpxtpx:TrackPointExtension><gpxtpx:hr>114</gpxtpx:hr></gpxtpx:TrackPointExtension></extensions>
      </trkpt>
      <trkpt lat="59.3005589836" lon="18.0971971782">
        <ele>29.8</ele>
        <time>2011-05-12T18:02:29Z</time>
        <extensions><gpxtpx:TrackPointExtension><gpxtpx:hr>116</gpxtpx:hr></gpxtpx:TrackPointExtension></extensions>
      </trkpt>
      <trkpt lat="59.3005187505" lon="18.0974213102">
        <ele>30.8</ele>
        <time>2011-05-12T18:02:35Z</time>
        <extensions><gpxtpx:TrackPointExtension><gpxtpx:hr>119</gpxtpx:hr></gpxtpx:TrackPointExtension></extensions>
      </trkpt>
      <trkpt lat="59.3005159844" lon="18.0976861783">
        <ele>31.2</ele>
        <time>2011-05-12T18:02:41Z</time>
        <extensions><gpxtpx:TrackPointExtension><gpxtpx:hr>122</gpxtpx:hr></gpxtpx:TrackPointExtension></extensions>
      </trkpt>
      <trkpt lat="59.3005139728" lon="18.0979260683">
        <ele>31.8</ele>
        <time>2011-05-12T18:02:46Z</time>
        <extensions><gpxtpx:TrackPointExtension><gpxtpx:hr>124</gpxtpx:hr></gpxtpx:TrackPointExtension></extensions>
      </trkpt>
      <trkpt lat="59.3005135537" lon="18.0979796286">
        <ele>32</ele>
        <time>2011-05-12T18:02:47Z</time>
        <extensions><gpxtpx:TrackPointExtension><gpxtpx:hr>124</gpxtpx:hr></gpxtpx:TrackPointExtension></extensions>
      </trkpt>
      <trkpt lat="59.3004897491" lon="18.0981260604">
        <ele>32.6</ele>
        <time>2011-05-12T18:02:50Z</time>
        <extensions><gpxtpx:TrackPointExtension><gpxtpx:hr>124</gpxtpx:hr></gpxtpx:TrackPointExtension></extensions>
      </trkpt>
      <trkpt lat="59.3004548804" lon="18.0983511144">
        <ele>33</ele>
        <time>2011-05-12T18:02:55Z</time>
        <extensions><gpxtpx:TrackPointExtension><gpxtpx:hr>123</gpxtpx:hr></gpxtpx:TrackPointExtension></extensions>
      </trkpt>
      <trkpt lat="59.300411546" lon="18.0985160702">
        <ele>33.4</ele>
        <time>2011-05-12T18:02:59Z</time>
        <extensions><gpxtpx:TrackPointExtension><gpxtpx:hr>124</gpxtpx:hr></gpxtpx:TrackPointExtension></extensions>
      </trkpt>
      <trkpt lat="59.3004010686" lon="18.0987567984">
        <ele>33.6</ele>
        <time>2011-05-12T18:03:04Z</time>
        <extensions><gpxtpx:TrackPointExtension><gpxtpx:hr>125</gpxtpx:hr></gpxtpx:TrackPointExtension></extensions>
      </trkpt>
      <trkpt lat="59.3004253761" lon="18.0989634122">
        <ele>33.6</ele>
        <time>2011-05-12T18:03:09Z</time>
        <extensions><gpxtpx:TrackPointExtension><gpxtpx:hr>122</gpxtpx:hr></gpxtpx:TrackPointExtension></extensions>
      </trkpt>
      <trkpt lat="59.3004361888" lon="18.0990950918">
        <ele>34.4</ele>
        <time>2011-05-12T18:03:13Z</time>
        <extensions><gpxtpx:TrackPointExtension><gpxtpx:hr>116</gpxtpx:hr></gpxtpx:TrackPointExtension></extensions>
      </trkpt>
      <trkpt lat="59.3004459118" lon="18.0991793299">
        <ele>34.8</ele>
        <time>2011-05-12T18:03:16Z</time>
        <extensions><gpxtpx:TrackPointExtension><gpxtpx:hr>111</gpxtpx:hr></gpxtpx:TrackPointExtension></extensions>
      </trkpt>
      <trkpt lat="59.3004464147" lon="18.0993687609">
        <ele>35.2</ele>
        <time>2011-05-12T18:03:21Z</time>
        <extensions><gpxtpx:TrackPointExtension><gpxtpx:hr>111</gpxtpx:hr></gpxtpx:TrackPointExtension></extensions>
      </trkpt>
      <trkpt lat="59.3004378651" lon="18.0994550106">
        <ele>35.6</ele>
        <time>2011-05-12T18:03:25Z</time>
        <extensions><gpxtpx:TrackPointExtension><gpxtpx:hr>118</gpxtpx:hr></gpxtpx:TrackPointExtension></extensions>
      </trkpt>
      <trkpt lat="59.3004285612" lon="18.0995135163">
        <ele>35.6</ele>
        <time>2011-05-12T18:03:27Z</time>
        <extensions><gpxtpx:TrackPointExtension><gpxtpx:hr>118</gpxtpx:hr></gpxtpx:TrackPointExtension></extensions>
      </trkpt>
      <trkpt lat="59.3003882443" lon="18.0996163622">
        <ele>35.8</ele>
        <time>2011-05-12T18:03:32Z</time>
        <extensions><gpxtpx:TrackPointExtension><gpxtpx:hr>125</gpxtpx:hr></gpxtpx:TrackPointExtension></extensions>
      </trkpt>
      <trkpt lat="59.3003498552" lon="18.0997110777">
        <ele>36</ele>
        <time>2011-05-12T18:03:36Z</time>
        <extensions><gpxtpx:TrackPointExtension><gpxtpx:hr>128</gpxtpx:hr></gpxtpx:TrackPointExtension></extensions>
      </trkpt>
      <trkpt lat="59.3003346001" lon="18.0998036977">
        <ele>36.6</ele>
        <time>2011-05-12T18:03:40Z</time>
        <extensions><gpxtpx:TrackPointExtension><gpxtpx:hr>128</gpxtpx:hr></gpxtpx:TrackPointExtension></extensions>
      </trkpt>
      <trkpt lat="59.3003264697" lon="18.0998545758">
        <ele>37</ele>
        <time>2011-05-12T18:03:42Z</time>
        <extensions><gpxtpx:TrackPointExtension><gpxtpx:hr>128</gpxtpx:hr></gpxtpx:TrackPointExtension></extensions>
      </trkpt>
      <trkpt lat="59.3002671258" lon="18.0999264925">
        <ele>37.4</ele>
        <time>2011-05-12T18:03:47Z</time>
        <extensions><gpxtpx:TrackPointExtension><gpxtpx:hr>127</gpxtpx:hr></gpxtpx:TrackPointExtension></extensions>
      </trkpt>
      <trkpt lat="59.3001940357" lon="18.1000098924">
        <ele>37.6</ele>
        <time>2011-05-12T18:03:52Z</time>
        <extensions><gpxtpx:TrackPointExtension><gpxtpx:hr>128</gpxtpx:hr></gpxtpx:TrackPointExtension></extensions>
      </trkpt>
      <trkpt lat="59.3001351947" lon="18.1000854133">
        <ele>37.8</ele>
        <time>2011-05-12T18:03:56Z</time>
        <extensions><gpxtpx:TrackPointExtension><gpxtpx:hr>127</gpxtpx:hr></gpxtpx:TrackPointExtension></extensions>
      </trkpt>
      <trkpt lat="59.3001284892" lon="18.100120282">
        <ele>37.8</ele>
        <time>2011-05-12T18:03:57Z</time>
        <extensions><gpxtpx:TrackPointExtension><gpxtpx:hr>127</gpxtpx:hr></gpxtpx:TrackPointExtension></extensions>
      </trkpt>
      <trkpt lat="59.30011424" lon="18.1001810508">
        <ele>37.8</ele>
        <time>2011-05-12T18:03:59Z</time>
        <extensions><gpxtpx:TrackPointExtension><gpxtpx:hr>127</gpxtpx:hr></gpxtpx:TrackPointExtension></extensions>
      </trkpt>
      <trkpt lat="59.3000455084" lon="18.1003297457">
        <ele>38</ele>
        <time>2011-05-12T18:04:04Z</time>
        <extensions><gpxtpx:TrackPointExtension><gpxtpx:hr>126</gpxtpx:hr></gpxtpx:TrackPointExtension></extensions>
      </trkpt>
      <trkpt lat="59.3000035989" lon="18.1004033388">
        <ele>38.6</ele>
        <time>2011-05-12T18:04:08Z</time>
        <extensions><gpxtpx:TrackPointExtension><gpxtpx:hr>125</gpxtpx:hr></gpxtpx:TrackPointExtension></extensions>
      </trkpt>
      <trkpt lat="59.2999911937" lon="18.1004284007">
        <ele>38.8</ele>
        <time>2011-05-12T18:04:09Z</time>
        <extensions><gpxtpx:TrackPointExtension><gpxtpx:hr>124</gpxtpx:hr></gpxtpx:TrackPointExtension></extensions>
      </trkpt>
      <trkpt lat="59.2999421596" lon="18.1005447414">
        <ele>39.4</ele>
        <time>2011-05-12T18:04:14Z</time>
        <extensions><gpxtpx:TrackPointExtension><gpxtpx:hr>124</gpxtpx:hr></gpxtpx:TrackPointExtension></extensions>
      </trkpt>
      <trkpt lat="59.2999323527" lon="18.1005658638">
        <ele>39.4</ele>
        <time>2011-05-12T18:04:15Z</time>
        <extensions><gpxtpx:TrackPointExtension><gpxtpx:hr>124</gpxtpx:hr></gpxtpx:TrackPointExtension></extensions>
      </trkpt>
      <trkpt lat="59.2999124038" lon="18.1006166582">
        <ele>39.6</ele>
        <time>2011-05-12T18:04:17Z</time>
        <extensions><gpxtpx:TrackPointExtension><gpxtpx:hr>125</gpxtpx:hr></gpxtpx:TrackPointExtension></extensions>
      </trkpt>
      <trkpt lat="59.2998305127" lon="18.1007214319">
        <ele>40.2</ele>
        <time>2011-05-12T18:04:22Z</time>
        <extensions><gpxtpx:TrackPointExtension><gpxtpx:hr>124</gpxtpx:hr></gpxtpx:TrackPointExtension></extensions>
      </trkpt>
      <trkpt lat="59.2997671455" lon="18.1009137965">
        <ele>41</ele>
        <time>2011-05-12T18:04:27Z</time>
        <extensions><gpxtpx:TrackPointExtension><gpxtpx:hr>123</gpxtpx:hr></gpxtpx:TrackPointExtension></extensions>
      </trkpt>
      <trkpt lat="59.2997375574" lon="18.1009805164">
        <ele>41.2</ele>
        <time>2011-05-12T18:04:29Z</time>
        <extensions><gpxtpx:TrackPointExtension><gpxtpx:hr>123</gpxtpx:hr></gpxtpx:TrackPointExtension></extensions>
      </trkpt>
      <trkpt lat="59.2997038621" lon="18.1010102722">
        <ele>41.4</ele>
        <time>2011-05-12T18:04:31Z</time>
        <extensions><gpxtpx:TrackPointExtension><gpxtpx:hr>121</gpxtpx:hr></gpxtpx:TrackPointExtension></extensions>
      </trkpt>
      <trkpt lat="59.2996506371" lon="18.1010479069">
        <ele>41.6</ele>
        <time>2011-05-12T18:04:34Z</time>
        <extensions><gpxtpx:TrackPointExtension><gpxtpx:hr>121</gpxtpx:hr></gpxtpx:TrackPointExtension></extensions>
      </trkpt>
      <trkpt lat="59.2996083923" lon="18.1010728011">
        <ele>41.8</ele>
        <time>2011-05-12T18:04:37Z</time>
        <extensions><gpxtpx:TrackPointExtension><gpxtpx:hr>120</gpxtpx:hr></gpxtpx:TrackPointExtension></extensions>
      </trkpt>
      <trkpt lat="59.29956313" lon="18.1011826879">
        <ele>42.6</ele>
        <time>2011-05-12T18:04:41Z</time>
        <extensions><gpxtpx:TrackPointExtension><gpxtpx:hr>120</gpxtpx:hr></gpxtpx:TrackPointExtension></extensions>
      </trkpt>
      <trkpt lat="59.2994870224" lon="18.1012725418">
        <ele>43.2</ele>
        <time>2011-05-12T18:04:46Z</time>
        <extensions><gpxtpx:TrackPointExtension><gpxtpx:hr>118</gpxtpx:hr></gpxtpx:TrackPointExtension></extensions>
      </trkpt>
      <trkpt lat="59.2994415087" lon="18.1013497391">
        <ele>43.6</ele>
        <time>2011-05-12T18:04:49Z</time>
        <extensions><gpxtpx:TrackPointExtension><gpxtpx:hr>118</gpxtpx:hr></gpxtpx:TrackPointExtension></extensions>
      </trkpt>
      <trkpt lat="59.2993747049" lon="18.1015031279">
        <ele>43.8</ele>
        <time>2011-05-12T18:04:55Z</time>
        <extensions><gpxtpx:TrackPointExtension><gpxtpx:hr>117</gpxtpx:hr></gpxtpx:TrackPointExtension></extensions>
      </trkpt>
      <trkpt lat="59.2993436919" lon="18.1015605439">
        <ele>44</ele>
        <time>2011-05-12T18:04:58Z</time>
        <extensions><gpxtpx:TrackPointExtension><gpxtpx:hr>115</gpxtpx:hr></gpxtpx:TrackPointExtension></extensions>
      </trkpt>
      <trkpt lat="59.2992842642" lon="18.1016381603">
        <ele>44.2</ele>
        <time>2011-05-12T18:05:03Z</time>
        <extensions><gpxtpx:TrackPointExtension><gpxtpx:hr>112</gpxtpx:hr></gpxtpx:TrackPointExtension></extensions>
      </trkpt>
      <trkpt lat="59.2992564363" lon="18.1017223984">
        <ele>44.2</ele>
        <time>2011-05-12T18:05:07Z</time>
        <extensions><gpxtpx:TrackPointExtension><gpxtpx:hr>109</gpxtpx:hr></gpxtpx:TrackPointExtension></extensions>
      </trkpt>
      <trkpt lat="59.2992435282" lon="18.1017493881">
        <ele>44.2</ele>
        <time>2011-05-12T18:05:08Z</time>
        <extensions><gpxtpx:TrackPointExtension><gpxtpx:hr>108</gpxtpx:hr></gpxtpx:TrackPointExtension></extensions>
      </trkpt>
      <trkpt lat="59.2992058935" lon="18.1018016912">
        <ele>44.2</ele>
        <time>2011-05-12T18:05:11Z</time>
        <extensions><gpxtpx:TrackPointExtension><gpxtpx:hr>105</gpxtpx:hr></gpxtpx:TrackPointExtension></extensions>
      </trkpt>
      <trkpt lat="59.2991927339" lon="18.101846702">
        <ele>44.2</ele>
        <time>2011-05-12T18:05:13Z</time>
        <extensions><gpxtpx:TrackPointExtension><gpxtpx:hr>104</gpxtpx:hr></gpxtpx:TrackPointExtension></extensions>
      </trkpt>
      <trkpt lat="59.2991576975" lon="18.1019460275">
        <ele>44.8</ele>
        <time>2011-05-12T18:05:17Z</time>
        <extensions><gpxtpx:TrackPointExtension><gpxtpx:hr>102</gpxtpx:hr></gpxtpx:TrackPointExtension></extensions>
      </trkpt>
      <trkpt lat="59.2991368266" lon="18.1019896972">
        <ele>45</ele>
        <time>2011-05-12T18:05:19Z</time>
        <extensions><gpxtpx:TrackPointExtension><gpxtpx:hr>102</gpxtpx:hr></gpxtpx:TrackPointExtension></extensions>
      </trkpt>
      <trkpt lat="59.2990644908" lon="18.1021668906">
        <ele>45.6</ele>
        <time>2011-05-12T18:05:24Z</time>
        <extensions><gpxtpx:TrackPointExtension><gpxtpx:hr>106</gpxtpx:hr></gpxtpx:TrackPointExtension></extensions>
      </trkpt>
      <trkpt lat="59.2990484814" lon="18.1022084648">
        <ele>45.6</ele>
        <time>2011-05-12T18:05:25Z</time>
        <extensions><gpxtpx:TrackPointExtension><gpxtpx:hr>106</gpxtpx:hr></gpxtpx:TrackPointExtension></extensions>
      </trkpt>
      <trkpt lat="59.2990136965" lon="18.1023662121">
        <ele>45.8</ele>
        <time>2011-05-12T18:05:29Z</time>
        <extensions><gpxtpx:TrackPointExtension><gpxtpx:hr>106</gpxtpx:hr></gpxtpx:TrackPointExtension></extensions>
      </trkpt>
      <trkpt lat="59.2990032191" lon="18.1026129753">
        <ele>46</ele>
        <time>2011-05-12T18:05:34Z</time>
        <extensions><gpxtpx:TrackPointExtension><gpxtpx:hr>107</gpxtpx:hr></gpxtpx:TrackPointExtension></extensions>
      </trkpt>
      <trkpt lat="59.2990022133" lon="18.1026485145">
        <ele>46</ele>
        <time>2011-05-12T18:05:35Z</time>
        <extensions><gpxtpx:TrackPointExtension><gpxtpx:hr>107</gpxtpx:hr></gpxtpx:TrackPointExtension></extensions>
      </trkpt>
      <trkpt lat="59.2989987767" lon="18.1028973731">
        <ele>46.8</ele>
        <time>2011-05-12T18:05:41Z</time>
        <extensions><gpxtpx:TrackPointExtension><gpxtpx:hr>107</gpxtpx:hr></gpxtpx:TrackPointExtension></extensions>
      </trkpt>
      <trkpt lat="59.2989728766" lon="18.1030948507">
        <ele>47.4</ele>
        <time>2011-05-12T18:05:46Z</time>
        <extensions><gpxtpx:TrackPointExtension><gpxtpx:hr>109</gpxtpx:hr></gpxtpx:TrackPointExtension></extensions>
      </trkpt>
      <trkpt lat="59.2989594656" lon="18.1032259436">
        <ele>47.6</ele>
        <time>2011-05-12T18:05:49Z</time>
        <extensions><gpxtpx:TrackPointExtension><gpxtpx:hr>111</gpxtpx:hr></gpxtpx:TrackPointExtension></extensions>
      </trkpt>
      <trkpt lat="59.2989250998" lon="18.1033551087">
        <ele>48.4</ele>
        <time>2011-05-12T18:05:53Z</time>
        <extensions><gpxtpx:TrackPointExtension><gpxtpx:hr>112</gpxtpx:hr></gpxtpx:TrackPointExtension></extensions>
      </trkpt>
      <trkpt lat="59.2988935001" lon="18.1034615588">
        <ele>49</ele>
        <time>2011-05-12T18:05:56Z</time>
        <extensions><gpxtpx:TrackPointExtension><gpxtpx:hr>111</gpxtpx:hr></gpxtpx:TrackPointExtension></extensions>
      </trkpt>
      <trkpt lat="59.2988299653" lon="18.1036219046">
        <ele>49.6</ele>
        <time>2011-05-12T18:06:01Z</time>
        <extensions><gpxtpx:TrackPointExtension><gpxtpx:hr>111</gpxtpx:hr></gpxtpx:TrackPointExtension></extensions>
      </trkpt>
      <trkpt lat="59.2987762373" lon="18.1037840943">
        <ele>49.8</ele>
        <time>2011-05-12T18:06:05Z</time>
        <extensions><gpxtpx:TrackPointExtension><gpxtpx:hr>111</gpxtpx:hr></gpxtpx:TrackPointExtension></extensions>
      </trkpt>
      <trkpt lat="59.2987505048" lon="18.1038305301">
        <ele>50</ele>
        <time>2011-05-12T18:06:07Z</time>
        <extensions><gpxtpx:TrackPointExtension><gpxtpx:hr>112</gpxtpx:hr></gpxtpx:TrackPointExtension></extensions>
      </trkpt>
      <trkpt lat="59.2986646742" lon="18.1039183724">
        <ele>50.2</ele>
        <time>2011-05-12T18:06:12Z</time>
        <extensions><gpxtpx:TrackPointExtension><gpxtpx:hr>114</gpxtpx:hr></gpxtpx:TrackPointExtension></extensions>
      </trkpt>
      <trkpt lat="59.2985961941" lon="18.1040996729">
        <ele>50.4</ele>
        <time>2011-05-12T18:06:16Z</time>
        <extensions><gpxtpx:TrackPointExtension><gpxtpx:hr>115</gpxtpx:hr></gpxtpx:TrackPointExtension></extensions>
      </trkpt>
      <trkpt lat="59.29856845" lon="18.1041798038">
        <ele>50.4</ele>
        <time>2011-05-12T18:06:18Z</time>
        <extensions><gpxtpx:TrackPointExtension><gpxtpx:hr>115</gpxtpx:hr></gpxtpx:TrackPointExtension></extensions>
      </trkpt>
      <trkpt lat="59.2985296418" lon="18.1042494574">
        <ele>50.4</ele>
        <time>2011-05-12T18:06:20Z</time>
        <extensions><gpxtpx:TrackPointExtension><gpxtpx:hr>114</gpxtpx:hr></gpxtpx:TrackPointExtension></extensions>
      </trkpt>
      <trkpt lat="59.2984790151" lon="18.1043157583">
        <ele>50.4</ele>
        <time>2011-05-12T18:06:23Z</time>
        <extensions><gpxtpx:TrackPointExtension><gpxtpx:hr>113</gpxtpx:hr></gpxtpx:TrackPointExtension></extensions>
      </trkpt>
      <trkpt lat="59.2983963696" lon="18.1044712425">
        <ele>50.4</ele>
        <time>2011-05-12T18:06:28Z</time>
        <extensions><gpxtpx:TrackPointExtension><gpxtpx:hr>112</gpxtpx:hr></gpxtpx:TrackPointExtension></extensions>
      </trkpt>
      <trkpt lat="59.2983107065" lon="18.1046218652">
        <ele>50.4</ele>
        <time>2011-05-12T18:06:33Z</time>
        <extensions><gpxtpx:TrackPointExtension><gpxtpx:hr>111</gpxtpx:hr></gpxtpx:TrackPointExtension></extensions>
      </trkpt>
      <trkpt lat="59.2982451601" lon="18.1047797802">
        <ele>50.4</ele>
        <time>2011-05-12T18:06:38Z</time>
        <extensions><gpxtpx:TrackPointExtension><gpxtpx:hr>110</gpxtpx:hr></gpxtpx:TrackPointExtension></extensions>
      </trkpt>
      <trkpt lat="59.2982240377" lon="18.1049864779">
        <ele>50.6</ele>
        <time>2011-05-12T18:06:43Z</time>
        <extensions><gpxtpx:TrackPointExtension><gpxtpx:hr>111</gpxtpx:hr></gpxtpx:TrackPointExtension></extensions>
      </trkpt>
      <trkpt lat="59.2982195115" lon="18.1050292256">
        <ele>50.6</ele>
        <time>2011-05-12T18:06:44Z</time>
        <extensions><gpxtpx:TrackPointExtension><gpxtpx:hr>110</gpxtpx:hr></gpxtpx:TrackPointExtension></extensions>
      </trkpt>
      <trkpt lat="59.298204005" lon="18.1051083507">
        <ele>50.6</ele>
        <time>2011-05-12T18:06:46Z</time>
        <extensions><gpxtpx:TrackPointExtension><gpxtpx:hr>111</gpxtpx:hr></gpxtpx:TrackPointExtension></extensions>
      </trkpt>
      <trkpt lat="59.2981685495" lon="18.1052586382">
        <ele>50.6</ele>
        <time>2011-05-12T18:06:51Z</time>
        <extensions><gpxtpx:TrackPointExtension><gpxtpx:hr>112</gpxtpx:hr></gpxtpx:TrackPointExtension></extensions>
      </trkpt>
      <trkpt lat="59.2981239578" lon="18.105361987">
        <ele>50.6</ele>
        <time>2011-05-12T18:06:54Z</time>
        <extensions><gpxtpx:TrackPointExtension><gpxtpx:hr>112</gpxtpx:hr></gpxtpx:TrackPointExtension></extensions>
      </trkpt>
      <trkpt lat="59.2980924419" lon="18.1054270306">
        <ele>50.6</ele>
        <time>2011-05-12T18:06:56Z</time>
        <extensions><gpxtpx:TrackPointExtension><gpxtpx:hr>111</gpxtpx:hr></gpxtpx:TrackPointExtension></extensions>
      </trkpt>
      <trkpt lat="59.2980582437" lon="18.105570864">
        <ele>50.6</ele>
        <time>2011-05-12T18:07:00Z</time>
        <extensions><gpxtpx:TrackPointExtension><gpxtpx:hr>111</gpxtpx:hr></gpxtpx:TrackPointExtension></extensions>
      </trkpt>
      <trkpt lat="59.2980320922" lon="18.1056530066">
        <ele>50.6</ele>
        <time>2011-05-12T18:07:03Z</time>
        <extensions><gpxtpx:TrackPointExtension><gpxtpx:hr>113</gpxtpx:hr></gpxtpx:TrackPointExtension></extensions>
      </trkpt>
      <trkpt lat="59.2980021688" lon="18.1058242488">
        <ele>50.6</ele>
        <time>2011-05-12T18:07:08Z</time>
        <extensions><gpxtpx:TrackPointExtension><gpxtpx:hr>113</gpxtpx:hr></gpxtpx:TrackPointExtension></extensions>
      </trkpt>
      <trkpt lat="59.2979866623" lon="18.1058811619">
        <ele>50.6</ele>
        <time>2011-05-12T18:07:10Z</time>
        <extensions><gpxtpx:TrackPointExtension><gpxtpx:hr>112</gpxtpx:hr></gpxtpx:TrackPointExtension></extensions>
      </trkpt>
      <trkpt lat="59.2978984847" lon="18.1059877797">
        <ele>50.6</ele>
        <time>2011-05-12T18:07:17Z</time>
        <extensions><gpxtpx:TrackPointExtension><gpxtpx:hr>111</gpxtpx:hr></gpxtpx:TrackPointExtension></extensions>
      </trkpt>
      <trkpt lat="59.2978662144" lon="18.1061425934">
        <ele>50.6</ele>
        <time>2011-05-12T18:07:22Z</time>
        <extensions><gpxtpx:TrackPointExtension><gpxtpx:hr>112</gpxtpx:hr></gpxtpx:TrackPointExtension></extensions>
      </trkpt>
      <trkpt lat="59.2978833135" lon="18.1061925495">
        <ele>50.6</ele>
        <time>2011-05-12T18:07:24Z</time>
        <extensions><gpxtpx:TrackPointExtension><gpxtpx:hr>112</gpxtpx:hr></gpxtpx:TrackPointExtension></extensions>
      </trkpt>
      <trkpt lat="59.29797476" lon="18.106372006">
        <ele>50.6</ele>
        <time>2011-05-12T18:07:30Z</time>
        <extensions><gpxtpx:TrackPointExtension><gpxtpx:hr>109</gpxtpx:hr></gpxtpx:TrackPointExtension></extensions>
      </trkpt>
      <trkpt lat="59.2980146578" lon="18.1064213754">
        <ele>50.6</ele>
        <time>2011-05-12T18:07:33Z</time>
        <extensions><gpxtpx:TrackPointExtension><gpxtpx:hr>109</gpxtpx:hr></gpxtpx:TrackPointExtension></extensions>
      </trkpt>
      <trkpt lat="59.2980727444" lon="18.1065272388">
        <ele>51.4</ele>
        <time>2011-05-12T18:07:38Z</time>
        <extensions><gpxtpx:TrackPointExtension><gpxtpx:hr>111</gpxtpx:hr></gpxtpx:TrackPointExtension></extensions>
      </trkpt>
      <trkpt lat="59.2981184258" lon="18.1068250477">
        <ele>52</ele>
        <time>2011-05-12T18:07:45Z</time>
        <extensions><gpxtpx:TrackPointExtension><gpxtpx:hr>112</gpxtpx:hr></gpxtpx:TrackPointExtension></extensions>
      </trkpt>
      <trkpt lat="59.2981184258" lon="18.1070195077">
        <ele>52.4</ele>
        <time>2011-05-12T18:07:49Z</time>
        <extensions><gpxtpx:TrackPointExtension><gpxtpx:hr>113</gpxtpx:hr></gpxtpx:TrackPointExtension></extensions>
      </trkpt>
      <trkpt lat="59.2980970519" lon="18.1072832861">
        <ele>53.4</ele>
        <time>2011-05-12T18:07:54Z</time>
        <extensions><gpxtpx:TrackPointExtension><gpxtpx:hr>113</gpxtpx:hr></gpxtpx:TrackPointExtension></extensions>
      </trkpt>
      <trkpt lat="59.2980387977" lon="18.1075046521">
        <ele>53.8</ele>
        <time>2011-05-12T18:07:58Z</time>
        <extensions><gpxtpx:TrackPointExtension><gpxtpx:hr>112</gpxtpx:hr></gpxtpx:TrackPointExtension></extensions>
      </trkpt>
      <trkpt lat="59.2979735865" lon="18.1075682707">
        <ele>54</ele>
        <time>2011-05-12T18:08:02Z</time>
        <extensions><gpxtpx:TrackPointExtension><gpxtpx:hr>110</gpxtpx:hr></gpxtpx:TrackPointExtension></extensions>
      </trkpt>
      <trkpt lat="59.297971072" lon="18.1075675164">
        <ele>54.2</ele>
        <time>2011-05-12T18:08:03Z</time>
        <extensions><gpxtpx:TrackPointExtension><gpxtpx:hr>109</gpxtpx:hr></gpxtpx:TrackPointExtension></extensions>
      </trkpt>
      <trkpt lat="59.2979569066" lon="18.1075768203">
        <ele>54.4</ele>
        <time>2011-05-12T18:08:15Z</time>
        <extensions><gpxtpx:TrackPointExtension><gpxtpx:hr>104</gpxtpx:hr></gpxtpx:TrackPointExtension></extensions>
      </trkpt>
      <trkpt lat="59.2979517098" lon="18.1075698633">
        <ele>54.6</ele>
        <time>2011-05-12T18:08:16Z</time>
        <extensions><gpxtpx:TrackPointExtension><gpxtpx:hr>104</gpxtpx:hr></gpxtpx:TrackPointExtension></extensions>
      </trkpt>
      <trkpt lat="59.2979409809" lon="18.107572294">
        <ele>54.6</ele>
        <time>2011-05-12T18:08:17Z</time>
        <extensions><gpxtpx:TrackPointExtension><gpxtpx:hr>105</gpxtpx:hr></gpxtpx:TrackPointExtension></extensions>
      </trkpt>
      <trkpt lat="59.2978352852" lon="18.107604732">
        <ele>54.6</ele>
        <time>2011-05-12T18:08:21Z</time>
        <extensions><gpxtpx:TrackPointExtension><gpxtpx:hr>106</gpxtpx:hr></gpxtpx:TrackPointExtension></extensions>
      </trkpt>
      <trkpt lat="59.2976907812" lon="18.1077032193">
        <ele>54.6</ele>
        <time>2011-05-12T18:08:26Z</time>
        <extensions><gpxtpx:TrackPointExtension><gpxtpx:hr>108</gpxtpx:hr></gpxtpx:TrackPointExtension></extensions>
      </trkpt>
      <trkpt lat="59.2976641268" lon="18.1077319692">
        <ele>54.6</ele>
        <time>2011-05-12T18:08:27Z</time>
        <extensions><gpxtpx:TrackPointExtension><gpxtpx:hr>116</gpxtpx:hr></gpxtpx:TrackPointExtension></extensions>
      </trkpt>
      <trkpt lat="59.2976360474" lon="18.1077605515">
        <ele>54.6</ele>
        <time>2011-05-12T18:08:28Z</time>
        <extensions><gpxtpx:TrackPointExtension><gpxtpx:hr>116</gpxtpx:hr></gpxtpx:TrackPointExtension></extensions>
      </trkpt>
      <trkpt lat="59.297565388" lon="18.1078478071">
        <ele>54.6</ele>
        <time>2011-05-12T18:08:31Z</time>
        <extensions><gpxtpx:TrackPointExtension><gpxtpx:hr>112</gpxtpx:hr></gpxtpx:TrackPointExtension></extensions>
      </trkpt>
      <trkpt lat="59.2974771266" lon="18.1079840968">
        <ele>54.6</ele>
        <time>2011-05-12T18:08:35Z</time>
        <extensions><gpxtpx:TrackPointExtension><gpxtpx:hr>107</gpxtpx:hr></gpxtpx:TrackPointExtension></extensions>
      </trkpt>
      <trkpt lat="59.29741443" lon="18.1081901239">
        <ele>54.6</ele>
        <time>2011-05-12T18:08:39Z</time>
        <extensions><gpxtpx:TrackPointExtension><gpxtpx:hr>106</gpxtpx:hr></gpxtpx:TrackPointExtension></extensions>
      </trkpt>
      <trkpt lat="59.2973538288" lon="18.1084834904">
        <ele>53.8</ele>
        <time>2011-05-12T18:08:45Z</time>
        <extensions><gpxtpx:TrackPointExtension><gpxtpx:hr>108</gpxtpx:hr></gpxtpx:TrackPointExtension></extensions>
      </trkpt>
      <trkpt lat="59.2973234864" lon="18.1086734242">
        <ele>53.4</ele>
        <time>2011-05-12T18:08:49Z</time>
        <extensions><gpxtpx:TrackPointExtension><gpxtpx:hr>107</gpxtpx:hr></gpxtpx:TrackPointExtension></extensions>
      </trkpt>
      <trkpt lat="59.297320888" lon="18.1087058622">
        <ele>53.2</ele>
        <time>2011-05-12T18:08:50Z</time>
        <extensions><gpxtpx:TrackPointExtension><gpxtpx:hr>107</gpxtpx:hr></gpxtpx:TrackPointExtension></extensions>
      </trkpt>
      <trkpt lat="59.2973281802" lon="18.1088512882">
        <ele>53</ele>
        <time>2011-05-12T18:08:53Z</time>
        <extensions><gpxtpx:TrackPointExtension><gpxtpx:hr>109</gpxtpx:hr></gpxtpx:TrackPointExtension></extensions>
      </trkpt>
      <trkpt lat="59.2973107459" lon="18.1089812076">
        <ele>53</ele>
        <time>2011-05-12T18:08:56Z</time>
        <extensions><gpxtpx:TrackPointExtension><gpxtpx:hr>109</gpxtpx:hr></gpxtpx:TrackPointExtension></extensions>
      </trkpt>
      <trkpt lat="59.2973071417" lon="18.1090257993">
        <ele>52.8</ele>
        <time>2011-05-12T18:08:57Z</time>
        <extensions><gpxtpx:TrackPointExtension><gpxtpx:hr>109</gpxtpx:hr></gpxtpx:TrackPointExtension></extensions>
      </trkpt>
      <trkpt lat="59.2973136795" lon="18.1093400368">
        <ele>51.6</ele>
        <time>2011-05-12T18:09:04Z</time>
        <extensions><gpxtpx:TrackPointExtension><gpxtpx:hr>109</gpxtpx:hr></gpxtpx:TrackPointExtension></extensions>
      </trkpt>
      <trkpt lat="59.2973284317" lon="18.1095493328">
        <ele>51.2</ele>
        <time>2011-05-12T18:09:09Z</time>
        <extensions><gpxtpx:TrackPointExtension><gpxtpx:hr>107</gpxtpx:hr></gpxtpx:TrackPointExtension></extensions>
      </trkpt>
      <trkpt lat="59.2973414236" lon="18.1095916614">
        <ele>51.2</ele>
        <time>2011-05-12T18:09:10Z</time>
        <extensions><gpxtpx:TrackPointExtension><gpxtpx:hr>107</gpxtpx:hr></gpxtpx:TrackPointExtension></extensions>
      </trkpt>
      <trkpt lat="59.2973726043" lon="18.1098446271">
        <ele>50.8</ele>
        <time>2011-05-12T18:09:16Z</time>
        <extensions><gpxtpx:TrackPointExtension><gpxtpx:hr>110</gpxtpx:hr></gpxtpx:TrackPointExtension></extensions>
      </trkpt>
      <trkpt lat="59.2974072215" lon="18.1099613032">
        <ele>50.8</ele>
        <time>2011-05-12T18:09:19Z</time>
        <extensions><gpxtpx:TrackPointExtension><gpxtpx:hr>110</gpxtpx:hr></gpxtpx:TrackPointExtension></extensions>
      </trkpt>
      <trkpt lat="59.297451478" lon="18.1101741196">
        <ele>50.6</ele>
        <time>2011-05-12T18:09:24Z</time>
        <extensions><gpxtpx:TrackPointExtension><gpxtpx:hr>110</gpxtpx:hr></gpxtpx:TrackPointExtension></extensions>
      </trkpt>
      <trkpt lat="59.2974682418" lon="18.1103416738">
        <ele>50.6</ele>
        <time>2011-05-12T18:09:28Z</time>
        <extensions><gpxtpx:TrackPointExtension><gpxtpx:hr>109</gpxtpx:hr></gpxtpx:TrackPointExtension></extensions>
      </trkpt>
      <trkpt lat="59.2974832454" lon="18.1105643809">
        <ele>50.6</ele>
        <time>2011-05-12T18:09:33Z</time>
        <extensions><gpxtpx:TrackPointExtension><gpxtpx:hr>108</gpxtpx:hr></gpxtpx:TrackPointExtension></extensions>
      </trkpt>
      <trkpt lat="59.2974896156" lon="18.1106622815">
        <ele>50.6</ele>
        <time>2011-05-12T18:09:35Z</time>
        <extensions><gpxtpx:TrackPointExtension><gpxtpx:hr>109</gpxtpx:hr></gpxtpx:TrackPointExtension></extensions>
      </trkpt>
      <trkpt lat="59.2975671482" lon="18.1109567376">
        <ele>50.6</ele>
        <time>2011-05-12T18:09:41Z</time>
        <extensions><gpxtpx:TrackPointExtension><gpxtpx:hr>108</gpxtpx:hr></gpxtpx:TrackPointExtension></extensions>
      </trkpt>
      <trkpt lat="59.2975828224" lon="18.1111659499">
        <ele>50.6</ele>
        <time>2011-05-12T18:09:45Z</time>
        <extensions><gpxtpx:TrackPointExtension><gpxtpx:hr>107</gpxtpx:hr></gpxtpx:TrackPointExtension></extensions>
      </trkpt>
      <trkpt lat="59.2976003405" lon="18.111229317">
        <ele>50.6</ele>
        <time>2011-05-12T18:09:47Z</time>
        <extensions><gpxtpx:TrackPointExtension><gpxtpx:hr>108</gpxtpx:hr></gpxtpx:TrackPointExtension></extensions>
      </trkpt>
      <trkpt lat="59.297628839" lon="18.1114801035">
        <ele>50.4</ele>
        <time>2011-05-12T18:09:52Z</time>
        <extensions><gpxtpx:TrackPointExtension><gpxtpx:hr>111</gpxtpx:hr></gpxtpx:TrackPointExtension></extensions>
      </trkpt>
      <trkpt lat="59.2976122428" lon="18.1115837037">
        <ele>50</ele>
        <time>2011-05-12T18:09:54Z</time>
        <extensions><gpxtpx:TrackPointExtension><gpxtpx:hr>111</gpxtpx:hr></gpxtpx:TrackPointExtension></extensions>
      </trkpt>
      <trkpt lat="59.2975868457" lon="18.1117846179">
        <ele>49.4</ele>
        <time>2011-05-12T18:09:59Z</time>
        <extensions><gpxtpx:TrackPointExtension><gpxtpx:hr>111</gpxtpx:hr></gpxtpx:TrackPointExtension></extensions>
      </trkpt>
      <trkpt lat="59.2976052858" lon="18.1118307183">
        <ele>49</ele>
        <time>2011-05-12T18:10:05Z</time>
        <extensions><gpxtpx:TrackPointExtension><gpxtpx:hr>107</gpxtpx:hr></gpxtpx:TrackPointExtension></extensions>
      </trkpt>
      <trkpt lat="59.297626995" lon="18.1118384297">
        <ele>48.8</ele>
        <time>2011-05-12T18:10:09Z</time>
        <extensions><gpxtpx:TrackPointExtension><gpxtpx:hr>103</gpxtpx:hr></gpxtpx:TrackPointExtension></extensions>
      </trkpt>
      <trkpt lat="59.29759967" lon="18.1118909842">
        <ele>48.6</ele>
        <time>2011-05-12T18:10:14Z</time>
        <extensions><gpxtpx:TrackPointExtension><gpxtpx:hr>105</gpxtpx:hr></gpxtpx:TrackPointExtension></extensions>
      </trkpt>
      <trkpt lat="59.297577877" lon="18.1119177225">
        <ele>48.6</ele>
        <time>2011-05-12T18:10:16Z</time>
        <extensions><gpxtpx:TrackPointExtension><gpxtpx:hr>106</gpxtpx:hr></gpxtpx:TrackPointExtension></extensions>
      </trkpt>
      <trkpt lat="59.297541751" lon="18.1120509947">
        <ele>48.6</ele>
        <time>2011-05-12T18:10:22Z</time>
        <extensions><gpxtpx:TrackPointExtension><gpxtpx:hr>111</gpxtpx:hr></gpxtpx:TrackPointExtension></extensions>
      </trkpt>
      <trkpt lat="59.2975293458" lon="18.1120642381">
        <ele>48.6</ele>
        <time>2011-05-12T18:10:23Z</time>
        <extensions><gpxtpx:TrackPointExtension><gpxtpx:hr>112</gpxtpx:hr></gpxtpx:TrackPointExtension></extensions>
      </trkpt>
      <trkpt lat="59.297517695" lon="18.1120820915">
        <ele>48.6</ele>
        <time>2011-05-12T18:10:24Z</time>
        <extensions><gpxtpx:TrackPointExtension><gpxtpx:hr>113</gpxtpx:hr></gpxtpx:TrackPointExtension></extensions>
      </trkpt>
      <trkpt lat="59.2974971593" lon="18.1121179661">
        <ele>48.6</ele>
        <time>2011-05-12T18:10:26Z</time>
        <extensions><gpxtpx:TrackPointExtension><gpxtpx:hr>117</gpxtpx:hr></gpxtpx:TrackPointExtension></extensions>
      </trkpt>
      <trkpt lat="59.2974658948" lon="18.1121438661">
        <ele>48.6</ele>
        <time>2011-05-12T18:10:29Z</time>
        <extensions><gpxtpx:TrackPointExtension><gpxtpx:hr>119</gpxtpx:hr></gpxtpx:TrackPointExtension></extensions>
      </trkpt>
      <trkpt lat="59.2974321158" lon="18.1122115919">
        <ele>48.6</ele>
        <time>2011-05-12T18:10:33Z</time>
        <extensions><gpxtpx:TrackPointExtension><gpxtpx:hr>121</gpxtpx:hr></gpxtpx:TrackPointExtension></extensions>
      </trkpt>
      <trkpt lat="59.2974180342" lon="18.1122544234">
        <ele>48.6</ele>
        <time>2011-05-12T18:10:35Z</time>
        <extensions><gpxtpx:TrackPointExtension><gpxtpx:hr>122</gpxtpx:hr></gpxtpx:TrackPointExtension></extensions>
      </trkpt>
      <trkpt lat="59.2974444372" lon="18.112396748">
        <ele>48.6</ele>
        <time>2011-05-12T18:10:40Z</time>
        <extensions><gpxtpx:TrackPointExtension><gpxtpx:hr>125</gpxtpx:hr></gpxtpx:TrackPointExtension></extensions>
      </trkpt>
      <trkpt lat="59.2974580159" lon="18.1124114164">
        <ele>48.6</ele>
        <time>2011-05-12T18:10:41Z</time>
        <extensions><gpxtpx:TrackPointExtension><gpxtpx:hr>125</gpxtpx:hr></gpxtpx:TrackPointExtension></extensions>
      </trkpt>
      <trkpt lat="59.2974975784" lon="18.1124669046">
        <ele>48.6</ele>
        <time>2011-05-12T18:10:44Z</time>
        <extensions><gpxtpx:TrackPointExtension><gpxtpx:hr>125</gpxtpx:hr></gpxtpx:TrackPointExtension></extensions>
      </trkpt>
      <trkpt lat="59.2975605265" lon="18.1124302756">
        <ele>48.6</ele>
        <time>2011-05-12T18:10:49Z</time>
        <extensions><gpxtpx:TrackPointExtension><gpxtpx:hr>124</gpxtpx:hr></gpxtpx:TrackPointExtension></extensions>
      </trkpt>
      <trkpt lat="59.2975956467" lon="18.1123282679">
        <ele>48.4</ele>
        <time>2011-05-12T18:10:53Z</time>
        <extensions><gpxtpx:TrackPointExtension><gpxtpx:hr>125</gpxtpx:hr></gpxtpx:TrackPointExtension></extensions>
      </trkpt>
      <trkpt lat="59.2976419147" lon="18.1122370729">
        <ele>48.4</ele>
        <time>2011-05-12T18:10:57Z</time>
        <extensions><gpxtpx:TrackPointExtension><gpxtpx:hr>126</gpxtpx:hr></gpxtpx:TrackPointExtension></extensions>
      </trkpt>
      <trkpt lat="59.297720537" lon="18.1121913915">
        <ele>48.2</ele>
        <time>2011-05-12T18:11:01Z</time>
        <extensions><gpxtpx:TrackPointExtension><gpxtpx:hr>126</gpxtpx:hr></gpxtpx:TrackPointExtension></extensions>
      </trkpt>
      <trkpt lat="59.2977843232" lon="18.1123023679">
        <ele>47.6</ele>
        <time>2011-05-12T18:11:04Z</time>
        <extensions><gpxtpx:TrackPointExtension><gpxtpx:hr>125</gpxtpx:hr></gpxtpx:TrackPointExtension></extensions>
      </trkpt>
      <trkpt lat="59.2978024281" lon="18.1123459537">
        <ele>47.6</ele>
        <time>2011-05-12T18:11:05Z</time>
        <extensions><gpxtpx:TrackPointExtension><gpxtpx:hr>124</gpxtpx:hr></gpxtpx:TrackPointExtension></extensions>
      </trkpt>
      <trkpt lat="59.2979548111" lon="18.1126001768">
        <ele>46.2</ele>
        <time>2011-05-12T18:11:12Z</time>
        <extensions><gpxtpx:TrackPointExtension><gpxtpx:hr>122</gpxtpx:hr></gpxtpx:TrackPointExtension></extensions>
      </trkpt>
      <trkpt lat="59.298089592" lon="18.1127797171">
        <ele>45.4</ele>
        <time>2011-05-12T18:11:18Z</time>
        <extensions><gpxtpx:TrackPointExtension><gpxtpx:hr>117</gpxtpx:hr></gpxtpx:TrackPointExtension></extensions>
      </trkpt>
      <trkpt lat="59.2982074415" lon="18.1129290825">
        <ele>45</ele>
        <time>2011-05-12T18:11:23Z</time>
        <extensions><gpxtpx:TrackPointExtension><gpxtpx:hr>117</gpxtpx:hr></gpxtpx:TrackPointExtension></extensions>
      </trkpt>
      <trkpt lat="59.2983429769" lon="18.1130964691">
        <ele>44.6</ele>
        <time>2011-05-12T18:11:29Z</time>
        <extensions><gpxtpx:TrackPointExtension><gpxtpx:hr>114</gpxtpx:hr></gpxtpx:TrackPointExtension></extensions>
      </trkpt>
      <trkpt lat="59.2985042446" lon="18.1132681304">
        <ele>43.6</ele>
        <time>2011-05-12T18:11:36Z</time>
        <extensions><gpxtpx:TrackPointExtension><gpxtpx:hr>111</gpxtpx:hr></gpxtpx:TrackPointExtension></extensions>
      </trkpt>
      <trkpt lat="59.2986296378" lon="18.113380364">
        <ele>43</ele>
        <time>2011-05-12T18:11:41Z</time>
        <extensions><gpxtpx:TrackPointExtension><gpxtpx:hr>108</gpxtpx:hr></gpxtpx:TrackPointExtension></extensions>
      </trkpt>
      <trkpt lat="59.2987797577" lon="18.1135420509">
        <ele>42.6</ele>
        <time>2011-05-12T18:11:47Z</time>
        <extensions><gpxtpx:TrackPointExtension><gpxtpx:hr>107</gpxtpx:hr></gpxtpx:TrackPointExtension></extensions>
      </trkpt>
      <trkpt lat="59.2989332303" lon="18.1136733114">
        <ele>42.4</ele>
        <time>2011-05-12T18:11:53Z</time>
        <extensions><gpxtpx:TrackPointExtension><gpxtpx:hr>108</gpxtpx:hr></gpxtpx:TrackPointExtension></extensions>
      </trkpt>
      <trkpt lat="59.2990082483" lon="18.1137221779">
        <ele>42.4</ele>
        <time>2011-05-12T18:11:56Z</time>
        <extensions><gpxtpx:TrackPointExtension><gpxtpx:hr>109</gpxtpx:hr></gpxtpx:TrackPointExtension></extensions>
      </trkpt>
      <trkpt lat="59.2991572784" lon="18.1136422984">
        <ele>42.4</ele>
        <time>2011-05-12T18:12:02Z</time>
        <extensions><gpxtpx:TrackPointExtension><gpxtpx:hr>109</gpxtpx:hr></gpxtpx:TrackPointExtension></extensions>
      </trkpt>
      <trkpt lat="59.2993009442" lon="18.1136221818">
        <ele>42.4</ele>
        <time>2011-05-12T18:12:07Z</time>
        <extensions><gpxtpx:TrackPointExtension><gpxtpx:hr>110</gpxtpx:hr></gpxtpx:TrackPointExtension></extensions>
      </trkpt>
      <trkpt lat="59.2993904629" lon="18.1137187413">
        <ele>42.4</ele>
        <time>2011-05-12T18:12:11Z</time>
        <extensions><gpxtpx:TrackPointExtension><gpxtpx:hr>109</gpxtpx:hr></gpxtpx:TrackPointExtension></extensions>
      </trkpt>
      <trkpt lat="59.2994576857" lon="18.1138158875">
        <ele>42.2</ele>
        <time>2011-05-12T18:12:16Z</time>
        <extensions><gpxtpx:TrackPointExtension><gpxtpx:hr>106</gpxtpx:hr></gpxtpx:TrackPointExtension></extensions>
      </trkpt>
      <trkpt lat="59.2994690851" lon="18.1138377643">
        <ele>42.2</ele>
        <time>2011-05-12T18:12:17Z</time>
        <extensions><gpxtpx:TrackPointExtension><gpxtpx:hr>105</gpxtpx:hr></gpxtpx:TrackPointExtension></extensions>
      </trkpt>
      <trkpt lat="59.2994892855" lon="18.1138888939">
        <ele>42.2</ele>
        <time>2011-05-12T18:12:19Z</time>
        <extensions><gpxtpx:TrackPointExtension><gpxtpx:hr>104</gpxtpx:hr></gpxtpx:TrackPointExtension></extensions>
      </trkpt>
      <trkpt lat="59.2997373059" lon="18.1141816737">
        <ele>42.2</ele>
        <time>2011-05-12T18:12:31Z</time>
        <extensions><gpxtpx:TrackPointExtension><gpxtpx:hr>104</gpxtpx:hr></gpxtpx:TrackPointExtension></extensions>
      </trkpt>
      <trkpt lat="59.2998633697" lon="18.1143359844">
        <ele>41.4</ele>
        <time>2011-05-12T18:12:37Z</time>
        <extensions><gpxtpx:TrackPointExtension><gpxtpx:hr>104</gpxtpx:hr></gpxtpx:TrackPointExtension></extensions>
      </trkpt>
      <trkpt lat="59.2999829794" lon="18.1144788958">
        <ele>40.8</ele>
        <time>2011-05-12T18:12:43Z</time>
        <extensions><gpxtpx:TrackPointExtension><gpxtpx:hr>104</gpxtpx:hr></gpxtpx:TrackPointExtension></extensions>
      </trkpt>
      <trkpt lat="59.3000036827" lon="18.1144940671">
        <ele>40.8</ele>
        <time>2011-05-12T18:12:44Z</time>
        <extensions><gpxtpx:TrackPointExtension><gpxtpx:hr>104</gpxtpx:hr></gpxtpx:TrackPointExtension></extensions>
      </trkpt>
      <trkpt lat="59.3000912736" lon="18.1146125033">
        <ele>40.6</ele>
        <time>2011-05-12T18:12:49Z</time>
        <extensions><gpxtpx:TrackPointExtension><gpxtpx:hr>103</gpxtpx:hr></gpxtpx:TrackPointExtension></extensions>
      </trkpt>
      <trkpt lat="59.3001593346" lon="18.1147280059">
        <ele>39.8</ele>
        <time>2011-05-12T18:12:53Z</time>
        <extensions><gpxtpx:TrackPointExtension><gpxtpx:hr>103</gpxtpx:hr></gpxtpx:TrackPointExtension></extensions>
      </trkpt>
      <trkpt lat="59.3002772679" lon="18.1148930455">
        <ele>39</ele>
        <time>2011-05-12T18:12:58Z</time>
        <extensions><gpxtpx:TrackPointExtension><gpxtpx:hr>101</gpxtpx:hr></gpxtpx:TrackPointExtension></extensions>
      </trkpt>
      <trkpt lat="59.3003837181" lon="18.1150510443">
        <ele>38.2</ele>
        <time>2011-05-12T18:13:03Z</time>
        <extensions><gpxtpx:TrackPointExtension><gpxtpx:hr>102</gpxtpx:hr></gpxtpx:TrackPointExtension></extensions>
      </trkpt>
      <trkpt lat="59.3004266334" lon="18.1152352785">
        <ele>37.4</ele>
        <time>2011-05-12T18:13:07Z</time>
        <extensions><gpxtpx:TrackPointExtension><gpxtpx:hr>104</gpxtpx:hr></gpxtpx:TrackPointExtension></extensions>
      </trkpt>
      <trkpt lat="59.3004614183" lon="18.1154288166">
        <ele>36.8</ele>
        <time>2011-05-12T18:13:11Z</time>
        <extensions><gpxtpx:TrackPointExtension><gpxtpx:hr>102</gpxtpx:hr></gpxtpx:TrackPointExtension></extensions>
      </trkpt>
      <trkpt lat="59.3005231929" lon="18.1156190857">
        <ele>36</ele>
        <time>2011-05-12T18:13:16Z</time>
        <extensions><gpxtpx:TrackPointExtension><gpxtpx:hr>103</gpxtpx:hr></gpxtpx:TrackPointExtension></extensions>
      </trkpt>
      <trkpt lat="59.3005533677" lon="18.1157432216">
        <ele>35.2</ele>
        <time>2011-05-12T18:13:21Z</time>
        <extensions><gpxtpx:TrackPointExtension><gpxtpx:hr>102</gpxtpx:hr></gpxtpx:TrackPointExtension></extensions>
      </trkpt>
      <trkpt lat="59.3005908348" lon="18.1158756556">
        <ele>34.6</ele>
        <time>2011-05-12T18:13:25Z</time>
        <extensions><gpxtpx:TrackPointExtension><gpxtpx:hr>101</gpxtpx:hr></gpxtpx:TrackPointExtension></extensions>
      </trkpt>
      <trkpt lat="59.3006090235" lon="18.1159575468">
        <ele>34</ele>
        <time>2011-05-12T18:13:27Z</time>
        <extensions><gpxtpx:TrackPointExtension><gpxtpx:hr>102</gpxtpx:hr></gpxtpx:TrackPointExtension></extensions>
      </trkpt>
      <trkpt lat="59.3006357618" lon="18.1160137055">
        <ele>33.4</ele>
        <time>2011-05-12T18:13:30Z</time>
        <extensions><gpxtpx:TrackPointExtension><gpxtpx:hr>103</gpxtpx:hr></gpxtpx:TrackPointExtension></extensions>
      </trkpt>
      <trkpt lat="59.300682449" lon="18.1161721234">
        <ele>32.4</ele>
        <time>2011-05-12T18:13:34Z</time>
        <extensions><gpxtpx:TrackPointExtension><gpxtpx:hr>104</gpxtpx:hr></gpxtpx:TrackPointExtension></extensions>
      </trkpt>
      <trkpt lat="59.3007717162" lon="18.116493234">
        <ele>30.6</ele>
        <time>2011-05-12T18:13:40Z</time>
        <extensions><gpxtpx:TrackPointExtension><gpxtpx:hr>106</gpxtpx:hr></gpxtpx:TrackPointExtension></extensions>
      </trkpt>
      <trkpt lat="59.3007776674" lon="18.116744691">
        <ele>29.2</ele>
        <time>2011-05-12T18:13:45Z</time>
        <extensions><gpxtpx:TrackPointExtension><gpxtpx:hr>110</gpxtpx:hr></gpxtpx:TrackPointExtension></extensions>
      </trkpt>
      <trkpt lat="59.3007806848" lon="18.1167881093">
        <ele>29</ele>
        <time>2011-05-12T18:13:46Z</time>
        <extensions><gpxtpx:TrackPointExtension><gpxtpx:hr>111</gpxtpx:hr></gpxtpx:TrackPointExtension></extensions>
      </trkpt>
      <trkpt lat="59.3008170623" lon="18.1169956451">
        <ele>27.4</ele>
        <time>2011-05-12T18:13:51Z</time>
        <extensions><gpxtpx:TrackPointExtension><gpxtpx:hr>115</gpxtpx:hr></gpxtpx:TrackPointExtension></extensions>
      </trkpt>
      <trkpt lat="59.3008056629" lon="18.117248527">
        <ele>26.4</ele>
        <time>2011-05-12T18:13:56Z</time>
        <extensions><gpxtpx:TrackPointExtension><gpxtpx:hr>115</gpxtpx:hr></gpxtpx:TrackPointExtension></extensions>
      </trkpt>
      <trkpt lat="59.3007704589" lon="18.1174076155">
        <ele>25.4</ele>
        <time>2011-05-12T18:14:00Z</time>
        <extensions><gpxtpx:TrackPointExtension><gpxtpx:hr>117</gpxtpx:hr></gpxtpx:TrackPointExtension></extensions>
      </trkpt>
      <trkpt lat="59.300759311" lon="18.1174554762">
        <ele>25</ele>
        <time>2011-05-12T18:14:01Z</time>
        <extensions><gpxtpx:TrackPointExtension><gpxtpx:hr>117</gpxtpx:hr></gpxtpx:TrackPointExtension></extensions>
      </trkpt>
      <trkpt lat="59.3007098578" lon="18.1177619184">
        <ele>24</ele>
        <time>2011-05-12T18:14:08Z</time>
        <extensions><gpxtpx:TrackPointExtension><gpxtpx:hr>120</gpxtpx:hr></gpxtpx:TrackPointExtension></extensions>
      </trkpt>
      <trkpt lat="59.3007044096" lon="18.1178097791">
        <ele>23.8</ele>
        <time>2011-05-12T18:14:09Z</time>
        <extensions><gpxtpx:TrackPointExtension><gpxtpx:hr>120</gpxtpx:hr></gpxtpx:TrackPointExtension></extensions>
      </trkpt>
      <trkpt lat="59.3007734764" lon="18.1180279599">
        <ele>23.2</ele>
        <time>2011-05-12T18:14:14Z</time>
        <extensions><gpxtpx:TrackPointExtension><gpxtpx:hr>121</gpxtpx:hr></gpxtpx:TrackPointExtension></extensions>
      </trkpt>
      <trkpt lat="59.3008296351" lon="18.1182491583">
        <ele>22.2</ele>
        <time>2011-05-12T18:14:19Z</time>
        <extensions><gpxtpx:TrackPointExtension><gpxtpx:hr>121</gpxtpx:hr></gpxtpx:TrackPointExtension></extensions>
      </trkpt>
      <trkpt lat="59.3008455607" lon="18.1183301274">
        <ele>22</ele>
        <time>2011-05-12T18:14:21Z</time>
        <extensions><gpxtpx:TrackPointExtension><gpxtpx:hr>120</gpxtpx:hr></gpxtpx:TrackPointExtension></extensions>
      </trkpt>
      <trkpt lat="59.3008716285" lon="18.1184059836">
        <ele>21</ele>
        <time>2011-05-12T18:14:25Z</time>
        <extensions><gpxtpx:TrackPointExtension><gpxtpx:hr>119</gpxtpx:hr></gpxtpx:TrackPointExtension></extensions>
      </trkpt>
      <trkpt lat="59.3008795913" lon="18.1184353203">
        <ele>19.8</ele>
        <time>2011-05-12T18:14:32Z</time>
        <extensions><gpxtpx:TrackPointExtension><gpxtpx:hr>113</gpxtpx:hr></gpxtpx:TrackPointExtension></extensions>
      </trkpt>
      <trkpt lat="59.3008867997" lon="18.1184503239">
        <ele>17.6</ele>
        <time>2011-05-12T18:14:45Z</time>
        <extensions><gpxtpx:TrackPointExtension><gpxtpx:hr>110</gpxtpx:hr></gpxtpx:TrackPointExtension></extensions>
      </trkpt>
      <trkpt lat="59.3008714608" lon="18.1185026269">
        <ele>14.6</ele>
        <time>2011-05-12T18:16:07Z</time>
        <extensions><gpxtpx:TrackPointExtension><gpxtpx:hr>86</gpxtpx:hr></gpxtpx:TrackPointExtension></extensions>
      </trkpt>
      <trkpt lat="59.3008672699" lon="18.1185053929">
        <ele>14.6</ele>
        <time>2011-05-12T18:16:08Z</time>
        <extensions><gpxtpx:TrackPointExtension><gpxtpx:hr>85</gpxtpx:hr></gpxtpx:TrackPointExtension></extensions>
      </trkpt>
      <trkpt lat="59.3008640009" lon="18.1185154512">
        <ele>14.6</ele>
        <time>2011-05-12T18:16:09Z</time>
        <extensions><gpxtpx:TrackPointExtension><gpxtpx:hr>86</gpxtpx:hr></gpxtpx:TrackPointExtension></extensions>
      </trkpt>
      <trkpt lat="59.3008541103" lon="18.118534562">
        <ele>14.6</ele>
        <time>2011-05-12T18:16:10Z</time>
        <extensions><gpxtpx:TrackPointExtension><gpxtpx:hr>87</gpxtpx:hr></gpxtpx:TrackPointExtension></extensions>
      </trkpt>
      <trkpt lat="59.3007930062" lon="18.1185652397">
        <ele>14.6</ele>
        <time>2011-05-12T18:16:14Z</time>
        <extensions><gpxtpx:TrackPointExtension><gpxtpx:hr>95</gpxtpx:hr></gpxtpx:TrackPointExtension></extensions>
      </trkpt>
      <trkpt lat="59.3007758233" lon="18.1185610488">
        <ele>14.6</ele>
        <time>2011-05-12T18:16:15Z</time>
        <extensions><gpxtpx:TrackPointExtension><gpxtpx:hr>97</gpxtpx:hr></gpxtpx:TrackPointExtension></extensions>
      </trkpt>
      <trkpt lat="59.3007593948" lon="18.1185602944">
        <ele>14.6</ele>
        <time>2011-05-12T18:16:16Z</time>
        <extensions><gpxtpx:TrackPointExtension><gpxtpx:hr>98</gpxtpx:hr></gpxtpx:TrackPointExtension></extensions>
      </trkpt>
      <trkpt lat="59.3006855503" lon="18.1185946602">
        <ele>14.6</ele>
        <time>2011-05-12T18:16:20Z</time>
        <extensions><gpxtpx:TrackPointExtension><gpxtpx:hr>106</gpxtpx:hr></gpxtpx:TrackPointExtension></extensions>
      </trkpt>
      <trkpt lat="59.3006034915" lon="18.1186300318">
        <ele>14.6</ele>
        <time>2011-05-12T18:16:24Z</time>
        <extensions><gpxtpx:TrackPointExtension><gpxtpx:hr>105</gpxtpx:hr></gpxtpx:TrackPointExtension></extensions>
      </trkpt>
      <trkpt lat="59.3005752445" lon="18.1186731148">
        <ele>14.6</ele>
        <time>2011-05-12T18:16:26Z</time>
        <extensions><gpxtpx:TrackPointExtension><gpxtpx:hr>105</gpxtpx:hr></gpxtpx:TrackPointExtension></extensions>
      </trkpt>
      <trkpt lat="59.3005542059" lon="18.1187187123">
        <ele>14.6</ele>
        <time>2011-05-12T18:16:28Z</time>
        <extensions><gpxtpx:TrackPointExtension><gpxtpx:hr>105</gpxtpx:hr></gpxtpx:TrackPointExtension></extensions>
      </trkpt>
      <trkpt lat="59.3004871507" lon="18.1188121705">
        <ele>14.6</ele>
        <time>2011-05-12T18:16:32Z</time>
        <extensions><gpxtpx:TrackPointExtension><gpxtpx:hr>106</gpxtpx:hr></gpxtpx:TrackPointExtension></extensions>
      </trkpt>
      <trkpt lat="59.3004166589" lon="18.1189373123">
        <ele>14.6</ele>
        <time>2011-05-12T18:16:36Z</time>
        <extensions><gpxtpx:TrackPointExtension><gpxtpx:hr>109</gpxtpx:hr></gpxtpx:TrackPointExtension></extensions>
      </trkpt>
      <trkpt lat="59.3003367794" lon="18.1191082192">
        <ele>14.6</ele>
        <time>2011-05-12T18:16:41Z</time>
        <extensions><gpxtpx:TrackPointExtension><gpxtpx:hr>111</gpxtpx:hr></gpxtpx:TrackPointExtension></extensions>
      </trkpt>
      <trkpt lat="59.3002571514" lon="18.1193691477">
        <ele>14.6</ele>
        <time>2011-05-12T18:16:46Z</time>
        <extensions><gpxtpx:TrackPointExtension><gpxtpx:hr>111</gpxtpx:hr></gpxtpx:TrackPointExtension></extensions>
      </trkpt>
      <trkpt lat="59.3002356099" lon="18.1195642784">
        <ele>14.6</ele>
        <time>2011-05-12T18:16:50Z</time>
        <extensions><gpxtpx:TrackPointExtension><gpxtpx:hr>112</gpxtpx:hr></gpxtpx:TrackPointExtension></extensions>
      </trkpt>
      <trkpt lat="59.3001838936" lon="18.1198735705">
        <ele>14.6</ele>
        <time>2011-05-12T18:16:56Z</time>
        <extensions><gpxtpx:TrackPointExtension><gpxtpx:hr>111</gpxtpx:hr></gpxtpx:TrackPointExtension></extensions>
      </trkpt>
      <trkpt lat="59.3001466779" lon="18.1201413722">
        <ele>14.6</ele>
        <time>2011-05-12T18:17:01Z</time>
        <extensions><gpxtpx:TrackPointExtension><gpxtpx:hr>110</gpxtpx:hr></gpxtpx:TrackPointExtension></extensions>
      </trkpt>
      <trkpt lat="59.300122119" lon="18.1204115208">
        <ele>14.6</ele>
        <time>2011-05-12T18:17:06Z</time>
        <extensions><gpxtpx:TrackPointExtension><gpxtpx:hr>109</gpxtpx:hr></gpxtpx:TrackPointExtension></extensions>
      </trkpt>
      <trkpt lat="59.3001009128" lon="18.1206511593">
        <ele>14.6</ele>
        <time>2011-05-12T18:17:11Z</time>
        <extensions><gpxtpx:TrackPointExtension><gpxtpx:hr>111</gpxtpx:hr></gpxtpx:TrackPointExtension></extensions>
      </trkpt>
      <trkpt lat="59.3000888428" lon="18.1208507324">
        <ele>14.6</ele>
        <time>2011-05-12T18:17:15Z</time>
        <extensions><gpxtpx:TrackPointExtension><gpxtpx:hr>112</gpxtpx:hr></gpxtpx:TrackPointExtension></extensions>
      </trkpt>
      <trkpt lat="59.3000901001" lon="18.120898593">
        <ele>14.6</ele>
        <time>2011-05-12T18:17:16Z</time>
        <extensions><gpxtpx:TrackPointExtension><gpxtpx:hr>112</gpxtpx:hr></gpxtpx:TrackPointExtension></extensions>
      </trkpt>
      <trkpt lat="59.3001061933" lon="18.1210376488">
        <ele>14.6</ele>
        <time>2011-05-12T18:17:19Z</time>
        <extensions><gpxtpx:TrackPointExtension><gpxtpx:hr>111</gpxtpx:hr></gpxtpx:TrackPointExtension></extensions>
      </trkpt>
      <trkpt lat="59.3001326802" lon="18.1212943025">
        <ele>15.4</ele>
        <time>2011-05-12T18:17:25Z</time>
        <extensions><gpxtpx:TrackPointExtension><gpxtpx:hr>112</gpxtpx:hr></gpxtpx:TrackPointExtension></extensions>
      </trkpt>
      <trkpt lat="59.3001166707" lon="18.1214814704">
        <ele>15.8</ele>
        <time>2011-05-12T18:17:29Z</time>
        <extensions><gpxtpx:TrackPointExtension><gpxtpx:hr>112</gpxtpx:hr></gpxtpx:TrackPointExtension></extensions>
      </trkpt>
      <trkpt lat="59.3001085403" lon="18.1215253915">
        <ele>15.8</ele>
        <time>2011-05-12T18:17:30Z</time>
        <extensions><gpxtpx:TrackPointExtension><gpxtpx:hr>112</gpxtpx:hr></gpxtpx:TrackPointExtension></extensions>
      </trkpt>
      <trkpt lat="59.3000750127" lon="18.1217329274">
        <ele>16</ele>
        <time>2011-05-12T18:17:34Z</time>
        <extensions><gpxtpx:TrackPointExtension><gpxtpx:hr>113</gpxtpx:hr></gpxtpx:TrackPointExtension></extensions>
      </trkpt>
      <trkpt lat="59.3000356178" lon="18.1219848873">
        <ele>16.2</ele>
        <time>2011-05-12T18:17:39Z</time>
        <extensions><gpxtpx:TrackPointExtension><gpxtpx:hr>114</gpxtpx:hr></gpxtpx:TrackPointExtension></extensions>
      </trkpt>
      <trkpt lat="59.3000288284" lon="18.122032245">
        <ele>16.2</ele>
        <time>2011-05-12T18:17:40Z</time>
        <extensions><gpxtpx:TrackPointExtension><gpxtpx:hr>115</gpxtpx:hr></gpxtpx:TrackPointExtension></extensions>
      </trkpt>
      <trkpt lat="59.3000015872" lon="18.1223116137">
        <ele>16.4</ele>
        <time>2011-05-12T18:17:45Z</time>
        <extensions><gpxtpx:TrackPointExtension><gpxtpx:hr>118</gpxtpx:hr></gpxtpx:TrackPointExtension></extensions>
      </trkpt>
      <trkpt lat="59.2999912775" lon="18.1225447982">
        <ele>16.4</ele>
        <time>2011-05-12T18:17:50Z</time>
        <extensions><gpxtpx:TrackPointExtension><gpxtpx:hr>123</gpxtpx:hr></gpxtpx:TrackPointExtension></extensions>
      </trkpt>
      <trkpt lat="59.2999788723" lon="18.1228215685">
        <ele>17.4</ele>
        <time>2011-05-12T18:17:56Z</time>
        <extensions><gpxtpx:TrackPointExtension><gpxtpx:hr>123</gpxtpx:hr></gpxtpx:TrackPointExtension></extensions>
      </trkpt>
      <trkpt lat="59.2999612703" lon="18.123094567">
        <ele>17.8</ele>
        <time>2011-05-12T18:18:01Z</time>
        <extensions><gpxtpx:TrackPointExtension><gpxtpx:hr>122</gpxtpx:hr></gpxtpx:TrackPointExtension></extensions>
      </trkpt>
      <trkpt lat="59.2999509606" lon="18.1233735167">
        <ele>18.2</ele>
        <time>2011-05-12T18:18:06Z</time>
        <extensions><gpxtpx:TrackPointExtension><gpxtpx:hr>123</gpxtpx:hr></gpxtpx:TrackPointExtension></extensions>
      </trkpt>
      <trkpt lat="59.2999384715" lon="18.1235981516">
        <ele>18.2</ele>
        <time>2011-05-12T18:18:10Z</time>
        <extensions><gpxtpx:TrackPointExtension><gpxtpx:hr>122</gpxtpx:hr></gpxtpx:TrackPointExtension></extensions>
      </trkpt>
      <trkpt lat="59.2998757749" lon="18.1239283984">
        <ele>18.4</ele>
        <time>2011-05-12T18:18:16Z</time>
        <extensions><gpxtpx:TrackPointExtension><gpxtpx:hr>121</gpxtpx:hr></gpxtpx:TrackPointExtension></extensions>
      </trkpt>
      <trkpt lat="59.2998097255" lon="18.1241361857">
        <ele>18.4</ele>
        <time>2011-05-12T18:18:21Z</time>
        <extensions><gpxtpx:TrackPointExtension><gpxtpx:hr>116</gpxtpx:hr></gpxtpx:TrackPointExtension></extensions>
      </trkpt>
      <trkpt lat="59.2997843284" lon="18.1241806936">
        <ele>18.4</ele>
        <time>2011-05-12T18:18:23Z</time>
        <extensions><gpxtpx:TrackPointExtension><gpxtpx:hr>113</gpxtpx:hr></gpxtpx:TrackPointExtension></extensions>
      </trkpt>
      <trkpt lat="59.2997512199" lon="18.1243232697">
        <ele>18.6</ele>
        <time>2011-05-12T18:18:27Z</time>
        <extensions><gpxtpx:TrackPointExtension><gpxtpx:hr>112</gpxtpx:hr></gpxtpx:TrackPointExtension></extensions>
      </trkpt>
      <trkpt lat="59.2996945582" lon="18.124521837">
        <ele>18.6</ele>
        <time>2011-05-12T18:18:32Z</time>
        <extensions><gpxtpx:TrackPointExtension><gpxtpx:hr>116</gpxtpx:hr></gpxtpx:TrackPointExtension></extensions>
      </trkpt>
      <trkpt lat="59.2996549957" lon="18.1247463042">
        <ele>18.6</ele>
        <time>2011-05-12T18:18:38Z</time>
        <extensions><gpxtpx:TrackPointExtension><gpxtpx:hr>119</gpxtpx:hr></gpxtpx:TrackPointExtension></extensions>
      </trkpt>
      <trkpt lat="59.2995666504" lon="18.1248801632">
        <ele>18.6</ele>
        <time>2011-05-12T18:18:43Z</time>
        <extensions><gpxtpx:TrackPointExtension><gpxtpx:hr>122</gpxtpx:hr></gpxtpx:TrackPointExtension></extensions>
      </trkpt>
      <trkpt lat="59.2995024451" lon="18.1249410158">
        <ele>18.6</ele>
        <time>2011-05-12T18:18:46Z</time>
        <extensions><gpxtpx:TrackPointExtension><gpxtpx:hr>124</gpxtpx:hr></gpxtpx:TrackPointExtension></extensions>
      </trkpt>
      <trkpt lat="59.299379315" lon="18.1251019482">
        <ele>18.6</ele>
        <time>2011-05-12T18:18:52Z</time>
        <extensions><gpxtpx:TrackPointExtension><gpxtpx:hr>125</gpxtpx:hr></gpxtpx:TrackPointExtension></extensions>
      </trkpt>
      <trkpt lat="59.2993069792" lon="18.1252268386">
        <ele>19</ele>
        <time>2011-05-12T18:18:58Z</time>
        <extensions><gpxtpx:TrackPointExtension><gpxtpx:hr>124</gpxtpx:hr></gpxtpx:TrackPointExtension></extensions>
      </trkpt>
      <trkpt lat="59.2992682548" lon="18.1253038682">
        <ele>19.8</ele>
        <time>2011-05-12T18:19:04Z</time>
        <extensions><gpxtpx:TrackPointExtension><gpxtpx:hr>126</gpxtpx:hr></gpxtpx:TrackPointExtension></extensions>
      </trkpt>
      <trkpt lat="59.2992146106" lon="18.1253811493">
        <ele>20</ele>
        <time>2011-05-12T18:19:09Z</time>
        <extensions><gpxtpx:TrackPointExtension><gpxtpx:hr>128</gpxtpx:hr></gpxtpx:TrackPointExtension></extensions>
      </trkpt>
      <trkpt lat="59.2991419396" lon="18.1255000885">
        <ele>21.4</ele>
        <time>2011-05-12T18:19:16Z</time>
        <extensions><gpxtpx:TrackPointExtension><gpxtpx:hr>131</gpxtpx:hr></gpxtpx:TrackPointExtension></extensions>
      </trkpt>
      <trkpt lat="59.2991329709" lon="18.1255185287">
        <ele>21.4</ele>
        <time>2011-05-12T18:19:17Z</time>
        <extensions><gpxtpx:TrackPointExtension><gpxtpx:hr>132</gpxtpx:hr></gpxtpx:TrackPointExtension></extensions>
      </trkpt>
      <trkpt lat="59.2991110104" lon="18.1255613602">
        <ele>21.8</ele>
        <time>2011-05-12T18:19:20Z</time>
        <extensions><gpxtpx:TrackPointExtension><gpxtpx:hr>131</gpxtpx:hr></gpxtpx:TrackPointExtension></extensions>
      </trkpt>
      <trkpt lat="59.2990909776" lon="18.1256604342">
        <ele>22.6</ele>
        <time>2011-05-12T18:19:26Z</time>
        <extensions><gpxtpx:TrackPointExtension><gpxtpx:hr>131</gpxtpx:hr></gpxtpx:TrackPointExtension></extensions>
      </trkpt>
      <trkpt lat="59.2991054783" lon="18.1257922815">
        <ele>23.4</ele>
        <time>2011-05-12T18:19:31Z</time>
        <extensions><gpxtpx:TrackPointExtension><gpxtpx:hr>129</gpxtpx:hr></gpxtpx:TrackPointExtension></extensions>
      </trkpt>
      <trkpt lat="59.2991027961" lon="18.1258164214">
        <ele>23.6</ele>
        <time>2011-05-12T18:19:32Z</time>
        <extensions><gpxtpx:TrackPointExtension><gpxtpx:hr>129</gpxtpx:hr></gpxtpx:TrackPointExtension></extensions>
      </trkpt>
      <trkpt lat="59.2991076576" lon="18.125899486">
        <ele>24</ele>
        <time>2011-05-12T18:19:36Z</time>
        <extensions><gpxtpx:TrackPointExtension><gpxtpx:hr>127</gpxtpx:hr></gpxtpx:TrackPointExtension></extensions>
      </trkpt>
      <trkpt lat="59.2991027123" lon="18.1259387971">
        <ele>24.2</ele>
        <time>2011-05-12T18:19:38Z</time>
        <extensions><gpxtpx:TrackPointExtension><gpxtpx:hr>127</gpxtpx:hr></gpxtpx:TrackPointExtension></extensions>
      </trkpt>
      <trkpt lat="59.2991052269" lon="18.1260180061">
        <ele>24.4</ele>
        <time>2011-05-12T18:19:42Z</time>
        <extensions><gpxtpx:TrackPointExtension><gpxtpx:hr>125</gpxtpx:hr></gpxtpx:TrackPointExtension></extensions>
      </trkpt>
      <trkpt lat="59.2991072385" lon="18.1260411401">
        <ele>24.4</ele>
        <time>2011-05-12T18:19:43Z</time>
        <extensions><gpxtpx:TrackPointExtension><gpxtpx:hr>125</gpxtpx:hr></gpxtpx:TrackPointExtension></extensions>
      </trkpt>
      <trkpt lat="59.2991127706" lon="18.1260631845">
        <ele>24.4</ele>
        <time>2011-05-12T18:19:44Z</time>
        <extensions><gpxtpx:TrackPointExtension><gpxtpx:hr>124</gpxtpx:hr></gpxtpx:TrackPointExtension></extensions>
      </trkpt>
      <trkpt lat="59.2991302887" lon="18.1261817884">
        <ele>24.6</ele>
        <time>2011-05-12T18:19:49Z</time>
        <extensions><gpxtpx:TrackPointExtension><gpxtpx:hr>122</gpxtpx:hr></gpxtpx:TrackPointExtension></extensions>
      </trkpt>
      <trkpt lat="59.29916214" lon="18.1263372727">
        <ele>24.6</ele>
        <time>2011-05-12T18:19:54Z</time>
        <extensions><gpxtpx:TrackPointExtension><gpxtpx:hr>122</gpxtpx:hr></gpxtpx:TrackPointExtension></extensions>
      </trkpt>
      <trkpt lat="59.2991899679" lon="18.1265193275">
        <ele>25.4</ele>
        <time>2011-05-12T18:19:59Z</time>
        <extensions><gpxtpx:TrackPointExtension><gpxtpx:hr>122</gpxtpx:hr></gpxtpx:TrackPointExtension></extensions>
      </trkpt>
      <trkpt lat="59.2991926501" lon="18.1265608179">
        <ele>25.6</ele>
        <time>2011-05-12T18:20:00Z</time>
        <extensions><gpxtpx:TrackPointExtension><gpxtpx:hr>120</gpxtpx:hr></gpxtpx:TrackPointExtension></extensions>
      </trkpt>
      <trkpt lat="59.2992354816" lon="18.1268513346">
        <ele>26.6</ele>
        <time>2011-05-12T18:20:07Z</time>
        <extensions><gpxtpx:TrackPointExtension><gpxtpx:hr>115</gpxtpx:hr></gpxtpx:TrackPointExtension></extensions>
      </trkpt>
      <trkpt lat="59.2992442826" lon="18.1268939147">
        <ele>26.8</ele>
        <time>2011-05-12T18:20:08Z</time>
        <extensions><gpxtpx:TrackPointExtension><gpxtpx:hr>116</gpxtpx:hr></gpxtpx:TrackPointExtension></extensions>
      </trkpt>
      <trkpt lat="59.299290383" lon="18.1270385862">
        <ele>27.8</ele>
        <time>2011-05-12T18:20:13Z</time>
        <extensions><gpxtpx:TrackPointExtension><gpxtpx:hr>118</gpxtpx:hr></gpxtpx:TrackPointExtension></extensions>
      </trkpt>
      <trkpt lat="59.2993825001" lon="18.127133637">
        <ele>29</ele>
        <time>2011-05-12T18:20:18Z</time>
        <extensions><gpxtpx:TrackPointExtension><gpxtpx:hr>119</gpxtpx:hr></gpxtpx:TrackPointExtension></extensions>
      </trkpt>
      <trkpt lat="59.2994275947" lon="18.1271632251">
        <ele>29.4</ele>
        <time>2011-05-12T18:20:20Z</time>
        <extensions><gpxtpx:TrackPointExtension><gpxtpx:hr>118</gpxtpx:hr></gpxtpx:TrackPointExtension></extensions>
      </trkpt>
      <trkpt lat="59.2995131739" lon="18.127296162">
        <ele>30.4</ele>
        <time>2011-05-12T18:20:25Z</time>
        <extensions><gpxtpx:TrackPointExtension><gpxtpx:hr>117</gpxtpx:hr></gpxtpx:TrackPointExtension></extensions>
      </trkpt>
      <trkpt lat="59.2996070512" lon="18.1274216391">
        <ele>31.6</ele>
        <time>2011-05-12T18:20:30Z</time>
        <extensions><gpxtpx:TrackPointExtension><gpxtpx:hr>118</gpxtpx:hr></gpxtpx:TrackPointExtension></extensions>
      </trkpt>
      <trkpt lat="59.2996948935" lon="18.127548541">
        <ele>32.2</ele>
        <time>2011-05-12T18:20:35Z</time>
        <extensions><gpxtpx:TrackPointExtension><gpxtpx:hr>115</gpxtpx:hr></gpxtpx:TrackPointExtension></extensions>
      </trkpt>
      <trkpt lat="59.2997108191" lon="18.1275813981">
        <ele>32.2</ele>
        <time>2011-05-12T18:20:36Z</time>
        <extensions><gpxtpx:TrackPointExtension><gpxtpx:hr>115</gpxtpx:hr></gpxtpx:TrackPointExtension></extensions>
      </trkpt>
      <trkpt lat="59.2997927103" lon="18.127677287">
        <ele>37.2</ele>
        <time>2011-05-12T18:24:18Z</time>
        <extensions><gpxtpx:TrackPointExtension><gpxtpx:hr>86</gpxtpx:hr></gpxtpx:TrackPointExtension></extensions>
      </trkpt>
      <trkpt lat="59.2998041935" lon="18.1276817294">
        <ele>37.2</ele>
        <time>2011-05-12T18:24:19Z</time>
        <extensions><gpxtpx:TrackPointExtension><gpxtpx:hr>87</gpxtpx:hr></gpxtpx:TrackPointExtension></extensions>
      </trkpt>
      <trkpt lat="59.2998158443" lon="18.1276922068">
        <ele>37.2</ele>
        <time>2011-05-12T18:24:20Z</time>
        <extensions><gpxtpx:TrackPointExtension><gpxtpx:hr>88</gpxtpx:hr></gpxtpx:TrackPointExtension></extensions>
      </trkpt>
      <trkpt lat="59.299834536" lon="18.1277093897">
        <ele>37.2</ele>
        <time>2011-05-12T18:24:22Z</time>
        <extensions><gpxtpx:TrackPointExtension><gpxtpx:hr>90</gpxtpx:hr></gpxtpx:TrackPointExtension></extensions>
      </trkpt>
      <trkpt lat="59.2998509645" lon="18.1277336134">
        <ele>37.2</ele>
        <time>2011-05-12T18:24:24Z</time>
        <extensions><gpxtpx:TrackPointExtension><gpxtpx:hr>88</gpxtpx:hr></gpxtpx:TrackPointExtension></extensions>
      </trkpt>
      <trkpt lat="59.2998598493" lon="18.127804189">
        <ele>36.8</ele>
        <time>2011-05-12T18:24:29Z</time>
        <extensions><gpxtpx:TrackPointExtension><gpxtpx:hr>86</gpxtpx:hr></gpxtpx:TrackPointExtension></extensions>
      </trkpt>
      <trkpt lat="59.2998806364" lon="18.1278725015">
        <ele>36</ele>
        <time>2011-05-12T18:24:35Z</time>
        <extensions><gpxtpx:TrackPointExtension><gpxtpx:hr>88</gpxtpx:hr></gpxtpx:TrackPointExtension></extensions>
      </trkpt>
      <trkpt lat="59.2998960591" lon="18.1278948811">
        <ele>35.8</ele>
        <time>2011-05-12T18:24:37Z</time>
        <extensions><gpxtpx:TrackPointExtension><gpxtpx:hr>87</gpxtpx:hr></gpxtpx:TrackPointExtension></extensions>
      </trkpt>
      <trkpt lat="59.2999592586" lon="18.1279721623">
        <ele>34.6</ele>
        <time>2011-05-12T18:24:44Z</time>
        <extensions><gpxtpx:TrackPointExtension><gpxtpx:hr>85</gpxtpx:hr></gpxtpx:TrackPointExtension></extensions>
      </trkpt>
      <trkpt lat="59.2999653774" lon="18.1279812147">
        <ele>34.4</ele>
        <time>2011-05-12T18:24:45Z</time>
        <extensions><gpxtpx:TrackPointExtension><gpxtpx:hr>85</gpxtpx:hr></gpxtpx:TrackPointExtension></extensions>
      </trkpt>
      <trkpt lat="59.3000046047" lon="18.1280710687">
        <ele>33.8</ele>
        <time>2011-05-12T18:24:50Z</time>
        <extensions><gpxtpx:TrackPointExtension><gpxtpx:hr>85</gpxtpx:hr></gpxtpx:TrackPointExtension></extensions>
      </trkpt>
      <trkpt lat="59.3000129866" lon="18.1281925224">
        <ele>33.6</ele>
        <time>2011-05-12T18:24:53Z</time>
        <extensions><gpxtpx:TrackPointExtension><gpxtpx:hr>88</gpxtpx:hr></gpxtpx:TrackPointExtension></extensions>
      </trkpt>
      <trkpt lat="59.3000397249" lon="18.1283898323">
        <ele>33.2</ele>
        <time>2011-05-12T18:24:58Z</time>
        <extensions><gpxtpx:TrackPointExtension><gpxtpx:hr>95</gpxtpx:hr></gpxtpx:TrackPointExtension></extensions>
      </trkpt>
      <trkpt lat="59.3000525492" lon="18.1284210968">
        <ele>32.8</ele>
        <time>2011-05-12T18:24:59Z</time>
        <extensions><gpxtpx:TrackPointExtension><gpxtpx:hr>96</gpxtpx:hr></gpxtpx:TrackPointExtension></extensions>
      </trkpt>
      <trkpt lat="59.300066044" lon="18.1284828714">
        <ele>32.6</ele>
        <time>2011-05-12T18:25:01Z</time>
        <extensions><gpxtpx:TrackPointExtension><gpxtpx:hr>96</gpxtpx:hr></gpxtpx:TrackPointExtension></extensions>
      </trkpt>
      <trkpt lat="59.3001051875" lon="18.1286468214">
        <ele>32</ele>
        <time>2011-05-12T18:25:05Z</time>
        <extensions><gpxtpx:TrackPointExtension><gpxtpx:hr>99</gpxtpx:hr></gpxtpx:TrackPointExtension></extensions>
      </trkpt>
      <trkpt lat="59.300116084" lon="18.1287835302">
        <ele>31.6</ele>
        <time>2011-05-12T18:25:09Z</time>
        <extensions><gpxtpx:TrackPointExtension><gpxtpx:hr>99</gpxtpx:hr></gpxtpx:TrackPointExtension></extensions>
      </trkpt>
      <trkpt lat="59.3001176766" lon="18.1288249368">
        <ele>31.6</ele>
        <time>2011-05-12T18:25:10Z</time>
        <extensions><gpxtpx:TrackPointExtension><gpxtpx:hr>99</gpxtpx:hr></gpxtpx:TrackPointExtension></extensions>
      </trkpt>
      <trkpt lat="59.3001618492" lon="18.1290297904">
        <ele>31.2</ele>
        <time>2011-05-12T18:25:16Z</time>
        <extensions><gpxtpx:TrackPointExtension><gpxtpx:hr>101</gpxtpx:hr></gpxtpx:TrackPointExtension></extensions>
      </trkpt>
      <trkpt lat="59.3001595861" lon="18.1290743821">
        <ele>31.2</ele>
        <time>2011-05-12T18:25:17Z</time>
        <extensions><gpxtpx:TrackPointExtension><gpxtpx:hr>101</gpxtpx:hr></gpxtpx:TrackPointExtension></extensions>
      </trkpt>
      <trkpt lat="59.3001510365" lon="18.1292262621">
        <ele>31</ele>
        <time>2011-05-12T18:25:21Z</time>
        <extensions><gpxtpx:TrackPointExtension><gpxtpx:hr>107</gpxtpx:hr></gpxtpx:TrackPointExtension></extensions>
      </trkpt>
      <trkpt lat="59.3001848156" lon="18.1293406751">
        <ele>31</ele>
        <time>2011-05-12T18:25:25Z</time>
        <extensions><gpxtpx:TrackPointExtension><gpxtpx:hr>112</gpxtpx:hr></gpxtpx:TrackPointExtension></extensions>
      </trkpt>
      <trkpt lat="59.3001815466" lon="18.1294115021">
        <ele>31</ele>
        <time>2011-05-12T18:25:27Z</time>
        <extensions><gpxtpx:TrackPointExtension><gpxtpx:hr>113</gpxtpx:hr></gpxtpx:TrackPointExtension></extensions>
      </trkpt>
      <trkpt lat="59.3001505336" lon="18.1297104845">
        <ele>31.8</ele>
        <time>2011-05-12T18:25:34Z</time>
        <extensions><gpxtpx:TrackPointExtension><gpxtpx:hr>115</gpxtpx:hr></gpxtpx:TrackPointExtension></extensions>
      </trkpt>
      <trkpt lat="59.3001321772" lon="18.1298321897">
        <ele>32.2</ele>
        <time>2011-05-12T18:25:37Z</time>
        <extensions><gpxtpx:TrackPointExtension><gpxtpx:hr>117</gpxtpx:hr></gpxtpx:TrackPointExtension></extensions>
      </trkpt>
      <trkpt lat="59.3001737515" lon="18.1300481913">
        <ele>32.4</ele>
        <time>2011-05-12T18:25:42Z</time>
        <extensions><gpxtpx:TrackPointExtension><gpxtpx:hr>116</gpxtpx:hr></gpxtpx:TrackPointExtension></extensions>
      </trkpt>
      <trkpt lat="59.3002000706" lon="18.1301976405">
        <ele>32.8</ele>
        <time>2011-05-12T18:25:46Z</time>
        <extensions><gpxtpx:TrackPointExtension><gpxtpx:hr>113</gpxtpx:hr></gpxtpx:TrackPointExtension></extensions>
      </trkpt>
      <trkpt lat="59.3002128111" lon="18.1302573197">
        <ele>33.2</ele>
        <time>2011-05-12T18:25:48Z</time>
        <extensions><gpxtpx:TrackPointExtension><gpxtpx:hr>113</gpxtpx:hr></gpxtpx:TrackPointExtension></extensions>
      </trkpt>
      <trkpt lat="59.3002285691" lon="18.1304030809">
        <ele>33.8</ele>
        <time>2011-05-12T18:25:52Z</time>
        <extensions><gpxtpx:TrackPointExtension><gpxtpx:hr>113</gpxtpx:hr></gpxtpx:TrackPointExtension></extensions>
      </trkpt>
      <trkpt lat="59.3002264736" lon="18.1304383687">
        <ele>34</ele>
        <time>2011-05-12T18:25:53Z</time>
        <extensions><gpxtpx:TrackPointExtension><gpxtpx:hr>113</gpxtpx:hr></gpxtpx:TrackPointExtension></extensions>
      </trkpt>
      <trkpt lat="59.3002358613" lon="18.1305193379">
        <ele>34.2</ele>
        <time>2011-05-12T18:25:55Z</time>
        <extensions><gpxtpx:TrackPointExtension><gpxtpx:hr>113</gpxtpx:hr></gpxtpx:TrackPointExtension></extensions>
      </trkpt>
      <trkpt lat="59.3002946185" lon="18.1305976248">
        <ele>34.6</ele>
        <time>2011-05-12T18:26:00Z</time>
        <extensions><gpxtpx:TrackPointExtension><gpxtpx:hr>117</gpxtpx:hr></gpxtpx:TrackPointExtension></extensions>
      </trkpt>
      <trkpt lat="59.3003777669" lon="18.1306805218">
        <ele>35.4</ele>
        <time>2011-05-12T18:26:05Z</time>
        <extensions><gpxtpx:TrackPointExtension><gpxtpx:hr>119</gpxtpx:hr></gpxtpx:TrackPointExtension></extensions>
      </trkpt>
      <trkpt lat="59.3003922676" lon="18.1308500038">
        <ele>36</ele>
        <time>2011-05-12T18:26:09Z</time>
        <extensions><gpxtpx:TrackPointExtension><gpxtpx:hr>119</gpxtpx:hr></gpxtpx:TrackPointExtension></extensions>
      </trkpt>
      <trkpt lat="59.3003946983" lon="18.1309043185">
        <ele>36.2</ele>
        <time>2011-05-12T18:26:11Z</time>
        <extensions><gpxtpx:TrackPointExtension><gpxtpx:hr>119</gpxtpx:hr></gpxtpx:TrackPointExtension></extensions>
      </trkpt>
      <trkpt lat="59.3004204308" lon="18.1309950945">
        <ele>36.4</ele>
        <time>2011-05-12T18:26:14Z</time>
        <extensions><gpxtpx:TrackPointExtension><gpxtpx:hr>120</gpxtpx:hr></gpxtpx:TrackPointExtension></extensions>
      </trkpt>
      <trkpt lat="59.3004387871" lon="18.1310568691">
        <ele>36.6</ele>
        <time>2011-05-12T18:26:16Z</time>
        <extensions><gpxtpx:TrackPointExtension><gpxtpx:hr>120</gpxtpx:hr></gpxtpx:TrackPointExtension></extensions>
      </trkpt>
      <trkpt lat="59.3004387033" lon="18.1313093319">
        <ele>36.8</ele>
        <time>2011-05-12T18:26:23Z</time>
        <extensions><gpxtpx:TrackPointExtension><gpxtpx:hr>120</gpxtpx:hr></gpxtpx:TrackPointExtension></extensions>
      </trkpt>
      <trkpt lat="59.3004347638" lon="18.1313514929">
        <ele>36.8</ele>
        <time>2011-05-12T18:26:24Z</time>
        <extensions><gpxtpx:TrackPointExtension><gpxtpx:hr>120</gpxtpx:hr></gpxtpx:TrackPointExtension></extensions>
      </trkpt>
      <trkpt lat="59.3004330874" lon="18.1313883732">
        <ele>36.8</ele>
        <time>2011-05-12T18:26:25Z</time>
        <extensions><gpxtpx:TrackPointExtension><gpxtpx:hr>121</gpxtpx:hr></gpxtpx:TrackPointExtension></extensions>
      </trkpt>
      <trkpt lat="59.3004409664" lon="18.1315985913">
        <ele>37</ele>
        <time>2011-05-12T18:26:31Z</time>
        <extensions><gpxtpx:TrackPointExtension><gpxtpx:hr>122</gpxtpx:hr></gpxtpx:TrackPointExtension></extensions>
      </trkpt>
      <trkpt lat="59.3004421399" lon="18.1316405846">
        <ele>37</ele>
        <time>2011-05-12T18:26:32Z</time>
        <extensions><gpxtpx:TrackPointExtension><gpxtpx:hr>122</gpxtpx:hr></gpxtpx:TrackPointExtension></extensions>
      </trkpt>
      <trkpt lat="59.300424957" lon="18.1318567538">
        <ele>37</ele>
        <time>2011-05-12T18:26:37Z</time>
        <extensions><gpxtpx:TrackPointExtension><gpxtpx:hr>121</gpxtpx:hr></gpxtpx:TrackPointExtension></extensions>
      </trkpt>
      <trkpt lat="59.3004186706" lon="18.1318964002">
        <ele>37</ele>
        <time>2011-05-12T18:26:38Z</time>
        <extensions><gpxtpx:TrackPointExtension><gpxtpx:hr>122</gpxtpx:hr></gpxtpx:TrackPointExtension></extensions>
      </trkpt>
      <trkpt lat="59.3004138929" lon="18.132053477">
        <ele>37.6</ele>
        <time>2011-05-12T18:26:43Z</time>
        <extensions><gpxtpx:TrackPointExtension><gpxtpx:hr>122</gpxtpx:hr></gpxtpx:TrackPointExtension></extensions>
      </trkpt>
      <trkpt lat="59.3004094505" lon="18.1320799638">
        <ele>37.8</ele>
        <time>2011-05-12T18:26:44Z</time>
        <extensions><gpxtpx:TrackPointExtension><gpxtpx:hr>123</gpxtpx:hr></gpxtpx:TrackPointExtension></extensions>
      </trkpt>
      <trkpt lat="59.3003815388" lon="18.1322211988">
        <ele>38.4</ele>
        <time>2011-05-12T18:26:50Z</time>
        <extensions><gpxtpx:TrackPointExtension><gpxtpx:hr>122</gpxtpx:hr></gpxtpx:TrackPointExtension></extensions>
      </trkpt>
      <trkpt lat="59.3003646073" lon="18.1323094602">
        <ele>38.6</ele>
        <time>2011-05-12T18:26:53Z</time>
        <extensions><gpxtpx:TrackPointExtension><gpxtpx:hr>122</gpxtpx:hr></gpxtpx:TrackPointExtension></extensions>
      </trkpt>
      <trkpt lat="59.3003523698" lon="18.1324781041">
        <ele>38.8</ele>
        <time>2011-05-12T18:26:57Z</time>
        <extensions><gpxtpx:TrackPointExtension><gpxtpx:hr>124</gpxtpx:hr></gpxtpx:TrackPointExtension></extensions>
      </trkpt>
      <trkpt lat="59.3003513639" lon="18.1324987235">
        <ele>38.8</ele>
        <time>2011-05-12T18:26:58Z</time>
        <extensions><gpxtpx:TrackPointExtension><gpxtpx:hr>124</gpxtpx:hr></gpxtpx:TrackPointExtension></extensions>
      </trkpt>
      <trkpt lat="59.3003540461" lon="18.1325173314">
        <ele>38.8</ele>
        <time>2011-05-12T18:26:59Z</time>
        <extensions><gpxtpx:TrackPointExtension><gpxtpx:hr>124</gpxtpx:hr></gpxtpx:TrackPointExtension></extensions>
      </trkpt>
      <trkpt lat="59.3003691336" lon="18.1326523638">
        <ele>39</ele>
        <time>2011-05-12T18:27:03Z</time>
        <extensions><gpxtpx:TrackPointExtension><gpxtpx:hr>123</gpxtpx:hr></gpxtpx:TrackPointExtension></extensions>
      </trkpt>
      <trkpt lat="59.3003796109" lon="18.132691172">
        <ele>39</ele>
        <time>2011-05-12T18:27:04Z</time>
        <extensions><gpxtpx:TrackPointExtension><gpxtpx:hr>123</gpxtpx:hr></gpxtpx:TrackPointExtension></extensions>
      </trkpt>
      <trkpt lat="59.3003841372" lon="18.1327687884">
        <ele>39</ele>
        <time>2011-05-12T18:27:06Z</time>
        <extensions><gpxtpx:TrackPointExtension><gpxtpx:hr>123</gpxtpx:hr></gpxtpx:TrackPointExtension></extensions>
      </trkpt>
      <trkpt lat="59.3004233644" lon="18.1329090175">
        <ele>39</ele>
        <time>2011-05-12T18:27:11Z</time>
        <extensions><gpxtpx:TrackPointExtension><gpxtpx:hr>123</gpxtpx:hr></gpxtpx:TrackPointExtension></extensions>
      </trkpt>
      <trkpt lat="59.3004260467" lon="18.1329536931">
        <ele>39</ele>
        <time>2011-05-12T18:27:12Z</time>
        <extensions><gpxtpx:TrackPointExtension><gpxtpx:hr>123</gpxtpx:hr></gpxtpx:TrackPointExtension></extensions>
      </trkpt>
      <trkpt lat="59.3004348476" lon="18.1330456425">
        <ele>39</ele>
        <time>2011-05-12T18:27:14Z</time>
        <extensions><gpxtpx:TrackPointExtension><gpxtpx:hr>123</gpxtpx:hr></gpxtpx:TrackPointExtension></extensions>
      </trkpt>
      <trkpt lat="59.3004116298" lon="18.1332405217">
        <ele>39</ele>
        <time>2011-05-12T18:27:20Z</time>
        <extensions><gpxtpx:TrackPointExtension><gpxtpx:hr>123</gpxtpx:hr></gpxtpx:TrackPointExtension></extensions>
      </trkpt>
      <trkpt lat="59.3003812035" lon="18.1333898872">
        <ele>39</ele>
        <time>2011-05-12T18:27:25Z</time>
        <extensions><gpxtpx:TrackPointExtension><gpxtpx:hr>125</gpxtpx:hr></gpxtpx:TrackPointExtension></extensions>
      </trkpt>
      <trkpt lat="59.3003750847" lon="18.1334250911">
        <ele>39.2</ele>
        <time>2011-05-12T18:27:26Z</time>
        <extensions><gpxtpx:TrackPointExtension><gpxtpx:hr>125</gpxtpx:hr></gpxtpx:TrackPointExtension></extensions>
      </trkpt>
      <trkpt lat="59.3003330914" lon="18.1335739537">
        <ele>40.2</ele>
        <time>2011-05-12T18:27:32Z</time>
        <extensions><gpxtpx:TrackPointExtension><gpxtpx:hr>123</gpxtpx:hr></gpxtpx:TrackPointExtension></extensions>
      </trkpt>
      <trkpt lat="59.3003388749" lon="18.1336094929">
        <ele>40.2</ele>
        <time>2011-05-12T18:27:33Z</time>
        <extensions><gpxtpx:TrackPointExtension><gpxtpx:hr>123</gpxtpx:hr></gpxtpx:TrackPointExtension></extensions>
      </trkpt>
      <trkpt lat="59.3003615898" lon="18.1337226486">
        <ele>40.6</ele>
        <time>2011-05-12T18:27:36Z</time>
        <extensions><gpxtpx:TrackPointExtension><gpxtpx:hr>122</gpxtpx:hr></gpxtpx:TrackPointExtension></extensions>
      </trkpt>
      <trkpt lat="59.3003514477" lon="18.1339218863">
        <ele>40.8</ele>
        <time>2011-05-12T18:27:41Z</time>
        <extensions><gpxtpx:TrackPointExtension><gpxtpx:hr>121</gpxtpx:hr></gpxtpx:TrackPointExtension></extensions>
      </trkpt>
      <trkpt lat="59.300315657" lon="18.1340944697">
        <ele>41</ele>
        <time>2011-05-12T18:27:47Z</time>
        <extensions><gpxtpx:TrackPointExtension><gpxtpx:hr>121</gpxtpx:hr></gpxtpx:TrackPointExtension></extensions>
      </trkpt>
      <trkpt lat="59.3002920201" lon="18.1341828987">
        <ele>41</ele>
        <time>2011-05-12T18:27:50Z</time>
        <extensions><gpxtpx:TrackPointExtension><gpxtpx:hr>121</gpxtpx:hr></gpxtpx:TrackPointExtension></extensions>
      </trkpt>
      <trkpt lat="59.3002180917" lon="18.1342231318">
        <ele>41.2</ele>
        <time>2011-05-12T18:27:56Z</time>
        <extensions><gpxtpx:TrackPointExtension><gpxtpx:hr>122</gpxtpx:hr></gpxtpx:TrackPointExtension></extensions>
      </trkpt>
      <trkpt lat="59.3002115538" lon="18.1342314299">
        <ele>41.4</ele>
        <time>2011-05-12T18:27:57Z</time>
        <extensions><gpxtpx:TrackPointExtension><gpxtpx:hr>123</gpxtpx:hr></gpxtpx:TrackPointExtension></extensions>
      </trkpt>
      <trkpt lat="59.3002052674" lon="18.1342464335">
        <ele>41.6</ele>
        <time>2011-05-12T18:27:58Z</time>
        <extensions><gpxtpx:TrackPointExtension><gpxtpx:hr>123</gpxtpx:hr></gpxtpx:TrackPointExtension></extensions>
      </trkpt>
      <trkpt lat="59.300186492" lon="18.1343114771">
        <ele>42.2</ele>
        <time>2011-05-12T18:28:02Z</time>
        <extensions><gpxtpx:TrackPointExtension><gpxtpx:hr>123</gpxtpx:hr></gpxtpx:TrackPointExtension></extensions>
      </trkpt>
      <trkpt lat="59.3001799541" lon="18.1344543885">
        <ele>42.8</ele>
        <time>2011-05-12T18:28:09Z</time>
        <extensions><gpxtpx:TrackPointExtension><gpxtpx:hr>121</gpxtpx:hr></gpxtpx:TrackPointExtension></extensions>
      </trkpt>
      <trkpt lat="59.3001835583" lon="18.134569891">
        <ele>42.8</ele>
        <time>2011-05-12T18:28:12Z</time>
        <extensions><gpxtpx:TrackPointExtension><gpxtpx:hr>121</gpxtpx:hr></gpxtpx:TrackPointExtension></extensions>
      </trkpt>
      <trkpt lat="59.3001973046" lon="18.1346385388">
        <ele>43</ele>
        <time>2011-05-12T18:28:14Z</time>
        <extensions><gpxtpx:TrackPointExtension><gpxtpx:hr>121</gpxtpx:hr></gpxtpx:TrackPointExtension></extensions>
      </trkpt>
      <trkpt lat="59.3001975561" lon="18.1347424744">
        <ele>43</ele>
        <time>2011-05-12T18:28:17Z</time>
        <extensions><gpxtpx:TrackPointExtension><gpxtpx:hr>120</gpxtpx:hr></gpxtpx:TrackPointExtension></extensions>
      </trkpt>
      <trkpt lat="59.3001791159" lon="18.1348538698">
        <ele>43</ele>
        <time>2011-05-12T18:28:20Z</time>
        <extensions><gpxtpx:TrackPointExtension><gpxtpx:hr>130</gpxtpx:hr></gpxtpx:TrackPointExtension></extensions>
      </trkpt>
      <trkpt lat="59.3001750087" lon="18.1348890738">
        <ele>43</ele>
        <time>2011-05-12T18:28:21Z</time>
        <extensions><gpxtpx:TrackPointExtension><gpxtpx:hr>130</gpxtpx:hr></gpxtpx:TrackPointExtension></extensions>
      </trkpt>
      <trkpt lat="59.3001706502" lon="18.1349191648">
        <ele>43</ele>
        <time>2011-05-12T18:28:22Z</time>
        <extensions><gpxtpx:TrackPointExtension><gpxtpx:hr>128</gpxtpx:hr></gpxtpx:TrackPointExtension></extensions>
      </trkpt>
      <trkpt lat="59.3001558142" lon="18.1349715517">
        <ele>43.2</ele>
        <time>2011-05-12T18:28:24Z</time>
        <extensions><gpxtpx:TrackPointExtension><gpxtpx:hr>125</gpxtpx:hr></gpxtpx:TrackPointExtension></extensions>
      </trkpt>
      <trkpt lat="59.3001683032" lon="18.1350888145">
        <ele>43.4</ele>
        <time>2011-05-12T18:28:28Z</time>
        <extensions><gpxtpx:TrackPointExtension><gpxtpx:hr>124</gpxtpx:hr></gpxtpx:TrackPointExtension></extensions>
      </trkpt>
      <trkpt lat="59.300169812" lon="18.1352920755">
        <ele>44.2</ele>
        <time>2011-05-12T18:28:34Z</time>
        <extensions><gpxtpx:TrackPointExtension><gpxtpx:hr>121</gpxtpx:hr></gpxtpx:TrackPointExtension></extensions>
      </trkpt>
      <trkpt lat="59.3001553113" lon="18.1353582087">
        <ele>44.4</ele>
        <time>2011-05-12T18:28:36Z</time>
        <extensions><gpxtpx:TrackPointExtension><gpxtpx:hr>121</gpxtpx:hr></gpxtpx:TrackPointExtension></extensions>
      </trkpt>
      <trkpt lat="59.3001478514" lon="18.1354628148">
        <ele>44.8</ele>
        <time>2011-05-12T18:28:40Z</time>
        <extensions><gpxtpx:TrackPointExtension><gpxtpx:hr>119</gpxtpx:hr></gpxtpx:TrackPointExtension></extensions>
      </trkpt>
      <trkpt lat="59.3001558142" lon="18.1355971767">
        <ele>45</ele>
        <time>2011-05-12T18:28:45Z</time>
        <extensions><gpxtpx:TrackPointExtension><gpxtpx:hr>118</gpxtpx:hr></gpxtpx:TrackPointExtension></extensions>
      </trkpt>
      <trkpt lat="59.3001387151" lon="18.1357037945">
        <ele>45</ele>
        <time>2011-05-12T18:28:49Z</time>
        <extensions><gpxtpx:TrackPointExtension><gpxtpx:hr>114</gpxtpx:hr></gpxtpx:TrackPointExtension></extensions>
      </trkpt>
      <trkpt lat="59.3001329316" lon="18.1357320415">
        <ele>45.2</ele>
        <time>2011-05-12T18:28:50Z</time>
        <extensions><gpxtpx:TrackPointExtension><gpxtpx:hr>114</gpxtpx:hr></gpxtpx:TrackPointExtension></extensions>
      </trkpt>
      <trkpt lat="59.300111893" lon="18.1358047125">
        <ele>45.2</ele>
        <time>2011-05-12T18:28:53Z</time>
        <extensions><gpxtpx:TrackPointExtension><gpxtpx:hr>114</gpxtpx:hr></gpxtpx:TrackPointExtension></extensions>
      </trkpt>
      <trkpt lat="59.3000781978" lon="18.1359612026">
        <ele>46.2</ele>
        <time>2011-05-12T18:29:00Z</time>
        <extensions><gpxtpx:TrackPointExtension><gpxtpx:hr>116</gpxtpx:hr></gpxtpx:TrackPointExtension></extensions>
      </trkpt>
      <trkpt lat="59.3000731687" lon="18.1360803932">
        <ele>46.8</ele>
        <time>2011-05-12T18:29:05Z</time>
        <extensions><gpxtpx:TrackPointExtension><gpxtpx:hr>114</gpxtpx:hr></gpxtpx:TrackPointExtension></extensions>
      </trkpt>
      <trkpt lat="59.3000742583" lon="18.1361005936">
        <ele>46.8</ele>
        <time>2011-05-12T18:29:06Z</time>
        <extensions><gpxtpx:TrackPointExtension><gpxtpx:hr>113</gpxtpx:hr></gpxtpx:TrackPointExtension></extensions>
      </trkpt>
      <trkpt lat="59.3000795389" lon="18.1361275833">
        <ele>46.8</ele>
        <time>2011-05-12T18:29:08Z</time>
        <extensions><gpxtpx:TrackPointExtension><gpxtpx:hr>112</gpxtpx:hr></gpxtpx:TrackPointExtension></extensions>
      </trkpt>
      <trkpt lat="59.3000973924" lon="18.1362304292">
        <ele>47</ele>
        <time>2011-05-12T18:29:12Z</time>
        <extensions><gpxtpx:TrackPointExtension><gpxtpx:hr>112</gpxtpx:hr></gpxtpx:TrackPointExtension></extensions>
      </trkpt>
      <trkpt lat="59.3001027568" lon="18.136322714">
        <ele>47.2</ele>
        <time>2011-05-12T18:29:17Z</time>
        <extensions><gpxtpx:TrackPointExtension><gpxtpx:hr>112</gpxtpx:hr></gpxtpx:TrackPointExtension></extensions>
      </trkpt>
      <trkpt lat="59.3000958836" lon="18.1364170942">
        <ele>48</ele>
        <time>2011-05-12T18:29:21Z</time>
        <extensions><gpxtpx:TrackPointExtension><gpxtpx:hr>110</gpxtpx:hr></gpxtpx:TrackPointExtension></extensions>
      </trkpt>
      <trkpt lat="59.3000962189" lon="18.1364478557">
        <ele>48.2</ele>
        <time>2011-05-12T18:29:23Z</time>
        <extensions><gpxtpx:TrackPointExtension><gpxtpx:hr>110</gpxtpx:hr></gpxtpx:TrackPointExtension></extensions>
      </trkpt>
      <trkpt lat="59.3000936205" lon="18.1364679723">
        <ele>48.4</ele>
        <time>2011-05-12T18:29:24Z</time>
        <extensions><gpxtpx:TrackPointExtension><gpxtpx:hr>109</gpxtpx:hr></gpxtpx:TrackPointExtension></extensions>
      </trkpt>
      <trkpt lat="59.3000928661" lon="18.1365077025">
        <ele>48.6</ele>
        <time>2011-05-12T18:29:26Z</time>
        <extensions><gpxtpx:TrackPointExtension><gpxtpx:hr>110</gpxtpx:hr></gpxtpx:TrackPointExtension></extensions>
      </trkpt>
      <trkpt lat="59.3000782816" lon="18.1366222831">
        <ele>48.8</ele>
        <time>2011-05-12T18:29:31Z</time>
        <extensions><gpxtpx:TrackPointExtension><gpxtpx:hr>111</gpxtpx:hr></gpxtpx:TrackPointExtension></extensions>
      </trkpt>
      <trkpt lat="59.3000750965" lon="18.1366544696">
        <ele>49</ele>
        <time>2011-05-12T18:29:32Z</time>
        <extensions><gpxtpx:TrackPointExtension><gpxtpx:hr>111</gpxtpx:hr></gpxtpx:TrackPointExtension></extensions>
      </trkpt>
      <trkpt lat="59.3000621046" lon="18.1368016557">
        <ele>49.2</ele>
        <time>2011-05-12T18:29:39Z</time>
        <extensions><gpxtpx:TrackPointExtension><gpxtpx:hr>109</gpxtpx:hr></gpxtpx:TrackPointExtension></extensions>
      </trkpt>
      <trkpt lat="59.3000557343" lon="18.1368199283">
        <ele>49.2</ele>
        <time>2011-05-12T18:29:40Z</time>
        <extensions><gpxtpx:TrackPointExtension><gpxtpx:hr>108</gpxtpx:hr></gpxtpx:TrackPointExtension></extensions>
      </trkpt>
      <trkpt lat="59.3000571592" lon="18.1369064295">
        <ele>49.2</ele>
        <time>2011-05-12T18:29:45Z</time>
        <extensions><gpxtpx:TrackPointExtension><gpxtpx:hr>108</gpxtpx:hr></gpxtpx:TrackPointExtension></extensions>
      </trkpt>
      <trkpt lat="59.3000593385" lon="18.1369351794">
        <ele>49.2</ele>
        <time>2011-05-12T18:29:46Z</time>
        <extensions><gpxtpx:TrackPointExtension><gpxtpx:hr>109</gpxtpx:hr></gpxtpx:TrackPointExtension></extensions>
      </trkpt>
      <trkpt lat="59.3000552314" lon="18.1369651866">
        <ele>49.2</ele>
        <time>2011-05-12T18:29:47Z</time>
        <extensions><gpxtpx:TrackPointExtension><gpxtpx:hr>109</gpxtpx:hr></gpxtpx:TrackPointExtension></extensions>
      </trkpt>
      <trkpt lat="59.3000185187" lon="18.1369801902">
        <ele>49.2</ele>
        <time>2011-05-12T18:29:50Z</time>
        <extensions><gpxtpx:TrackPointExtension><gpxtpx:hr>110</gpxtpx:hr></gpxtpx:TrackPointExtension></extensions>
      </trkpt>
      <trkpt lat="59.3000038503" lon="18.1369827048">
        <ele>49.2</ele>
        <time>2011-05-12T18:29:51Z</time>
        <extensions><gpxtpx:TrackPointExtension><gpxtpx:hr>111</gpxtpx:hr></gpxtpx:TrackPointExtension></extensions>
      </trkpt>
      <trkpt lat="59.2999569955" lon="18.1369637617">
        <ele>49.4</ele>
        <time>2011-05-12T18:29:55Z</time>
        <extensions><gpxtpx:TrackPointExtension><gpxtpx:hr>114</gpxtpx:hr></gpxtpx:TrackPointExtension></extensions>
      </trkpt>
      <trkpt lat="59.2998968973" lon="18.13699972">
        <ele>49.4</ele>
        <time>2011-05-12T18:29:59Z</time>
        <extensions><gpxtpx:TrackPointExtension><gpxtpx:hr>120</gpxtpx:hr></gpxtpx:TrackPointExtension></extensions>
      </trkpt>
      <trkpt lat="59.2998902756" lon="18.1370165676">
        <ele>49.6</ele>
        <time>2011-05-12T18:30:00Z</time>
        <extensions><gpxtpx:TrackPointExtension><gpxtpx:hr>121</gpxtpx:hr></gpxtpx:TrackPointExtension></extensions>
      </trkpt>
      <trkpt lat="59.2998814746" lon="18.1370582257">
        <ele>50</ele>
        <time>2011-05-12T18:30:02Z</time>
        <extensions><gpxtpx:TrackPointExtension><gpxtpx:hr>124</gpxtpx:hr></gpxtpx:TrackPointExtension></extensions>
      </trkpt>
      <trkpt lat="59.2998690694" lon="18.137232653">
        <ele>50.6</ele>
        <time>2011-05-12T18:30:07Z</time>
        <extensions><gpxtpx:TrackPointExtension><gpxtpx:hr>125</gpxtpx:hr></gpxtpx:TrackPointExtension></extensions>
      </trkpt>
      <trkpt lat="59.2998209573" lon="18.1374177254">
        <ele>51</ele>
        <time>2011-05-12T18:30:13Z</time>
        <extensions><gpxtpx:TrackPointExtension><gpxtpx:hr>126</gpxtpx:hr></gpxtpx:TrackPointExtension></extensions>
      </trkpt>
      <trkpt lat="59.2997750245" lon="18.1375247622">
        <ele>51.2</ele>
        <time>2011-05-12T18:30:17Z</time>
        <extensions><gpxtpx:TrackPointExtension><gpxtpx:hr>126</gpxtpx:hr></gpxtpx:TrackPointExtension></extensions>
      </trkpt>
      <trkpt lat="59.2997730128" lon="18.1375902249">
        <ele>51.6</ele>
        <time>2011-05-12T18:30:19Z</time>
        <extensions><gpxtpx:TrackPointExtension><gpxtpx:hr>126</gpxtpx:hr></gpxtpx:TrackPointExtension></extensions>
      </trkpt>
      <trkpt lat="59.2998238071" lon="18.1378675819">
        <ele>52.6</ele>
        <time>2011-05-12T18:30:26Z</time>
        <extensions><gpxtpx:TrackPointExtension><gpxtpx:hr>126</gpxtpx:hr></gpxtpx:TrackPointExtension></extensions>
      </trkpt>
      <trkpt lat="59.2998669739" lon="18.1380564262">
        <ele>52.8</ele>
        <time>2011-05-12T18:30:30Z</time>
        <extensions><gpxtpx:TrackPointExtension><gpxtpx:hr>124</gpxtpx:hr></gpxtpx:TrackPointExtension></extensions>
      </trkpt>
      <trkpt lat="59.2998673092" lon="18.138171342">
        <ele>53</ele>
        <time>2011-05-12T18:30:33Z</time>
        <extensions><gpxtpx:TrackPointExtension><gpxtpx:hr>123</gpxtpx:hr></gpxtpx:TrackPointExtension></extensions>
      </trkpt>
      <trkpt lat="59.2998900241" lon="18.1382738526">
        <ele>53.2</ele>
        <time>2011-05-12T18:30:35Z</time>
        <extensions><gpxtpx:TrackPointExtension><gpxtpx:hr>132</gpxtpx:hr></gpxtpx:TrackPointExtension></extensions>
      </trkpt>
      <trkpt lat="59.2999261501" lon="18.1384616072">
        <ele>53.2</ele>
        <time>2011-05-12T18:30:39Z</time>
        <extensions><gpxtpx:TrackPointExtension><gpxtpx:hr>129</gpxtpx:hr></gpxtpx:TrackPointExtension></extensions>
      </trkpt>
      <trkpt lat="59.2999314307" lon="18.1385543948">
        <ele>53.4</ele>
        <time>2011-05-12T18:30:41Z</time>
        <extensions><gpxtpx:TrackPointExtension><gpxtpx:hr>124</gpxtpx:hr></gpxtpx:TrackPointExtension></extensions>
      </trkpt>
      <trkpt lat="59.2999601807" lon="18.1387632718">
        <ele>53.8</ele>
        <time>2011-05-12T18:30:46Z</time>
        <extensions><gpxtpx:TrackPointExtension><gpxtpx:hr>122</gpxtpx:hr></gpxtpx:TrackPointExtension></extensions>
      </trkpt>
      <trkpt lat="59.2999683111" lon="18.1388357752">
        <ele>54.2</ele>
        <time>2011-05-12T18:30:48Z</time>
        <extensions><gpxtpx:TrackPointExtension><gpxtpx:hr>122</gpxtpx:hr></gpxtpx:TrackPointExtension></extensions>
      </trkpt>
      <trkpt lat="59.2999575823" lon="18.1389545467">
        <ele>54.6</ele>
        <time>2011-05-12T18:30:52Z</time>
        <extensions><gpxtpx:TrackPointExtension><gpxtpx:hr>120</gpxtpx:hr></gpxtpx:TrackPointExtension></extensions>
      </trkpt>
      <trkpt lat="59.2999564926" lon="18.1390286427">
        <ele>54.8</ele>
        <time>2011-05-12T18:30:54Z</time>
        <extensions><gpxtpx:TrackPointExtension><gpxtpx:hr>119</gpxtpx:hr></gpxtpx:TrackPointExtension></extensions>
      </trkpt>
      <trkpt lat="59.2999176844" lon="18.1391578916">
        <ele>55</ele>
        <time>2011-05-12T18:30:57Z</time>
        <extensions><gpxtpx:TrackPointExtension><gpxtpx:hr>118</gpxtpx:hr></gpxtpx:TrackPointExtension></extensions>
      </trkpt>
      <trkpt lat="59.2998777866" lon="18.1393888968">
        <ele>55.2</ele>
        <time>2011-05-12T18:31:03Z</time>
        <extensions><gpxtpx:TrackPointExtension><gpxtpx:hr>118</gpxtpx:hr></gpxtpx:TrackPointExtension></extensions>
      </trkpt>
      <trkpt lat="59.2999027646" lon="18.1395361668">
        <ele>55.4</ele>
        <time>2011-05-12T18:31:07Z</time>
        <extensions><gpxtpx:TrackPointExtension><gpxtpx:hr>119</gpxtpx:hr></gpxtpx:TrackPointExtension></extensions>
      </trkpt>
      <trkpt lat="59.2999058659" lon="18.1396093408">
        <ele>55.6</ele>
        <time>2011-05-12T18:31:09Z</time>
        <extensions><gpxtpx:TrackPointExtension><gpxtpx:hr>119</gpxtpx:hr></gpxtpx:TrackPointExtension></extensions>
      </trkpt>
      <trkpt lat="59.2999167624" lon="18.1397892163">
        <ele>56.2</ele>
        <time>2011-05-12T18:31:13Z</time>
        <extensions><gpxtpx:TrackPointExtension><gpxtpx:hr>120</gpxtpx:hr></gpxtpx:TrackPointExtension></extensions>
      </trkpt>
      <trkpt lat="59.2998896051" lon="18.1399865263">
        <ele>56.8</ele>
        <time>2011-05-12T18:31:17Z</time>
        <extensions><gpxtpx:TrackPointExtension><gpxtpx:hr>120</gpxtpx:hr></gpxtpx:TrackPointExtension></extensions>
      </trkpt>
      <trkpt lat="59.2998762778" lon="18.1402089819">
        <ele>57</ele>
        <time>2011-05-12T18:31:22Z</time>
        <extensions><gpxtpx:TrackPointExtension><gpxtpx:hr>121</gpxtpx:hr></gpxtpx:TrackPointExtension></extensions>
      </trkpt>
      <trkpt lat="59.2998837377" lon="18.1403069663">
        <ele>57.2</ele>
        <time>2011-05-12T18:31:24Z</time>
        <extensions><gpxtpx:TrackPointExtension><gpxtpx:hr>121</gpxtpx:hr></gpxtpx:TrackPointExtension></extensions>
      </trkpt>
      <trkpt lat="59.2998918682" lon="18.1405800486">
        <ele>57.4</ele>
        <time>2011-05-12T18:31:30Z</time>
        <extensions><gpxtpx:TrackPointExtension><gpxtpx:hr>119</gpxtpx:hr></gpxtpx:TrackPointExtension></extensions>
      </trkpt>
      <trkpt lat="59.2998908623" lon="18.1406697349">
        <ele>57.4</ele>
        <time>2011-05-12T18:31:32Z</time>
        <extensions><gpxtpx:TrackPointExtension><gpxtpx:hr>119</gpxtpx:hr></gpxtpx:TrackPointExtension></extensions>
      </trkpt>
      <trkpt lat="59.2999217077" lon="18.1408315056">
        <ele>57.4</ele>
        <time>2011-05-12T18:31:37Z</time>
        <extensions><gpxtpx:TrackPointExtension><gpxtpx:hr>117</gpxtpx:hr></gpxtpx:TrackPointExtension></extensions>
      </trkpt>
      <trkpt lat="59.2999373819" lon="18.1408573219">
        <ele>57.4</ele>
        <time>2011-05-12T18:31:38Z</time>
        <extensions><gpxtpx:TrackPointExtension><gpxtpx:hr>116</gpxtpx:hr></gpxtpx:TrackPointExtension></extensions>
      </trkpt>
      <trkpt lat="59.2999480269" lon="18.1408690565">
        <ele>57.4</ele>
        <time>2011-05-12T18:31:39Z</time>
        <extensions><gpxtpx:TrackPointExtension><gpxtpx:hr>115</gpxtpx:hr></gpxtpx:TrackPointExtension></extensions>
      </trkpt>
      <trkpt lat="59.2999585043" lon="18.140875762">
        <ele>57.4</ele>
        <time>2011-05-12T18:31:40Z</time>
        <extensions><gpxtpx:TrackPointExtension><gpxtpx:hr>114</gpxtpx:hr></gpxtpx:TrackPointExtension></extensions>
      </trkpt>
      <trkpt lat="59.3000098853" lon="18.1408113052">
        <ele>57.6</ele>
        <time>2011-05-12T18:31:45Z</time>
        <extensions><gpxtpx:TrackPointExtension><gpxtpx:hr>110</gpxtpx:hr></gpxtpx:TrackPointExtension></extensions>
      </trkpt>
      <trkpt lat="59.3000248051" lon="18.1408159153">
        <ele>57.6</ele>
        <time>2011-05-12T18:31:46Z</time>
        <extensions><gpxtpx:TrackPointExtension><gpxtpx:hr>110</gpxtpx:hr></gpxtpx:TrackPointExtension></extensions>
      </trkpt>
      <trkpt lat="59.3000662955" lon="18.1408222855">
        <ele>57.6</ele>
        <time>2011-05-12T18:31:49Z</time>
        <extensions><gpxtpx:TrackPointExtension><gpxtpx:hr>108</gpxtpx:hr></gpxtpx:TrackPointExtension></extensions>
      </trkpt>
      <trkpt lat="59.3001062772" lon="18.140697479">
        <ele>57.6</ele>
        <time>2011-05-12T18:31:55Z</time>
        <extensions><gpxtpx:TrackPointExtension><gpxtpx:hr>106</gpxtpx:hr></gpxtpx:TrackPointExtension></extensions>
      </trkpt>
      <trkpt lat="59.3001198558" lon="18.1405648774">
        <ele>57.4</ele>
        <time>2011-05-12T18:31:59Z</time>
        <extensions><gpxtpx:TrackPointExtension><gpxtpx:hr>106</gpxtpx:hr></gpxtpx:TrackPointExtension></extensions>
      </trkpt>
      <trkpt lat="59.3001336022" lon="18.1404407414">
        <ele>56.6</ele>
        <time>2011-05-12T18:32:04Z</time>
        <extensions><gpxtpx:TrackPointExtension><gpxtpx:hr>104</gpxtpx:hr></gpxtpx:TrackPointExtension></extensions>
      </trkpt>
      <trkpt lat="59.3001390504" lon="18.1404238938">
        <ele>56.4</ele>
        <time>2011-05-12T18:32:05Z</time>
        <extensions><gpxtpx:TrackPointExtension><gpxtpx:hr>104</gpxtpx:hr></gpxtpx:TrackPointExtension></extensions>
      </trkpt>
      <trkpt lat="59.3001532158" lon="18.1403998378">
        <ele>56</ele>
        <time>2011-05-12T18:32:07Z</time>
        <extensions><gpxtpx:TrackPointExtension><gpxtpx:hr>103</gpxtpx:hr></gpxtpx:TrackPointExtension></extensions>
      </trkpt>
      <trkpt lat="59.3001977237" lon="18.1402893643">
        <ele>54.8</ele>
        <time>2011-05-12T18:32:13Z</time>
        <extensions><gpxtpx:TrackPointExtension><gpxtpx:hr>101</gpxtpx:hr></gpxtpx:TrackPointExtension></extensions>
      </trkpt>
      <trkpt lat="59.3002555588" lon="18.1402447726">
        <ele>53.4</ele>
        <time>2011-05-12T18:32:18Z</time>
        <extensions><gpxtpx:TrackPointExtension><gpxtpx:hr>104</gpxtpx:hr></gpxtpx:TrackPointExtension></extensions>
      </trkpt>
      <trkpt lat="59.3002630187" lon="18.1402294337">
        <ele>53.2</ele>
        <time>2011-05-12T18:32:19Z</time>
        <extensions><gpxtpx:TrackPointExtension><gpxtpx:hr>102</gpxtpx:hr></gpxtpx:TrackPointExtension></extensions>
      </trkpt>
      <trkpt lat="59.3002828838" lon="18.1402005162">
        <ele>52.8</ele>
        <time>2011-05-12T18:32:21Z</time>
        <extensions><gpxtpx:TrackPointExtension><gpxtpx:hr>101</gpxtpx:hr></gpxtpx:TrackPointExtension></extensions>
      </trkpt>
      <trkpt lat="59.3003273917" lon="18.1401182059">
        <ele>51.4</ele>
        <time>2011-05-12T18:32:26Z</time>
        <extensions><gpxtpx:TrackPointExtension><gpxtpx:hr>98</gpxtpx:hr></gpxtpx:TrackPointExtension></extensions>
      </trkpt>
      <trkpt lat="59.3003409704" lon="18.1401053816">
        <ele>51.2</ele>
        <time>2011-05-12T18:32:27Z</time>
        <extensions><gpxtpx:TrackPointExtension><gpxtpx:hr>98</gpxtpx:hr></gpxtpx:TrackPointExtension></extensions>
      </trkpt>
      <trkpt lat="59.3003558901" lon="18.140099179">
        <ele>51</ele>
        <time>2011-05-12T18:32:28Z</time>
        <extensions><gpxtpx:TrackPointExtension><gpxtpx:hr>98</gpxtpx:hr></gpxtpx:TrackPointExtension></extensions>
      </trkpt>
      <trkpt lat="59.300408277" lon="18.1400521565">
        <ele>50.2</ele>
        <time>2011-05-12T18:32:32Z</time>
        <extensions><gpxtpx:TrackPointExtension><gpxtpx:hr>98</gpxtpx:hr></gpxtpx:TrackPointExtension></extensions>
      </trkpt>
      <trkpt lat="59.3004174133" lon="18.1400358118">
        <ele>49.8</ele>
        <time>2011-05-12T18:32:33Z</time>
        <extensions><gpxtpx:TrackPointExtension><gpxtpx:hr>98</gpxtpx:hr></gpxtpx:TrackPointExtension></extensions>
      </trkpt>
      <trkpt lat="59.3004357697" lon="18.1399962493">
        <ele>49.4</ele>
        <time>2011-05-12T18:32:35Z</time>
        <extensions><gpxtpx:TrackPointExtension><gpxtpx:hr>98</gpxtpx:hr></gpxtpx:TrackPointExtension></extensions>
      </trkpt>
      <trkpt lat="59.3004835465" lon="18.1398466324">
        <ele>48.4</ele>
        <time>2011-05-12T18:32:40Z</time>
        <extensions><gpxtpx:TrackPointExtension><gpxtpx:hr>98</gpxtpx:hr></gpxtpx:TrackPointExtension></extensions>
      </trkpt>
      <trkpt lat="59.300504166" lon="18.1397965086">
        <ele>48.2</ele>
        <time>2011-05-12T18:32:42Z</time>
        <extensions><gpxtpx:TrackPointExtension><gpxtpx:hr>98</gpxtpx:hr></gpxtpx:TrackPointExtension></extensions>
      </trkpt>
      <trkpt lat="59.300543058" lon="18.1397595444">
        <ele>46.4</ele>
        <time>2011-05-12T18:32:49Z</time>
        <extensions><gpxtpx:TrackPointExtension><gpxtpx:hr>94</gpxtpx:hr></gpxtpx:TrackPointExtension></extensions>
      </trkpt>
      <trkpt lat="59.3005435609" lon="18.1397566946">
        <ele>45.8</ele>
        <time>2011-05-12T18:32:54Z</time>
        <extensions><gpxtpx:TrackPointExtension><gpxtpx:hr>89</gpxtpx:hr></gpxtpx:TrackPointExtension></extensions>
      </trkpt>
      <trkpt lat="59.3005644318" lon="18.1397341473">
        <ele>45.2</ele>
        <time>2011-05-12T18:32:58Z</time>
        <extensions><gpxtpx:TrackPointExtension><gpxtpx:hr>89</gpxtpx:hr></gpxtpx:TrackPointExtension></extensions>
      </trkpt>
      <trkpt lat="59.3005896613" lon="18.1397136116">
        <ele>44.8</ele>
        <time>2011-05-12T18:33:00Z</time>
        <extensions><gpxtpx:TrackPointExtension><gpxtpx:hr>88</gpxtpx:hr></gpxtpx:TrackPointExtension></extensions>
      </trkpt>
      <trkpt lat="59.3006790124" lon="18.1396533457">
        <ele>44</ele>
        <time>2011-05-12T18:33:06Z</time>
        <extensions><gpxtpx:TrackPointExtension><gpxtpx:hr>89</gpxtpx:hr></gpxtpx:TrackPointExtension></extensions>
      </trkpt>
      <trkpt lat="59.3006927587" lon="18.1396538487">
        <ele>43.8</ele>
        <time>2011-05-12T18:33:07Z</time>
        <extensions><gpxtpx:TrackPointExtension><gpxtpx:hr>89</gpxtpx:hr></gpxtpx:TrackPointExtension></extensions>
      </trkpt>
      <trkpt lat="59.3007394459" lon="18.1396193152">
        <ele>43.6</ele>
        <time>2011-05-12T18:33:10Z</time>
        <extensions><gpxtpx:TrackPointExtension><gpxtpx:hr>89</gpxtpx:hr></gpxtpx:TrackPointExtension></extensions>
      </trkpt>
      <trkpt lat="59.300732908" lon="18.1394594724">
        <ele>42.2</ele>
        <time>2011-05-12T18:33:16Z</time>
        <extensions><gpxtpx:TrackPointExtension><gpxtpx:hr>92</gpxtpx:hr></gpxtpx:TrackPointExtension></extensions>
      </trkpt>
      <trkpt lat="59.3007327404" lon="18.1393009707">
        <ele>41.8</ele>
        <time>2011-05-12T18:33:20Z</time>
        <extensions><gpxtpx:TrackPointExtension><gpxtpx:hr>93</gpxtpx:hr></gpxtpx:TrackPointExtension></extensions>
      </trkpt>
      <trkpt lat="59.3007350873" lon="18.1391645133">
        <ele>41.2</ele>
        <time>2011-05-12T18:33:24Z</time>
        <extensions><gpxtpx:TrackPointExtension><gpxtpx:hr>94</gpxtpx:hr></gpxtpx:TrackPointExtension></extensions>
      </trkpt>
      <trkpt lat="59.300745397" lon="18.1390421376">
        <ele>40.6</ele>
        <time>2011-05-12T18:33:27Z</time>
        <extensions><gpxtpx:TrackPointExtension><gpxtpx:hr>98</gpxtpx:hr></gpxtpx:TrackPointExtension></extensions>
      </trkpt>
      <trkpt lat="59.3007336624" lon="18.1387781916">
        <ele>39.2</ele>
        <time>2011-05-12T18:33:32Z</time>
        <extensions><gpxtpx:TrackPointExtension><gpxtpx:hr>101</gpxtpx:hr></gpxtpx:TrackPointExtension></extensions>
      </trkpt>
      <trkpt lat="59.3007053316" lon="18.1386252219">
        <ele>38.2</ele>
        <time>2011-05-12T18:33:37Z</time>
        <extensions><gpxtpx:TrackPointExtension><gpxtpx:hr>103</gpxtpx:hr></gpxtpx:TrackPointExtension></extensions>
      </trkpt>
      <trkpt lat="59.300715306" lon="18.1385877548">
        <ele>38</ele>
        <time>2011-05-12T18:33:38Z</time>
        <extensions><gpxtpx:TrackPointExtension><gpxtpx:hr>105</gpxtpx:hr></gpxtpx:TrackPointExtension></extensions>
      </trkpt>
      <trkpt lat="59.3007421281" lon="18.1384868367">
        <ele>37.4</ele>
        <time>2011-05-12T18:33:40Z</time>
        <extensions><gpxtpx:TrackPointExtension><gpxtpx:hr>110</gpxtpx:hr></gpxtpx:TrackPointExtension></extensions>
      </trkpt>
      <trkpt lat="59.3007462352" lon="18.1384445081">
        <ele>37</ele>
        <time>2011-05-12T18:33:41Z</time>
        <extensions><gpxtpx:TrackPointExtension><gpxtpx:hr>110</gpxtpx:hr></gpxtpx:TrackPointExtension></extensions>
      </trkpt>
      <trkpt lat="59.300769956" lon="18.1382341224">
        <ele>36.2</ele>
        <time>2011-05-12T18:33:45Z</time>
        <extensions><gpxtpx:TrackPointExtension><gpxtpx:hr>110</gpxtpx:hr></gpxtpx:TrackPointExtension></extensions>
      </trkpt>
      <trkpt lat="59.3007890667" lon="18.1381114952">
        <ele>35.8</ele>
        <time>2011-05-12T18:33:48Z</time>
        <extensions><gpxtpx:TrackPointExtension><gpxtpx:hr>110</gpxtpx:hr></gpxtpx:TrackPointExtension></extensions>
      </trkpt>
      <trkpt lat="59.3008938405" lon="18.137820308">
        <ele>35</ele>
        <time>2011-05-12T18:33:55Z</time>
        <extensions><gpxtpx:TrackPointExtension><gpxtpx:hr>110</gpxtpx:hr></gpxtpx:TrackPointExtension></extensions>
      </trkpt>
      <trkpt lat="59.3009266975" lon="18.1375829326">
        <ele>34.8</ele>
        <time>2011-05-12T18:33:59Z</time>
        <extensions><gpxtpx:TrackPointExtension><gpxtpx:hr>110</gpxtpx:hr></gpxtpx:TrackPointExtension></extensions>
      </trkpt>
      <trkpt lat="59.3009240992" lon="18.1374680168">
        <ele>34.8</ele>
        <time>2011-05-12T18:34:01Z</time>
        <extensions><gpxtpx:TrackPointExtension><gpxtpx:hr>118</gpxtpx:hr></gpxtpx:TrackPointExtension></extensions>
      </trkpt>
      <trkpt lat="59.3009267814" lon="18.1374341539">
        <ele>34.8</ele>
        <time>2011-05-12T18:34:02Z</time>
        <extensions><gpxtpx:TrackPointExtension><gpxtpx:hr>118</gpxtpx:hr></gpxtpx:TrackPointExtension></extensions>
      </trkpt>
      <trkpt lat="59.3009483228" lon="18.1374102655">
        <ele>34.6</ele>
        <time>2011-05-12T18:34:06Z</time>
        <extensions><gpxtpx:TrackPointExtension><gpxtpx:hr>109</gpxtpx:hr></gpxtpx:TrackPointExtension></extensions>
      </trkpt>
      <trkpt lat="59.3009541902" lon="18.1374089244">
        <ele>34.2</ele>
        <time>2011-05-12T18:34:09Z</time>
        <extensions><gpxtpx:TrackPointExtension><gpxtpx:hr>103</gpxtpx:hr></gpxtpx:TrackPointExtension></extensions>
      </trkpt>
      <trkpt lat="59.3009784977" lon="18.1374101817">
        <ele>32.6</ele>
        <time>2011-05-12T18:34:32Z</time>
        <extensions><gpxtpx:TrackPointExtension><gpxtpx:hr>101</gpxtpx:hr></gpxtpx:TrackPointExtension></extensions>
      </trkpt>
      <trkpt lat="59.300945473" lon="18.1372508417">
        <ele>32.6</ele>
        <time>2011-05-12T18:34:36Z</time>
        <extensions><gpxtpx:TrackPointExtension><gpxtpx:hr>103</gpxtpx:hr></gpxtpx:TrackPointExtension></extensions>
      </trkpt>
      <trkpt lat="59.3009487419" lon="18.137198874">
        <ele>32.6</ele>
        <time>2011-05-12T18:34:37Z</time>
        <extensions><gpxtpx:TrackPointExtension><gpxtpx:hr>103</gpxtpx:hr></gpxtpx:TrackPointExtension></extensions>
      </trkpt>
      <trkpt lat="59.3009694452" lon="18.1369552121">
        <ele>32.6</ele>
        <time>2011-05-12T18:34:41Z</time>
        <extensions><gpxtpx:TrackPointExtension><gpxtpx:hr>116</gpxtpx:hr></gpxtpx:TrackPointExtension></extensions>
      </trkpt>
      <trkpt lat="59.3009705349" lon="18.1368815352">
        <ele>32.6</ele>
        <time>2011-05-12T18:34:42Z</time>
        <extensions><gpxtpx:TrackPointExtension><gpxtpx:hr>125</gpxtpx:hr></gpxtpx:TrackPointExtension></extensions>
      </trkpt>
      <trkpt lat="59.3009652543" lon="18.136792268">
        <ele>32.6</ele>
        <time>2011-05-12T18:34:43Z</time>
        <extensions><gpxtpx:TrackPointExtension><gpxtpx:hr>125</gpxtpx:hr></gpxtpx:TrackPointExtension></extensions>
      </trkpt>
      <trkpt lat="59.3009643323" lon="18.1366004901">
        <ele>32.6</ele>
        <time>2011-05-12T18:34:45Z</time>
        <extensions><gpxtpx:TrackPointExtension><gpxtpx:hr>136</gpxtpx:hr></gpxtpx:TrackPointExtension></extensions>
      </trkpt>
      <trkpt lat="59.3009640808" lon="18.1365020028">
        <ele>32.6</ele>
        <time>2011-05-12T18:34:46Z</time>
        <extensions><gpxtpx:TrackPointExtension><gpxtpx:hr>136</gpxtpx:hr></gpxtpx:TrackPointExtension></extensions>
      </trkpt>
      <trkpt lat="59.3009671821" lon="18.136381052">
        <ele>32.6</ele>
        <time>2011-05-12T18:34:47Z</time>
        <extensions><gpxtpx:TrackPointExtension><gpxtpx:hr>145</gpxtpx:hr></gpxtpx:TrackPointExtension></extensions>
      </trkpt>
      <trkpt lat="59.300967685" lon="18.136262029">
        <ele>32.6</ele>
        <time>2011-05-12T18:34:48Z</time>
        <extensions><gpxtpx:TrackPointExtension><gpxtpx:hr>145</gpxtpx:hr></gpxtpx:TrackPointExtension></extensions>
      </trkpt>
      <trkpt lat="59.300961231" lon="18.1361399047">
        <ele>32.6</ele>
        <time>2011-05-12T18:34:49Z</time>
        <extensions><gpxtpx:TrackPointExtension><gpxtpx:hr>145</gpxtpx:hr></gpxtpx:TrackPointExtension></extensions>
      </trkpt>
      <trkpt lat="59.3009313076" lon="18.1358081491">
        <ele>32.6</ele>
        <time>2011-05-12T18:34:52Z</time>
        <extensions><gpxtpx:TrackPointExtension><gpxtpx:hr>145</gpxtpx:hr></gpxtpx:TrackPointExtension></extensions>
      </trkpt>
      <trkpt lat="59.300926027" lon="18.135574797">
        <ele>32.4</ele>
        <time>2011-05-12T18:34:54Z</time>
        <extensions><gpxtpx:TrackPointExtension><gpxtpx:hr>144</gpxtpx:hr></gpxtpx:TrackPointExtension></extensions>
      </trkpt>
      <trkpt lat="59.3009337383" lon="18.1353649142">
        <ele>32</ele>
        <time>2011-05-12T18:34:57Z</time>
        <extensions><gpxtpx:TrackPointExtension><gpxtpx:hr>143</gpxtpx:hr></gpxtpx:TrackPointExtension></extensions>
      </trkpt>
      <trkpt lat="59.300936672" lon="18.1353471446">
        <ele>31.8</ele>
        <time>2011-05-12T18:34:58Z</time>
        <extensions><gpxtpx:TrackPointExtension><gpxtpx:hr>142</gpxtpx:hr></gpxtpx:TrackPointExtension></extensions>
      </trkpt>
      <trkpt lat="59.3009467303" lon="18.1353132817">
        <ele>31.2</ele>
        <time>2011-05-12T18:35:03Z</time>
        <extensions><gpxtpx:TrackPointExtension><gpxtpx:hr>137</gpxtpx:hr></gpxtpx:TrackPointExtension></extensions>
      </trkpt>
      <trkpt lat="59.3009655896" lon="18.1352099329">
        <ele>31</ele>
        <time>2011-05-12T18:35:08Z</time>
        <extensions><gpxtpx:TrackPointExtension><gpxtpx:hr>132</gpxtpx:hr></gpxtpx:TrackPointExtension></extensions>
      </trkpt>
      <trkpt lat="59.3009665116" lon="18.1351821888">
        <ele>30.8</ele>
        <time>2011-05-12T18:35:09Z</time>
        <extensions><gpxtpx:TrackPointExtension><gpxtpx:hr>132</gpxtpx:hr></gpxtpx:TrackPointExtension></extensions>
      </trkpt>
      <trkpt lat="59.300975564" lon="18.1351051592">
        <ele>30.8</ele>
        <time>2011-05-12T18:35:12Z</time>
        <extensions><gpxtpx:TrackPointExtension><gpxtpx:hr>130</gpxtpx:hr></gpxtpx:TrackPointExtension></extensions>
      </trkpt>
      <trkpt lat="59.3009749773" lon="18.1350438037">
        <ele>30.6</ele>
        <time>2011-05-12T18:35:14Z</time>
        <extensions><gpxtpx:TrackPointExtension><gpxtpx:hr>130</gpxtpx:hr></gpxtpx:TrackPointExtension></extensions>
      </trkpt>
      <trkpt lat="59.3009413659" lon="18.1347801091">
        <ele>30.2</ele>
        <time>2011-05-12T18:35:20Z</time>
        <extensions><gpxtpx:TrackPointExtension><gpxtpx:hr>130</gpxtpx:hr></gpxtpx:TrackPointExtension></extensions>
      </trkpt>
      <trkpt lat="59.3008974447" lon="18.1345568991">
        <ele>29.4</ele>
        <time>2011-05-12T18:35:25Z</time>
        <extensions><gpxtpx:TrackPointExtension><gpxtpx:hr>129</gpxtpx:hr></gpxtpx:TrackPointExtension></extensions>
      </trkpt>
      <trkpt lat="59.3009007136" lon="18.1345079488">
        <ele>29.4</ele>
        <time>2011-05-12T18:35:26Z</time>
        <extensions><gpxtpx:TrackPointExtension><gpxtpx:hr>129</gpxtpx:hr></gpxtpx:TrackPointExtension></extensions>
      </trkpt>
      <trkpt lat="59.3008845366" lon="18.1342204496">
        <ele>29</ele>
        <time>2011-05-12T18:35:32Z</time>
        <extensions><gpxtpx:TrackPointExtension><gpxtpx:hr>129</gpxtpx:hr></gpxtpx:TrackPointExtension></extensions>
      </trkpt>
      <trkpt lat="59.3008812676" lon="18.1340063759">
        <ele>28.8</ele>
        <time>2011-05-12T18:35:36Z</time>
        <extensions><gpxtpx:TrackPointExtension><gpxtpx:hr>128</gpxtpx:hr></gpxtpx:TrackPointExtension></extensions>
      </trkpt>
      <trkpt lat="59.3008915774" lon="18.1337761251">
        <ele>28.6</ele>
        <time>2011-05-12T18:35:40Z</time>
        <extensions><gpxtpx:TrackPointExtension><gpxtpx:hr>126</gpxtpx:hr></gpxtpx:TrackPointExtension></extensions>
      </trkpt>
      <trkpt lat="59.3008815191" lon="18.1334885421">
        <ele>28.6</ele>
        <time>2011-05-12T18:35:45Z</time>
        <extensions><gpxtpx:TrackPointExtension><gpxtpx:hr>126</gpxtpx:hr></gpxtpx:TrackPointExtension></extensions>
      </trkpt>
      <trkpt lat="59.3008624084" lon="18.1332022164">
        <ele>28.6</ele>
        <time>2011-05-12T18:35:50Z</time>
        <extensions><gpxtpx:TrackPointExtension><gpxtpx:hr>125</gpxtpx:hr></gpxtpx:TrackPointExtension></extensions>
      </trkpt>
      <trkpt lat="59.3008626598" lon="18.1329024797">
        <ele>28.4</ele>
        <time>2011-05-12T18:35:56Z</time>
        <extensions><gpxtpx:TrackPointExtension><gpxtpx:hr>125</gpxtpx:hr></gpxtpx:TrackPointExtension></extensions>
      </trkpt>
      <trkpt lat="59.3008533559" lon="18.1326987157">
        <ele>28.4</ele>
        <time>2011-05-12T18:36:00Z</time>
        <extensions><gpxtpx:TrackPointExtension><gpxtpx:hr>125</gpxtpx:hr></gpxtpx:TrackPointExtension></extensions>
      </trkpt>
      <trkpt lat="59.3008453093" lon="18.1324691354">
        <ele>28.4</ele>
        <time>2011-05-12T18:36:04Z</time>
        <extensions><gpxtpx:TrackPointExtension><gpxtpx:hr>125</gpxtpx:hr></gpxtpx:TrackPointExtension></extensions>
      </trkpt>
      <trkpt lat="59.3008424594" lon="18.1321564906">
        <ele>28.4</ele>
        <time>2011-05-12T18:36:09Z</time>
        <extensions><gpxtpx:TrackPointExtension><gpxtpx:hr>126</gpxtpx:hr></gpxtpx:TrackPointExtension></extensions>
      </trkpt>
      <trkpt lat="59.3008347481" lon="18.1321093843">
        <ele>28.4</ele>
        <time>2011-05-12T18:36:10Z</time>
        <extensions><gpxtpx:TrackPointExtension><gpxtpx:hr>126</gpxtpx:hr></gpxtpx:TrackPointExtension></extensions>
      </trkpt>
      <trkpt lat="59.3007980354" lon="18.1320042753">
        <ele>28.4</ele>
        <time>2011-05-12T18:36:12Z</time>
        <extensions><gpxtpx:TrackPointExtension><gpxtpx:hr>126</gpxtpx:hr></gpxtpx:TrackPointExtension></extensions>
      </trkpt>
      <trkpt lat="59.3008006338" lon="18.1317001799">
        <ele>28.4</ele>
        <time>2011-05-12T18:36:17Z</time>
        <extensions><gpxtpx:TrackPointExtension><gpxtpx:hr>127</gpxtpx:hr></gpxtpx:TrackPointExtension></extensions>
      </trkpt>
      <trkpt lat="59.3007978677" lon="18.1315020318">
        <ele>28.4</ele>
        <time>2011-05-12T18:36:21Z</time>
        <extensions><gpxtpx:TrackPointExtension><gpxtpx:hr>126</gpxtpx:hr></gpxtpx:TrackPointExtension></extensions>
      </trkpt>
      <trkpt lat="59.3008012205" lon="18.1312682606">
        <ele>28.4</ele>
        <time>2011-05-12T18:36:25Z</time>
        <extensions><gpxtpx:TrackPointExtension><gpxtpx:hr>126</gpxtpx:hr></gpxtpx:TrackPointExtension></extensions>
      </trkpt>
      <trkpt lat="59.3007956884" lon="18.131083775">
        <ele>28.2</ele>
        <time>2011-05-12T18:36:28Z</time>
        <extensions><gpxtpx:TrackPointExtension><gpxtpx:hr>126</gpxtpx:hr></gpxtpx:TrackPointExtension></extensions>
      </trkpt>
      <trkpt lat="59.3007296391" lon="18.1307713816">
        <ele>27.4</ele>
        <time>2011-05-12T18:36:34Z</time>
        <extensions><gpxtpx:TrackPointExtension><gpxtpx:hr>124</gpxtpx:hr></gpxtpx:TrackPointExtension></extensions>
      </trkpt>
      <trkpt lat="59.300726873" lon="18.1307103614">
        <ele>27.2</ele>
        <time>2011-05-12T18:36:35Z</time>
        <extensions><gpxtpx:TrackPointExtension><gpxtpx:hr>125</gpxtpx:hr></gpxtpx:TrackPointExtension></extensions>
      </trkpt>
      <trkpt lat="59.3007042419" lon="18.1303737443">
        <ele>26.8</ele>
        <time>2011-05-12T18:36:41Z</time>
        <extensions><gpxtpx:TrackPointExtension><gpxtpx:hr>124</gpxtpx:hr></gpxtpx:TrackPointExtension></extensions>
      </trkpt>
      <trkpt lat="59.3006873105" lon="18.1301604249">
        <ele>26.6</ele>
        <time>2011-05-12T18:36:45Z</time>
        <extensions><gpxtpx:TrackPointExtension><gpxtpx:hr>121</gpxtpx:hr></gpxtpx:TrackPointExtension></extensions>
      </trkpt>
      <trkpt lat="59.3006942675" lon="18.1299786215">
        <ele>26.6</ele>
        <time>2011-05-12T18:36:48Z</time>
        <extensions><gpxtpx:TrackPointExtension><gpxtpx:hr>131</gpxtpx:hr></gpxtpx:TrackPointExtension></extensions>
      </trkpt>
      <trkpt lat="59.3007032361" lon="18.1299146676">
        <ele>26.6</ele>
        <time>2011-05-12T18:36:49Z</time>
        <extensions><gpxtpx:TrackPointExtension><gpxtpx:hr>131</gpxtpx:hr></gpxtpx:TrackPointExtension></extensions>
      </trkpt>
      <trkpt lat="59.3007112827" lon="18.1298650467">
        <ele>26.6</ele>
        <time>2011-05-12T18:36:50Z</time>
        <extensions><gpxtpx:TrackPointExtension><gpxtpx:hr>129</gpxtpx:hr></gpxtpx:TrackPointExtension></extensions>
      </trkpt>
      <trkpt lat="59.3007320698" lon="18.1295514799">
        <ele>26</ele>
        <time>2011-05-12T18:36:55Z</time>
        <extensions><gpxtpx:TrackPointExtension><gpxtpx:hr>124</gpxtpx:hr></gpxtpx:TrackPointExtension></extensions>
      </trkpt>
      <trkpt lat="59.3007397812" lon="18.1294973328">
        <ele>25.8</ele>
        <time>2011-05-12T18:36:56Z</time>
        <extensions><gpxtpx:TrackPointExtension><gpxtpx:hr>124</gpxtpx:hr></gpxtpx:TrackPointExtension></extensions>
      </trkpt>
      <trkpt lat="59.3007440559" lon="18.1294460356">
        <ele>25.8</ele>
        <time>2011-05-12T18:36:57Z</time>
        <extensions><gpxtpx:TrackPointExtension><gpxtpx:hr>123</gpxtpx:hr></gpxtpx:TrackPointExtension></extensions>
      </trkpt>
      <trkpt lat="59.3007434692" lon="18.1293882005">
        <ele>25.6</ele>
        <time>2011-05-12T18:36:58Z</time>
        <extensions><gpxtpx:TrackPointExtension><gpxtpx:hr>123</gpxtpx:hr></gpxtpx:TrackPointExtension></extensions>
      </trkpt>
      <trkpt lat="59.3007521026" lon="18.1291024615">
        <ele>25</ele>
        <time>2011-05-12T18:37:03Z</time>
        <extensions><gpxtpx:TrackPointExtension><gpxtpx:hr>122</gpxtpx:hr></gpxtpx:TrackPointExtension></extensions>
      </trkpt>
      <trkpt lat="59.3007448941" lon="18.1290363283">
        <ele>25</ele>
        <time>2011-05-12T18:37:04Z</time>
        <extensions><gpxtpx:TrackPointExtension><gpxtpx:hr>121</gpxtpx:hr></gpxtpx:TrackPointExtension></extensions>
      </trkpt>
      <trkpt lat="59.3007056668" lon="18.1289064088">
        <ele>24.8</ele>
        <time>2011-05-12T18:37:06Z</time>
        <extensions><gpxtpx:TrackPointExtension><gpxtpx:hr>130</gpxtpx:hr></gpxtpx:TrackPointExtension></extensions>
      </trkpt>
      <trkpt lat="59.3006906632" lon="18.128840108">
        <ele>24.8</ele>
        <time>2011-05-12T18:37:07Z</time>
        <extensions><gpxtpx:TrackPointExtension><gpxtpx:hr>130</gpxtpx:hr></gpxtpx:TrackPointExtension></extensions>
      </trkpt>
      <trkpt lat="59.3006804373" lon="18.1287261142">
        <ele>24.6</ele>
        <time>2011-05-12T18:37:09Z</time>
        <extensions><gpxtpx:TrackPointExtension><gpxtpx:hr>130</gpxtpx:hr></gpxtpx:TrackPointExtension></extensions>
      </trkpt>
      <trkpt lat="59.3006674454" lon="18.1286280459">
        <ele>24.6</ele>
        <time>2011-05-12T18:37:11Z</time>
        <extensions><gpxtpx:TrackPointExtension><gpxtpx:hr>130</gpxtpx:hr></gpxtpx:TrackPointExtension></extensions>
      </trkpt>
      <trkpt lat="59.3006152261" lon="18.1284330829">
        <ele>24.4</ele>
        <time>2011-05-12T18:37:16Z</time>
        <extensions><gpxtpx:TrackPointExtension><gpxtpx:hr>129</gpxtpx:hr></gpxtpx:TrackPointExtension></extensions>
      </trkpt>
      <trkpt lat="59.3006044973" lon="18.1283917602">
        <ele>24.4</ele>
        <time>2011-05-12T18:37:17Z</time>
        <extensions><gpxtpx:TrackPointExtension><gpxtpx:hr>129</gpxtpx:hr></gpxtpx:TrackPointExtension></extensions>
      </trkpt>
      <trkpt lat="59.3005663597" lon="18.1282606673">
        <ele>24.4</ele>
        <time>2011-05-12T18:37:21Z</time>
        <extensions><gpxtpx:TrackPointExtension><gpxtpx:hr>129</gpxtpx:hr></gpxtpx:TrackPointExtension></extensions>
      </trkpt>
      <trkpt lat="59.3005389508" lon="18.128190846">
        <ele>24.4</ele>
        <time>2011-05-12T18:37:23Z</time>
        <extensions><gpxtpx:TrackPointExtension><gpxtpx:hr>128</gpxtpx:hr></gpxtpx:TrackPointExtension></extensions>
      </trkpt>
      <trkpt lat="59.3004675371" lon="18.1278376328">
        <ele>24.4</ele>
        <time>2011-05-12T18:37:31Z</time>
        <extensions><gpxtpx:TrackPointExtension><gpxtpx:hr>130</gpxtpx:hr></gpxtpx:TrackPointExtension></extensions>
      </trkpt>
      <trkpt lat="59.3004282259" lon="18.1275609463">
        <ele>24.2</ele>
        <time>2011-05-12T18:37:36Z</time>
        <extensions><gpxtpx:TrackPointExtension><gpxtpx:hr>131</gpxtpx:hr></gpxtpx:TrackPointExtension></extensions>
      </trkpt>
      <trkpt lat="59.3004252923" lon="18.1275113254">
        <ele>24.2</ele>
        <time>2011-05-12T18:37:37Z</time>
        <extensions><gpxtpx:TrackPointExtension><gpxtpx:hr>131</gpxtpx:hr></gpxtpx:TrackPointExtension></extensions>
      </trkpt>
      <trkpt lat="59.3003909265" lon="18.1272996824">
        <ele>24.2</ele>
        <time>2011-05-12T18:37:42Z</time>
        <extensions><gpxtpx:TrackPointExtension><gpxtpx:hr>129</gpxtpx:hr></gpxtpx:TrackPointExtension></extensions>
      </trkpt>
      <trkpt lat="59.3003706423" lon="18.1272108343">
        <ele>24.2</ele>
        <time>2011-05-12T18:37:44Z</time>
        <extensions><gpxtpx:TrackPointExtension><gpxtpx:hr>128</gpxtpx:hr></gpxtpx:TrackPointExtension></extensions>
      </trkpt>
      <trkpt lat="59.300367541" lon="18.1271384985">
        <ele>25</ele>
        <time>2011-05-12T18:37:48Z</time>
        <extensions><gpxtpx:TrackPointExtension><gpxtpx:hr>125</gpxtpx:hr></gpxtpx:TrackPointExtension></extensions>
      </trkpt>
      <trkpt lat="59.3003737436" lon="18.1271244169">
        <ele>25.2</ele>
        <time>2011-05-12T18:37:50Z</time>
        <extensions><gpxtpx:TrackPointExtension><gpxtpx:hr>123</gpxtpx:hr></gpxtpx:TrackPointExtension></extensions>
      </trkpt>
      <trkpt lat="59.3003719834" lon="18.1270977625">
        <ele>25.4</ele>
        <time>2011-05-12T18:37:52Z</time>
        <extensions><gpxtpx:TrackPointExtension><gpxtpx:hr>122</gpxtpx:hr></gpxtpx:TrackPointExtension></extensions>
      </trkpt>
      <trkpt lat="59.3003573151" lon="18.1270483931">
        <ele>26</ele>
        <time>2011-05-12T18:38:00Z</time>
        <extensions><gpxtpx:TrackPointExtension><gpxtpx:hr>117</gpxtpx:hr></gpxtpx:TrackPointExtension></extensions>
      </trkpt>
      <trkpt lat="59.3003516154" lon="18.1270083276">
        <ele>26.2</ele>
        <time>2011-05-12T18:38:09Z</time>
        <extensions><gpxtpx:TrackPointExtension><gpxtpx:hr>112</gpxtpx:hr></gpxtpx:TrackPointExtension></extensions>
      </trkpt>
      <trkpt lat="59.3003399645" lon="18.1269583715">
        <ele>26.2</ele>
        <time>2011-05-12T18:38:13Z</time>
        <extensions><gpxtpx:TrackPointExtension><gpxtpx:hr>107</gpxtpx:hr></gpxtpx:TrackPointExtension></extensions>
      </trkpt>
      <trkpt lat="59.3003418924" lon="18.1269349021">
        <ele>26.2</ele>
        <time>2011-05-12T18:38:14Z</time>
        <extensions><gpxtpx:TrackPointExtension><gpxtpx:hr>106</gpxtpx:hr></gpxtpx:TrackPointExtension></extensions>
      </trkpt>
      <trkpt lat="59.3003387073" lon="18.1268990276">
        <ele>26.2</ele>
        <time>2011-05-12T18:38:20Z</time>
        <extensions><gpxtpx:TrackPointExtension><gpxtpx:hr>100</gpxtpx:hr></gpxtpx:TrackPointExtension></extensions>
      </trkpt>
      <trkpt lat="59.3003289004" lon="18.1269100917">
        <ele>26.4</ele>
        <time>2011-05-12T18:38:27Z</time>
        <extensions><gpxtpx:TrackPointExtension><gpxtpx:hr>95</gpxtpx:hr></gpxtpx:TrackPointExtension></extensions>
      </trkpt>
      <trkpt lat="59.3003261344" lon="18.1269006202">
        <ele>26.4</ele>
        <time>2011-05-12T18:38:33Z</time>
        <extensions><gpxtpx:TrackPointExtension><gpxtpx:hr>89</gpxtpx:hr></gpxtpx:TrackPointExtension></extensions>
      </trkpt>
      <trkpt lat="59.3003154056" lon="18.126892825">
        <ele>26.4</ele>
        <time>2011-05-12T18:38:40Z</time>
        <extensions><gpxtpx:TrackPointExtension><gpxtpx:hr>95</gpxtpx:hr></gpxtpx:TrackPointExtension></extensions>
      </trkpt>
      <trkpt lat="59.3003184231" lon="18.1268800007">
        <ele>26.4</ele>
        <time>2011-05-12T18:38:43Z</time>
        <extensions><gpxtpx:TrackPointExtension><gpxtpx:hr>101</gpxtpx:hr></gpxtpx:TrackPointExtension></extensions>
      </trkpt>
      <trkpt lat="59.3003216082" lon="18.126880336">
        <ele>26.4</ele>
        <time>2011-05-12T18:38:48Z</time>
        <extensions><gpxtpx:TrackPointExtension><gpxtpx:hr>106</gpxtpx:hr></gpxtpx:TrackPointExtension></extensions>
      </trkpt>
      <trkpt lat="59.3003278946" lon="18.1268689366">
        <ele>26.4</ele>
        <time>2011-05-12T18:38:53Z</time>
        <extensions><gpxtpx:TrackPointExtension><gpxtpx:hr>109</gpxtpx:hr></gpxtpx:TrackPointExtension></extensions>
      </trkpt>
      <trkpt lat="59.3003274755" lon="18.126610355">
        <ele>26.4</ele>
        <time>2011-05-12T18:38:58Z</time>
        <extensions><gpxtpx:TrackPointExtension><gpxtpx:hr>111</gpxtpx:hr></gpxtpx:TrackPointExtension></extensions>
      </trkpt>
      <trkpt lat="59.3003197642" lon="18.1264042441">
        <ele>26.4</ele>
        <time>2011-05-12T18:39:01Z</time>
        <extensions><gpxtpx:TrackPointExtension><gpxtpx:hr>108</gpxtpx:hr></gpxtpx:TrackPointExtension></extensions>
      </trkpt>
      <trkpt lat="59.3003035033" lon="18.1261710596">
        <ele>26.4</ele>
        <time>2011-05-12T18:39:05Z</time>
        <extensions><gpxtpx:TrackPointExtension><gpxtpx:hr>107</gpxtpx:hr></gpxtpx:TrackPointExtension></extensions>
      </trkpt>
      <trkpt lat="59.3002192652" lon="18.1260566467">
        <ele>26.4</ele>
        <time>2011-05-12T18:39:08Z</time>
        <extensions><gpxtpx:TrackPointExtension><gpxtpx:hr>117</gpxtpx:hr></gpxtpx:TrackPointExtension></extensions>
      </trkpt>
      <trkpt lat="59.3001876654" lon="18.1260083669">
        <ele>26.4</ele>
        <time>2011-05-12T18:39:09Z</time>
        <extensions><gpxtpx:TrackPointExtension><gpxtpx:hr>117</gpxtpx:hr></gpxtpx:TrackPointExtension></extensions>
      </trkpt>
      <trkpt lat="59.3000976438" lon="18.1257725841">
        <ele>26.4</ele>
        <time>2011-05-12T18:39:12Z</time>
        <extensions><gpxtpx:TrackPointExtension><gpxtpx:hr>128</gpxtpx:hr></gpxtpx:TrackPointExtension></extensions>
      </trkpt>
      <trkpt lat="59.3000714923" lon="18.1256843227">
        <ele>26.4</ele>
        <time>2011-05-12T18:39:13Z</time>
        <extensions><gpxtpx:TrackPointExtension><gpxtpx:hr>128</gpxtpx:hr></gpxtpx:TrackPointExtension></extensions>
      </trkpt>
      <trkpt lat="59.3000528845" lon="18.1256136632">
        <ele>26.4</ele>
        <time>2011-05-12T18:39:14Z</time>
        <extensions><gpxtpx:TrackPointExtension><gpxtpx:hr>128</gpxtpx:hr></gpxtpx:TrackPointExtension></extensions>
      </trkpt>
      <trkpt lat="59.299953978" lon="18.1254027746">
        <ele>26.4</ele>
        <time>2011-05-12T18:39:18Z</time>
        <extensions><gpxtpx:TrackPointExtension><gpxtpx:hr>128</gpxtpx:hr></gpxtpx:TrackPointExtension></extensions>
      </trkpt>
      <trkpt lat="59.2999408185" lon="18.1253214702">
        <ele>26.4</ele>
        <time>2011-05-12T18:39:21Z</time>
        <extensions><gpxtpx:TrackPointExtension><gpxtpx:hr>129</gpxtpx:hr></gpxtpx:TrackPointExtension></extensions>
      </trkpt>
      <trkpt lat="59.2999178521" lon="18.1252519843">
        <ele>26.4</ele>
        <time>2011-05-12T18:39:25Z</time>
        <extensions><gpxtpx:TrackPointExtension><gpxtpx:hr>129</gpxtpx:hr></gpxtpx:TrackPointExtension></extensions>
      </trkpt>
      <trkpt lat="59.2997539021" lon="18.1250620504">
        <ele>26.4</ele>
        <time>2011-05-12T18:39:30Z</time>
        <extensions><gpxtpx:TrackPointExtension><gpxtpx:hr>131</gpxtpx:hr></gpxtpx:TrackPointExtension></extensions>
      </trkpt>
      <trkpt lat="59.2996406626" lon="18.1249597912">
        <ele>26.4</ele>
        <time>2011-05-12T18:39:33Z</time>
        <extensions><gpxtpx:TrackPointExtension><gpxtpx:hr>131</gpxtpx:hr></gpxtpx:TrackPointExtension></extensions>
      </trkpt>
      <trkpt lat="59.2996253237" lon="18.1246180612">
        <ele>26.4</ele>
        <time>2011-05-12T18:39:37Z</time>
        <extensions><gpxtpx:TrackPointExtension><gpxtpx:hr>137</gpxtpx:hr></gpxtpx:TrackPointExtension></extensions>
      </trkpt>
      <trkpt lat="59.2996324484" lon="18.1245059952">
        <ele>26.4</ele>
        <time>2011-05-12T18:39:38Z</time>
        <extensions><gpxtpx:TrackPointExtension><gpxtpx:hr>137</gpxtpx:hr></gpxtpx:TrackPointExtension></extensions>
      </trkpt>
      <trkpt lat="59.2996829074" lon="18.1242769178">
        <ele>26.4</ele>
        <time>2011-05-12T18:39:41Z</time>
        <extensions><gpxtpx:TrackPointExtension><gpxtpx:hr>145</gpxtpx:hr></gpxtpx:TrackPointExtension></extensions>
      </trkpt>
      <trkpt lat="59.2997374736" lon="18.1240526182">
        <ele>25.8</ele>
        <time>2011-05-12T18:39:44Z</time>
        <extensions><gpxtpx:TrackPointExtension><gpxtpx:hr>147</gpxtpx:hr></gpxtpx:TrackPointExtension></extensions>
      </trkpt>
      <trkpt lat="59.2997671455" lon="18.1238876624">
        <ele>25.4</ele>
        <time>2011-05-12T18:39:46Z</time>
        <extensions><gpxtpx:TrackPointExtension><gpxtpx:hr>157</gpxtpx:hr></gpxtpx:TrackPointExtension></extensions>
      </trkpt>
      <trkpt lat="59.299790531" lon="18.1238152428">
        <ele>25.4</ele>
        <time>2011-05-12T18:39:47Z</time>
        <extensions><gpxtpx:TrackPointExtension><gpxtpx:hr>157</gpxtpx:hr></gpxtpx:TrackPointExtension></extensions>
      </trkpt>
      <trkpt lat="59.2998174369" lon="18.1237483552">
        <ele>25.2</ele>
        <time>2011-05-12T18:39:48Z</time>
        <extensions><gpxtpx:TrackPointExtension><gpxtpx:hr>156</gpxtpx:hr></gpxtpx:TrackPointExtension></extensions>
      </trkpt>
      <trkpt lat="59.2998964782" lon="18.1234308488">
        <ele>24.8</ele>
        <time>2011-05-12T18:39:53Z</time>
        <extensions><gpxtpx:TrackPointExtension><gpxtpx:hr>154</gpxtpx:hr></gpxtpx:TrackPointExtension></extensions>
      </trkpt>
      <trkpt lat="59.299897987" lon="18.1233573396">
        <ele>24.8</ele>
        <time>2011-05-12T18:39:54Z</time>
        <extensions><gpxtpx:TrackPointExtension><gpxtpx:hr>154</gpxtpx:hr></gpxtpx:TrackPointExtension></extensions>
      </trkpt>
      <trkpt lat="59.2998933769" lon="18.1230329601">
        <ele>24</ele>
        <time>2011-05-12T18:40:00Z</time>
        <extensions><gpxtpx:TrackPointExtension><gpxtpx:hr>151</gpxtpx:hr></gpxtpx:TrackPointExtension></extensions>
      </trkpt>
      <trkpt lat="59.299904441" lon="18.1228754642">
        <ele>23.2</ele>
        <time>2011-05-12T18:40:05Z</time>
        <extensions><gpxtpx:TrackPointExtension><gpxtpx:hr>150</gpxtpx:hr></gpxtpx:TrackPointExtension></extensions>
      </trkpt>
      <trkpt lat="59.2999159242" lon="18.1228262624">
        <ele>23</ele>
        <time>2011-05-12T18:40:08Z</time>
        <extensions><gpxtpx:TrackPointExtension><gpxtpx:hr>148</gpxtpx:hr></gpxtpx:TrackPointExtension></extensions>
      </trkpt>
      <trkpt lat="59.2999005853" lon="18.1227068203">
        <ele>22.6</ele>
        <time>2011-05-12T18:40:15Z</time>
        <extensions><gpxtpx:TrackPointExtension><gpxtpx:hr>144</gpxtpx:hr></gpxtpx:TrackPointExtension></extensions>
      </trkpt>
      <trkpt lat="59.2998990766" lon="18.1226191457">
        <ele>22.4</ele>
        <time>2011-05-12T18:40:19Z</time>
        <extensions><gpxtpx:TrackPointExtension><gpxtpx:hr>143</gpxtpx:hr></gpxtpx:TrackPointExtension></extensions>
      </trkpt>
      <trkpt lat="59.2999005015" lon="18.1225714526">
        <ele>22.4</ele>
        <time>2011-05-12T18:40:21Z</time>
        <extensions><gpxtpx:TrackPointExtension><gpxtpx:hr>142</gpxtpx:hr></gpxtpx:TrackPointExtension></extensions>
      </trkpt>
      <trkpt lat="59.2998959753" lon="18.1224928304">
        <ele>21.8</ele>
        <time>2011-05-12T18:40:25Z</time>
        <extensions><gpxtpx:TrackPointExtension><gpxtpx:hr>140</gpxtpx:hr></gpxtpx:TrackPointExtension></extensions>
      </trkpt>
      <trkpt lat="59.2998986575" lon="18.1223162238">
        <ele>21</ele>
        <time>2011-05-12T18:40:32Z</time>
        <extensions><gpxtpx:TrackPointExtension><gpxtpx:hr>135</gpxtpx:hr></gpxtpx:TrackPointExtension></extensions>
      </trkpt>
      <trkpt lat="59.2999088834" lon="18.122091505">
        <ele>20.8</ele>
        <time>2011-05-12T18:40:36Z</time>
        <extensions><gpxtpx:TrackPointExtension><gpxtpx:hr>133</gpxtpx:hr></gpxtpx:TrackPointExtension></extensions>
      </trkpt>
      <trkpt lat="59.2999243061" lon="18.1219068518">
        <ele>20.6</ele>
        <time>2011-05-12T18:40:39Z</time>
        <extensions><gpxtpx:TrackPointExtension><gpxtpx:hr>127</gpxtpx:hr></gpxtpx:TrackPointExtension></extensions>
      </trkpt>
      <trkpt lat="59.2999438359" lon="18.121738208">
        <ele>20.4</ele>
        <time>2011-05-12T18:40:42Z</time>
        <extensions><gpxtpx:TrackPointExtension><gpxtpx:hr>122</gpxtpx:hr></gpxtpx:TrackPointExtension></extensions>
      </trkpt>
      <trkpt lat="59.2999790399" lon="18.1214123197">
        <ele>19.6</ele>
        <time>2011-05-12T18:40:48Z</time>
        <extensions><gpxtpx:TrackPointExtension><gpxtpx:hr>121</gpxtpx:hr></gpxtpx:TrackPointExtension></extensions>
      </trkpt>
      <trkpt lat="59.2999490327" lon="18.1210303565">
        <ele>19</ele>
        <time>2011-05-12T18:40:54Z</time>
        <extensions><gpxtpx:TrackPointExtension><gpxtpx:hr>122</gpxtpx:hr></gpxtpx:TrackPointExtension></extensions>
      </trkpt>
      <trkpt lat="59.2999878409" lon="18.1206989362">
        <ele>18.6</ele>
        <time>2011-05-12T18:40:58Z</time>
        <extensions><gpxtpx:TrackPointExtension><gpxtpx:hr>125</gpxtpx:hr></gpxtpx:TrackPointExtension></extensions>
      </trkpt>
      <trkpt lat="59.3000258109" lon="18.1202656758">
        <ele>18.4</ele>
        <time>2011-05-12T18:41:02Z</time>
        <extensions><gpxtpx:TrackPointExtension><gpxtpx:hr>127</gpxtpx:hr></gpxtpx:TrackPointExtension></extensions>
      </trkpt>
      <trkpt lat="59.3000338576" lon="18.1201431324">
        <ele>18.4</ele>
        <time>2011-05-12T18:41:03Z</time>
        <extensions><gpxtpx:TrackPointExtension><gpxtpx:hr>127</gpxtpx:hr></gpxtpx:TrackPointExtension></extensions>
      </trkpt>
      <trkpt lat="59.3000649544" lon="18.1197587385">
        <ele>18.2</ele>
        <time>2011-05-12T18:41:06Z</time>
        <extensions><gpxtpx:TrackPointExtension><gpxtpx:hr>129</gpxtpx:hr></gpxtpx:TrackPointExtension></extensions>
      </trkpt>
      <trkpt lat="59.3000851548" lon="18.1196397993">
        <ele>18</ele>
        <time>2011-05-12T18:41:07Z</time>
        <extensions><gpxtpx:TrackPointExtension><gpxtpx:hr>132</gpxtpx:hr></gpxtpx:TrackPointExtension></extensions>
      </trkpt>
      <trkpt lat="59.3001024215" lon="18.119530667">
        <ele>17.8</ele>
        <time>2011-05-12T18:41:08Z</time>
        <extensions><gpxtpx:TrackPointExtension><gpxtpx:hr>132</gpxtpx:hr></gpxtpx:TrackPointExtension></extensions>
      </trkpt>
      <trkpt lat="59.300119772" lon="18.1194249712">
        <ele>17.6</ele>
        <time>2011-05-12T18:41:09Z</time>
        <extensions><gpxtpx:TrackPointExtension><gpxtpx:hr>132</gpxtpx:hr></gpxtpx:TrackPointExtension></extensions>
      </trkpt>
      <trkpt lat="59.3001737515" lon="18.1192368814">
        <ele>17.4</ele>
        <time>2011-05-12T18:41:11Z</time>
        <extensions><gpxtpx:TrackPointExtension><gpxtpx:hr>160</gpxtpx:hr></gpxtpx:TrackPointExtension></extensions>
      </trkpt>
      <trkpt lat="59.3002058541" lon="18.1191490391">
        <ele>17.2</ele>
        <time>2011-05-12T18:41:12Z</time>
        <extensions><gpxtpx:TrackPointExtension><gpxtpx:hr>160</gpxtpx:hr></gpxtpx:TrackPointExtension></extensions>
      </trkpt>
      <trkpt lat="59.300259163" lon="18.1190151801">
        <ele>17</ele>
        <time>2011-05-12T18:41:14Z</time>
        <extensions><gpxtpx:TrackPointExtension><gpxtpx:hr>160</gpxtpx:hr></gpxtpx:TrackPointExtension></extensions>
      </trkpt>
      <trkpt lat="59.3003216082" lon="18.1188954028">
        <ele>16.8</ele>
        <time>2011-05-12T18:41:16Z</time>
        <extensions><gpxtpx:TrackPointExtension><gpxtpx:hr>160</gpxtpx:hr></gpxtpx:TrackPointExtension></extensions>
      </trkpt>
      <trkpt lat="59.3004580655" lon="18.1186467956">
        <ele>16.6</ele>
        <time>2011-05-12T18:41:20Z</time>
        <extensions><gpxtpx:TrackPointExtension><gpxtpx:hr>162</gpxtpx:hr></gpxtpx:TrackPointExtension></extensions>
      </trkpt>
      <trkpt lat="59.3005191696" lon="18.1185770582">
        <ele>16.6</ele>
        <time>2011-05-12T18:41:22Z</time>
        <extensions><gpxtpx:TrackPointExtension><gpxtpx:hr>162</gpxtpx:hr></gpxtpx:TrackPointExtension></extensions>
      </trkpt>
      <trkpt lat="59.3006103646" lon="18.1185213186">
        <ele>16.4</ele>
        <time>2011-05-12T18:41:27Z</time>
        <extensions><gpxtpx:TrackPointExtension><gpxtpx:hr>161</gpxtpx:hr></gpxtpx:TrackPointExtension></extensions>
      </trkpt>
      <trkpt lat="59.3006723907" lon="18.1184824265">
        <ele>16.2</ele>
        <time>2011-05-12T18:41:34Z</time>
        <extensions><gpxtpx:TrackPointExtension><gpxtpx:hr>154</gpxtpx:hr></gpxtpx:TrackPointExtension></extensions>
      </trkpt>
      <trkpt lat="59.3006816946" lon="18.1184714463">
        <ele>16.2</ele>
        <time>2011-05-12T18:41:35Z</time>
        <extensions><gpxtpx:TrackPointExtension><gpxtpx:hr>154</gpxtpx:hr></gpxtpx:TrackPointExtension></extensions>
      </trkpt>
      <trkpt lat="59.3007008892" lon="18.1184473902">
        <ele>16.2</ele>
        <time>2011-05-12T18:41:37Z</time>
        <extensions><gpxtpx:TrackPointExtension><gpxtpx:hr>152</gpxtpx:hr></gpxtpx:TrackPointExtension></extensions>
      </trkpt>
      <trkpt lat="59.3007244423" lon="18.1184345659">
        <ele>16.2</ele>
        <time>2011-05-12T18:41:40Z</time>
        <extensions><gpxtpx:TrackPointExtension><gpxtpx:hr>151</gpxtpx:hr></gpxtpx:TrackPointExtension></extensions>
      </trkpt>
      <trkpt lat="59.3007755719" lon="18.1183673431">
        <ele>16.2</ele>
        <time>2011-05-12T18:41:45Z</time>
        <extensions><gpxtpx:TrackPointExtension><gpxtpx:hr>149</gpxtpx:hr></gpxtpx:TrackPointExtension></extensions>
      </trkpt>
      <trkpt lat="59.3007982868" lon="18.1183851127">
        <ele>16.2</ele>
        <time>2011-05-12T18:41:48Z</time>
        <extensions><gpxtpx:TrackPointExtension><gpxtpx:hr>148</gpxtpx:hr></gpxtpx:TrackPointExtension></extensions>
      </trkpt>
      <trkpt lat="59.3008153859" lon="18.1184064865">
        <ele>16.2</ele>
        <time>2011-05-12T18:41:50Z</time>
        <extensions><gpxtpx:TrackPointExtension><gpxtpx:hr>148</gpxtpx:hr></gpxtpx:TrackPointExtension></extensions>
      </trkpt>
      <trkpt lat="59.3007997118" lon="18.1181298">
        <ele>20.2</ele>
        <time>2011-05-12T18:45:27Z</time>
        <extensions><gpxtpx:TrackPointExtension><gpxtpx:hr>106</gpxtpx:hr></gpxtpx:TrackPointExtension></extensions>
      </trkpt>
      <trkpt lat="59.3007860493" lon="18.1181056601">
        <ele>20.2</ele>
        <time>2011-05-12T18:45:28Z</time>
        <extensions><gpxtpx:TrackPointExtension><gpxtpx:hr>106</gpxtpx:hr></gpxtpx:TrackPointExtension></extensions>
      </trkpt>
      <trkpt lat="59.3007743146" lon="18.1180858789">
        <ele>20.2</ele>
        <time>2011-05-12T18:45:29Z</time>
        <extensions><gpxtpx:TrackPointExtension><gpxtpx:hr>107</gpxtpx:hr></gpxtpx:TrackPointExtension></extensions>
      </trkpt>
      <trkpt lat="59.3007632505" lon="18.1180616552">
        <ele>20.2</ele>
        <time>2011-05-12T18:45:30Z</time>
        <extensions><gpxtpx:TrackPointExtension><gpxtpx:hr>108</gpxtpx:hr></gpxtpx:TrackPointExtension></extensions>
      </trkpt>
      <trkpt lat="59.3007461514" lon="18.117979764">
        <ele>20.2</ele>
        <time>2011-05-12T18:45:32Z</time>
        <extensions><gpxtpx:TrackPointExtension><gpxtpx:hr>117</gpxtpx:hr></gpxtpx:TrackPointExtension></extensions>
      </trkpt>
      <trkpt lat="59.3007412061" lon="18.1179438056">
        <ele>20.2</ele>
        <time>2011-05-12T18:45:33Z</time>
        <extensions><gpxtpx:TrackPointExtension><gpxtpx:hr>117</gpxtpx:hr></gpxtpx:TrackPointExtension></extensions>
      </trkpt>
      <trkpt lat="59.3007427148" lon="18.1179060033">
        <ele>20.2</ele>
        <time>2011-05-12T18:45:34Z</time>
        <extensions><gpxtpx:TrackPointExtension><gpxtpx:hr>117</gpxtpx:hr></gpxtpx:TrackPointExtension></extensions>
      </trkpt>
      <trkpt lat="59.3007567126" lon="18.1177410475">
        <ele>20.2</ele>
        <time>2011-05-12T18:45:38Z</time>
        <extensions><gpxtpx:TrackPointExtension><gpxtpx:hr>118</gpxtpx:hr></gpxtpx:TrackPointExtension></extensions>
      </trkpt>
      <trkpt lat="59.300769956" lon="18.1177047539">
        <ele>20.2</ele>
        <time>2011-05-12T18:45:39Z</time>
        <extensions><gpxtpx:TrackPointExtension><gpxtpx:hr>118</gpxtpx:hr></gpxtpx:TrackPointExtension></extensions>
      </trkpt>
      <trkpt lat="59.3008448064" lon="18.1174611758">
        <ele>20.2</ele>
        <time>2011-05-12T18:45:45Z</time>
        <extensions><gpxtpx:TrackPointExtension><gpxtpx:hr>119</gpxtpx:hr></gpxtpx:TrackPointExtension></extensions>
      </trkpt>
      <trkpt lat="59.3008426271" lon="18.1172180169">
        <ele>20.2</ele>
        <time>2011-05-12T18:45:49Z</time>
        <extensions><gpxtpx:TrackPointExtension><gpxtpx:hr>119</gpxtpx:hr></gpxtpx:TrackPointExtension></extensions>
      </trkpt>
      <trkpt lat="59.3007907431" lon="18.1170030212">
        <ele>20.2</ele>
        <time>2011-05-12T18:45:54Z</time>
        <extensions><gpxtpx:TrackPointExtension><gpxtpx:hr>118</gpxtpx:hr></gpxtpx:TrackPointExtension></extensions>
      </trkpt>
      <trkpt lat="59.3007821098" lon="18.1169618661">
        <ele>20.2</ele>
        <time>2011-05-12T18:45:55Z</time>
        <extensions><gpxtpx:TrackPointExtension><gpxtpx:hr>118</gpxtpx:hr></gpxtpx:TrackPointExtension></extensions>
      </trkpt>
      <trkpt lat="59.300800047" lon="18.1167405839">
        <ele>20.2</ele>
        <time>2011-05-12T18:45:59Z</time>
        <extensions><gpxtpx:TrackPointExtension><gpxtpx:hr>117</gpxtpx:hr></gpxtpx:TrackPointExtension></extensions>
      </trkpt>
      <trkpt lat="59.3007997118" lon="18.1166791446">
        <ele>20.2</ele>
        <time>2011-05-12T18:46:00Z</time>
        <extensions><gpxtpx:TrackPointExtension><gpxtpx:hr>117</gpxtpx:hr></gpxtpx:TrackPointExtension></extensions>
      </trkpt>
      <trkpt lat="59.3007995441" lon="18.1166121732">
        <ele>20.2</ele>
        <time>2011-05-12T18:46:01Z</time>
        <extensions><gpxtpx:TrackPointExtension><gpxtpx:hr>124</gpxtpx:hr></gpxtpx:TrackPointExtension></extensions>
      </trkpt>
      <trkpt lat="59.3008011367" lon="18.1165550086">
        <ele>20.2</ele>
        <time>2011-05-12T18:46:02Z</time>
        <extensions><gpxtpx:TrackPointExtension><gpxtpx:hr>124</gpxtpx:hr></gpxtpx:TrackPointExtension></extensions>
      </trkpt>
      <trkpt lat="59.3008109435" lon="18.1164458763">
        <ele>20.2</ele>
        <time>2011-05-12T18:46:04Z</time>
        <extensions><gpxtpx:TrackPointExtension><gpxtpx:hr>120</gpxtpx:hr></gpxtpx:TrackPointExtension></extensions>
      </trkpt>
      <trkpt lat="59.3008173137" lon="18.1163613029">
        <ele>20.2</ele>
        <time>2011-05-12T18:46:06Z</time>
        <extensions><gpxtpx:TrackPointExtension><gpxtpx:hr>116</gpxtpx:hr></gpxtpx:TrackPointExtension></extensions>
      </trkpt>
      <trkpt lat="59.3008292999" lon="18.1161684354">
        <ele>20.2</ele>
        <time>2011-05-12T18:46:10Z</time>
        <extensions><gpxtpx:TrackPointExtension><gpxtpx:hr>115</gpxtpx:hr></gpxtpx:TrackPointExtension></extensions>
      </trkpt>
      <trkpt lat="59.3008541103" lon="18.1159282102">
        <ele>20.2</ele>
        <time>2011-05-12T18:46:14Z</time>
        <extensions><gpxtpx:TrackPointExtension><gpxtpx:hr>115</gpxtpx:hr></gpxtpx:TrackPointExtension></extensions>
      </trkpt>
      <trkpt lat="59.3008481591" lon="18.1157456524">
        <ele>20.2</ele>
        <time>2011-05-12T18:46:17Z</time>
        <extensions><gpxtpx:TrackPointExtension><gpxtpx:hr>115</gpxtpx:hr></gpxtpx:TrackPointExtension></extensions>
      </trkpt>
      <trkpt lat="59.3008422918" lon="18.1156448181">
        <ele>20.2</ele>
        <time>2011-05-12T18:46:19Z</time>
        <extensions><gpxtpx:TrackPointExtension><gpxtpx:hr>115</gpxtpx:hr></gpxtpx:TrackPointExtension></extensions>
      </trkpt>
      <trkpt lat="59.3008330717" lon="18.1153863203">
        <ele>20.2</ele>
        <time>2011-05-12T18:46:24Z</time>
        <extensions><gpxtpx:TrackPointExtension><gpxtpx:hr>126</gpxtpx:hr></gpxtpx:TrackPointExtension></extensions>
      </trkpt>
      <trkpt lat="59.3008349157" lon="18.1153403037">
        <ele>20.2</ele>
        <time>2011-05-12T18:46:25Z</time>
        <extensions><gpxtpx:TrackPointExtension><gpxtpx:hr>126</gpxtpx:hr></gpxtpx:TrackPointExtension></extensions>
      </trkpt>
      <trkpt lat="59.3008309762" lon="18.1152618491">
        <ele>20.2</ele>
        <time>2011-05-12T18:46:27Z</time>
        <extensions><gpxtpx:TrackPointExtension><gpxtpx:hr>124</gpxtpx:hr></gpxtpx:TrackPointExtension></extensions>
      </trkpt>
      <trkpt lat="59.3008646715" lon="18.1150001662">
        <ele>20.2</ele>
        <time>2011-05-12T18:46:33Z</time>
        <extensions><gpxtpx:TrackPointExtension><gpxtpx:hr>121</gpxtpx:hr></gpxtpx:TrackPointExtension></extensions>
      </trkpt>
      <trkpt lat="59.3008687786" lon="18.1149435884">
        <ele>20.2</ele>
        <time>2011-05-12T18:46:34Z</time>
        <extensions><gpxtpx:TrackPointExtension><gpxtpx:hr>122</gpxtpx:hr></gpxtpx:TrackPointExtension></extensions>
      </trkpt>
      <trkpt lat="59.3008985344" lon="18.1146784689">
        <ele>20.2</ele>
        <time>2011-05-12T18:46:39Z</time>
        <extensions><gpxtpx:TrackPointExtension><gpxtpx:hr>122</gpxtpx:hr></gpxtpx:TrackPointExtension></extensions>
      </trkpt>
      <trkpt lat="59.300889901" lon="18.1143519939">
        <ele>20.2</ele>
        <time>2011-05-12T18:46:45Z</time>
        <extensions><gpxtpx:TrackPointExtension><gpxtpx:hr>122</gpxtpx:hr></gpxtpx:TrackPointExtension></extensions>
      </trkpt>
      <trkpt lat="59.3008854586" lon="18.1142897163">
        <ele>20.2</ele>
        <time>2011-05-12T18:46:46Z</time>
        <extensions><gpxtpx:TrackPointExtension><gpxtpx:hr>121</gpxtpx:hr></gpxtpx:TrackPointExtension></extensions>
      </trkpt>
      <trkpt lat="59.300860732" lon="18.1139727129">
        <ele>20.2</ele>
        <time>2011-05-12T18:46:51Z</time>
        <extensions><gpxtpx:TrackPointExtension><gpxtpx:hr>121</gpxtpx:hr></gpxtpx:TrackPointExtension></extensions>
      </trkpt>
      <trkpt lat="59.3008642524" lon="18.1136438071">
        <ele>20.2</ele>
        <time>2011-05-12T18:46:56Z</time>
        <extensions><gpxtpx:TrackPointExtension><gpxtpx:hr>120</gpxtpx:hr></gpxtpx:TrackPointExtension></extensions>
      </trkpt>
      <trkpt lat="59.3008623245" lon="18.113583206">
        <ele>20.4</ele>
        <time>2011-05-12T18:46:57Z</time>
        <extensions><gpxtpx:TrackPointExtension><gpxtpx:hr>120</gpxtpx:hr></gpxtpx:TrackPointExtension></extensions>
      </trkpt>
      <trkpt lat="59.3008645038" lon="18.1134645183">
        <ele>20.8</ele>
        <time>2011-05-12T18:46:59Z</time>
        <extensions><gpxtpx:TrackPointExtension><gpxtpx:hr>121</gpxtpx:hr></gpxtpx:TrackPointExtension></extensions>
      </trkpt>
      <trkpt lat="59.300882022" lon="18.113227562">
        <ele>21.2</ele>
        <time>2011-05-12T18:47:03Z</time>
        <extensions><gpxtpx:TrackPointExtension><gpxtpx:hr>120</gpxtpx:hr></gpxtpx:TrackPointExtension></extensions>
      </trkpt>
      <trkpt lat="59.3008848719" lon="18.112918689">
        <ele>21.6</ele>
        <time>2011-05-12T18:47:08Z</time>
        <extensions><gpxtpx:TrackPointExtension><gpxtpx:hr>120</gpxtpx:hr></gpxtpx:TrackPointExtension></extensions>
      </trkpt>
      <trkpt lat="59.3008788369" lon="18.1128499574">
        <ele>21.8</ele>
        <time>2011-05-12T18:47:09Z</time>
        <extensions><gpxtpx:TrackPointExtension><gpxtpx:hr>120</gpxtpx:hr></gpxtpx:TrackPointExtension></extensions>
      </trkpt>
      <trkpt lat="59.3009110234" lon="18.1124970794">
        <ele>22</ele>
        <time>2011-05-12T18:47:15Z</time>
        <extensions><gpxtpx:TrackPointExtension><gpxtpx:hr>120</gpxtpx:hr></gpxtpx:TrackPointExtension></extensions>
      </trkpt>
      <trkpt lat="59.3009719598" lon="18.1121407648">
        <ele>22.2</ele>
        <time>2011-05-12T18:47:21Z</time>
        <extensions><gpxtpx:TrackPointExtension><gpxtpx:hr>120</gpxtpx:hr></gpxtpx:TrackPointExtension></extensions>
      </trkpt>
      <trkpt lat="59.3010969339" lon="18.1118221688">
        <ele>22.2</ele>
        <time>2011-05-12T18:47:28Z</time>
        <extensions><gpxtpx:TrackPointExtension><gpxtpx:hr>122</gpxtpx:hr></gpxtpx:TrackPointExtension></extensions>
      </trkpt>
      <trkpt lat="59.3011937449" lon="18.1116367612">
        <ele>21.4</ele>
        <time>2011-05-12T18:47:33Z</time>
        <extensions><gpxtpx:TrackPointExtension><gpxtpx:hr>132</gpxtpx:hr></gpxtpx:TrackPointExtension></extensions>
      </trkpt>
      <trkpt lat="59.3012138614" lon="18.1116024792">
        <ele>21.2</ele>
        <time>2011-05-12T18:47:34Z</time>
        <extensions><gpxtpx:TrackPointExtension><gpxtpx:hr>132</gpxtpx:hr></gpxtpx:TrackPointExtension></extensions>
      </trkpt>
      <trkpt lat="59.301334477" lon="18.1114350927">
        <ele>20.8</ele>
        <time>2011-05-12T18:47:39Z</time>
        <extensions><gpxtpx:TrackPointExtension><gpxtpx:hr>129</gpxtpx:hr></gpxtpx:TrackPointExtension></extensions>
      </trkpt>
      <trkpt lat="59.3013923121" lon="18.1113868967">
        <ele>20.4</ele>
        <time>2011-05-12T18:47:41Z</time>
        <extensions><gpxtpx:TrackPointExtension><gpxtpx:hr>124</gpxtpx:hr></gpxtpx:TrackPointExtension></extensions>
      </trkpt>
      <trkpt lat="59.3015035399" lon="18.1114040796">
        <ele>19.6</ele>
        <time>2011-05-12T18:47:45Z</time>
        <extensions><gpxtpx:TrackPointExtension><gpxtpx:hr>119</gpxtpx:hr></gpxtpx:TrackPointExtension></extensions>
      </trkpt>
      <trkpt lat="59.3015271769" lon="18.1114148085">
        <ele>19.4</ele>
        <time>2011-05-12T18:47:46Z</time>
        <extensions><gpxtpx:TrackPointExtension><gpxtpx:hr>118</gpxtpx:hr></gpxtpx:TrackPointExtension></extensions>
      </trkpt>
      <trkpt lat="59.3018954775" lon="18.1114544549">
        <ele>16.4</ele>
        <time>2011-05-12T18:48:41Z</time>
        <extensions><gpxtpx:TrackPointExtension><gpxtpx:hr>94</gpxtpx:hr></gpxtpx:TrackPointExtension></extensions>
      </trkpt>
      <trkpt lat="59.3019024345" lon="18.1114521917">
        <ele>16.4</ele>
        <time>2011-05-12T18:48:42Z</time>
        <extensions><gpxtpx:TrackPointExtension><gpxtpx:hr>94</gpxtpx:hr></gpxtpx:TrackPointExtension></extensions>
      </trkpt>
      <trkpt lat="59.3019092239" lon="18.1114424687">
        <ele>16</ele>
        <time>2011-05-12T18:48:43Z</time>
        <extensions><gpxtpx:TrackPointExtension><gpxtpx:hr>94</gpxtpx:hr></gpxtpx:TrackPointExtension></extensions>
      </trkpt>
      <trkpt lat="59.3019261553" lon="18.1114068457">
        <ele>15.8</ele>
        <time>2011-05-12T18:48:44Z</time>
        <extensions><gpxtpx:TrackPointExtension><gpxtpx:hr>94</gpxtpx:hr></gpxtpx:TrackPointExtension></extensions>
      </trkpt>
      <trkpt lat="59.302011483" lon="18.1111792771">
        <ele>14.8</ele>
        <time>2011-05-12T18:48:50Z</time>
        <extensions><gpxtpx:TrackPointExtension><gpxtpx:hr>97</gpxtpx:hr></gpxtpx:TrackPointExtension></extensions>
      </trkpt>
      <trkpt lat="59.3020380537" lon="18.1110488547">
        <ele>13.6</ele>
        <time>2011-05-12T18:48:57Z</time>
        <extensions><gpxtpx:TrackPointExtension><gpxtpx:hr>98</gpxtpx:hr></gpxtpx:TrackPointExtension></extensions>
      </trkpt>
      <trkpt lat="59.3020478605" lon="18.1109610124">
        <ele>12.8</ele>
        <time>2011-05-12T18:49:01Z</time>
        <extensions><gpxtpx:TrackPointExtension><gpxtpx:hr>99</gpxtpx:hr></gpxtpx:TrackPointExtension></extensions>
      </trkpt>
      <trkpt lat="59.3020711622" lon="18.1108598429">
        <ele>11.6</ele>
        <time>2011-05-12T18:49:05Z</time>
        <extensions><gpxtpx:TrackPointExtension><gpxtpx:hr>102</gpxtpx:hr></gpxtpx:TrackPointExtension></extensions>
      </trkpt>
      <trkpt lat="59.3020838188" lon="18.1108289975">
        <ele>11.2</ele>
        <time>2011-05-12T18:49:07Z</time>
        <extensions><gpxtpx:TrackPointExtension><gpxtpx:hr>103</gpxtpx:hr></gpxtpx:TrackPointExtension></extensions>
      </trkpt>
      <trkpt lat="59.3021678893" lon="18.1106941327">
        <ele>10.6</ele>
        <time>2011-05-12T18:49:11Z</time>
        <extensions><gpxtpx:TrackPointExtension><gpxtpx:hr>106</gpxtpx:hr></gpxtpx:TrackPointExtension></extensions>
      </trkpt>
      <trkpt lat="59.3021947952" lon="18.1106625329">
        <ele>10.4</ele>
        <time>2011-05-12T18:49:12Z</time>
        <extensions><gpxtpx:TrackPointExtension><gpxtpx:hr>106</gpxtpx:hr></gpxtpx:TrackPointExtension></extensions>
      </trkpt>
      <trkpt lat="59.3022833919" lon="18.1104269177">
        <ele>9.2</ele>
        <time>2011-05-12T18:49:17Z</time>
        <extensions><gpxtpx:TrackPointExtension><gpxtpx:hr>108</gpxtpx:hr></gpxtpx:TrackPointExtension></extensions>
      </trkpt>
      <trkpt lat="59.3023429872" lon="18.1102469583">
        <ele>8.6</ele>
        <time>2011-05-12T18:49:21Z</time>
        <extensions><gpxtpx:TrackPointExtension><gpxtpx:hr>110</gpxtpx:hr></gpxtpx:TrackPointExtension></extensions>
      </trkpt>
      <trkpt lat="59.3023973019" lon="18.1100711061">
        <ele>8.2</ele>
        <time>2011-05-12T18:49:26Z</time>
        <extensions><gpxtpx:TrackPointExtension><gpxtpx:hr>110</gpxtpx:hr></gpxtpx:TrackPointExtension></extensions>
      </trkpt>
      <trkpt lat="59.3024695539" lon="18.1098012927">
        <ele>8.8</ele>
        <time>2011-05-12T18:49:33Z</time>
        <extensions><gpxtpx:TrackPointExtension><gpxtpx:hr>110</gpxtpx:hr></gpxtpx:TrackPointExtension></extensions>
      </trkpt>
      <trkpt lat="59.3024892513" lon="18.1095832795">
        <ele>9</ele>
        <time>2011-05-12T18:49:38Z</time>
        <extensions><gpxtpx:TrackPointExtension><gpxtpx:hr>111</gpxtpx:hr></gpxtpx:TrackPointExtension></extensions>
      </trkpt>
      <trkpt lat="59.3024976332" lon="18.1095424596">
        <ele>9.2</ele>
        <time>2011-05-12T18:49:39Z</time>
        <extensions><gpxtpx:TrackPointExtension><gpxtpx:hr>112</gpxtpx:hr></gpxtpx:TrackPointExtension></extensions>
      </trkpt>
      <trkpt lat="59.3025718131" lon="18.1093300623">
        <ele>10.2</ele>
        <time>2011-05-12T18:49:45Z</time>
        <extensions><gpxtpx:TrackPointExtension><gpxtpx:hr>113</gpxtpx:hr></gpxtpx:TrackPointExtension></extensions>
      </trkpt>
      <trkpt lat="59.3025824581" lon="18.1093069283">
        <ele>10.6</ele>
        <time>2011-05-12T18:49:49Z</time>
        <extensions><gpxtpx:TrackPointExtension><gpxtpx:hr>114</gpxtpx:hr></gpxtpx:TrackPointExtension></extensions>
      </trkpt>
      <trkpt lat="59.3026241161" lon="18.1092268811">
        <ele>11</ele>
        <time>2011-05-12T18:49:55Z</time>
        <extensions><gpxtpx:TrackPointExtension><gpxtpx:hr>116</gpxtpx:hr></gpxtpx:TrackPointExtension></extensions>
      </trkpt>
      <trkpt lat="59.3026320789" lon="18.1092002267">
        <ele>11.2</ele>
        <time>2011-05-12T18:49:56Z</time>
        <extensions><gpxtpx:TrackPointExtension><gpxtpx:hr>117</gpxtpx:hr></gpxtpx:TrackPointExtension></extensions>
      </trkpt>
      <trkpt lat="59.3025934384" lon="18.1091488456">
        <ele>11.2</ele>
        <time>2011-05-12T18:49:59Z</time>
        <extensions><gpxtpx:TrackPointExtension><gpxtpx:hr>119</gpxtpx:hr></gpxtpx:TrackPointExtension></extensions>
      </trkpt>
      <trkpt lat="59.3024853957" lon="18.1089765138">
        <ele>11.4</ele>
        <time>2011-05-12T18:50:04Z</time>
        <extensions><gpxtpx:TrackPointExtension><gpxtpx:hr>122</gpxtpx:hr></gpxtpx:TrackPointExtension></extensions>
      </trkpt>
      <trkpt lat="59.3024669555" lon="18.1089382923">
        <ele>11.4</ele>
        <time>2011-05-12T18:50:05Z</time>
        <extensions><gpxtpx:TrackPointExtension><gpxtpx:hr>122</gpxtpx:hr></gpxtpx:TrackPointExtension></extensions>
      </trkpt>
      <trkpt lat="59.3024211065" lon="18.1088333509">
        <ele>12</ele>
        <time>2011-05-12T18:50:08Z</time>
        <extensions><gpxtpx:TrackPointExtension><gpxtpx:hr>123</gpxtpx:hr></gpxtpx:TrackPointExtension></extensions>
      </trkpt>
      <trkpt lat="59.3024964598" lon="18.1086012561">
        <ele>12.8</ele>
        <time>2011-05-12T18:50:14Z</time>
        <extensions><gpxtpx:TrackPointExtension><gpxtpx:hr>123</gpxtpx:hr></gpxtpx:TrackPointExtension></extensions>
      </trkpt>
      <trkpt lat="59.3025988028" lon="18.1083801416">
        <ele>13.2</ele>
        <time>2011-05-12T18:50:20Z</time>
        <extensions><gpxtpx:TrackPointExtension><gpxtpx:hr>121</gpxtpx:hr></gpxtpx:TrackPointExtension></extensions>
      </trkpt>
      <trkpt lat="59.3026180811" lon="18.1082524014">
        <ele>13.2</ele>
        <time>2011-05-12T18:50:23Z</time>
        <extensions><gpxtpx:TrackPointExtension><gpxtpx:hr>120</gpxtpx:hr></gpxtpx:TrackPointExtension></extensions>
      </trkpt>
      <trkpt lat="59.3026296482" lon="18.1080048001">
        <ele>13.4</ele>
        <time>2011-05-12T18:50:28Z</time>
        <extensions><gpxtpx:TrackPointExtension><gpxtpx:hr>119</gpxtpx:hr></gpxtpx:TrackPointExtension></extensions>
      </trkpt>
      <trkpt lat="59.3027257047" lon="18.107750158">
        <ele>13.4</ele>
        <time>2011-05-12T18:50:34Z</time>
        <extensions><gpxtpx:TrackPointExtension><gpxtpx:hr>117</gpxtpx:hr></gpxtpx:TrackPointExtension></extensions>
      </trkpt>
      <trkpt lat="59.3027442287" lon="18.1077032193">
        <ele>13.4</ele>
        <time>2011-05-12T18:50:35Z</time>
        <extensions><gpxtpx:TrackPointExtension><gpxtpx:hr>117</gpxtpx:hr></gpxtpx:TrackPointExtension></extensions>
      </trkpt>
      <trkpt lat="59.3028475776" lon="18.1075180632">
        <ele>14.4</ele>
        <time>2011-05-12T18:50:40Z</time>
        <extensions><gpxtpx:TrackPointExtension><gpxtpx:hr>116</gpxtpx:hr></gpxtpx:TrackPointExtension></extensions>
      </trkpt>
      <trkpt lat="59.3029652594" lon="18.1073589747">
        <ele>15.4</ele>
        <time>2011-05-12T18:50:45Z</time>
        <extensions><gpxtpx:TrackPointExtension><gpxtpx:hr>116</gpxtpx:hr></gpxtpx:TrackPointExtension></extensions>
      </trkpt>
      <trkpt lat="59.3030457257" lon="18.1071259579">
        <ele>16.6</ele>
        <time>2011-05-12T18:50:50Z</time>
        <extensions><gpxtpx:TrackPointExtension><gpxtpx:hr>115</gpxtpx:hr></gpxtpx:TrackPointExtension></extensions>
      </trkpt>
      <trkpt lat="59.3030896468" lon="18.1069470881">
        <ele>17.4</ele>
        <time>2011-05-12T18:50:53Z</time>
        <extensions><gpxtpx:TrackPointExtension><gpxtpx:hr>115</gpxtpx:hr></gpxtpx:TrackPointExtension></extensions>
      </trkpt>
      <trkpt lat="59.3031096796" lon="18.1069004848">
        <ele>17.8</ele>
        <time>2011-05-12T18:50:54Z</time>
        <extensions><gpxtpx:TrackPointExtension><gpxtpx:hr>114</gpxtpx:hr></gpxtpx:TrackPointExtension></extensions>
      </trkpt>
      <trkpt lat="59.3031625694" lon="18.1068195156">
        <ele>18.6</ele>
        <time>2011-05-12T18:50:56Z</time>
        <extensions><gpxtpx:TrackPointExtension><gpxtpx:hr>114</gpxtpx:hr></gpxtpx:TrackPointExtension></extensions>
      </trkpt>
      <trkpt lat="59.3032162973" lon="18.1066538054">
        <ele>20.2</ele>
        <time>2011-05-12T18:51:00Z</time>
        <extensions><gpxtpx:TrackPointExtension><gpxtpx:hr>114</gpxtpx:hr></gpxtpx:TrackPointExtension></extensions>
      </trkpt>
      <trkpt lat="59.3033328058" lon="18.1064686493">
        <ele>22.4</ele>
        <time>2011-05-12T18:51:05Z</time>
        <extensions><gpxtpx:TrackPointExtension><gpxtpx:hr>115</gpxtpx:hr></gpxtpx:TrackPointExtension></extensions>
      </trkpt>
      <trkpt lat="59.3034348973" lon="18.1062558328">
        <ele>24.2</ele>
        <time>2011-05-12T18:51:10Z</time>
        <extensions><gpxtpx:TrackPointExtension><gpxtpx:hr>115</gpxtpx:hr></gpxtpx:TrackPointExtension></extensions>
      </trkpt>
      <trkpt lat="59.3035558481" lon="18.1059277653">
        <ele>27.4</ele>
        <time>2011-05-12T18:51:17Z</time>
        <extensions><gpxtpx:TrackPointExtension><gpxtpx:hr>116</gpxtpx:hr></gpxtpx:TrackPointExtension></extensions>
      </trkpt>
      <trkpt lat="59.3036570176" lon="18.1056318842">
        <ele>30</ele>
        <time>2011-05-12T18:51:23Z</time>
        <extensions><gpxtpx:TrackPointExtension><gpxtpx:hr>116</gpxtpx:hr></gpxtpx:TrackPointExtension></extensions>
      </trkpt>
      <trkpt lat="59.3036757931" lon="18.1055911482">
        <ele>30.4</ele>
        <time>2011-05-12T18:51:24Z</time>
        <extensions><gpxtpx:TrackPointExtension><gpxtpx:hr>116</gpxtpx:hr></gpxtpx:TrackPointExtension></extensions>
      </trkpt>
      <trkpt lat="59.3037456981" lon="18.1054946725">
        <ele>31.8</ele>
        <time>2011-05-12T18:51:27Z</time>
        <extensions><gpxtpx:TrackPointExtension><gpxtpx:hr>117</gpxtpx:hr></gpxtpx:TrackPointExtension></extensions>
      </trkpt>
      <trkpt lat="59.3038363903" lon="18.105290238">
        <ele>33.8</ele>
        <time>2011-05-12T18:51:32Z</time>
        <extensions><gpxtpx:TrackPointExtension><gpxtpx:hr>118</gpxtpx:hr></gpxtpx:TrackPointExtension></extensions>
      </trkpt>
      <trkpt lat="59.3038989193" lon="18.1052015575">
        <ele>35</ele>
        <time>2011-05-12T18:51:35Z</time>
        <extensions><gpxtpx:TrackPointExtension><gpxtpx:hr>118</gpxtpx:hr></gpxtpx:TrackPointExtension></extensions>
      </trkpt>
      <trkpt lat="59.3039736858" lon="18.1049792695">
        <ele>36.8</ele>
        <time>2011-05-12T18:51:40Z</time>
        <extensions><gpxtpx:TrackPointExtension><gpxtpx:hr>117</gpxtpx:hr></gpxtpx:TrackPointExtension></extensions>
      </trkpt>
      <trkpt lat="59.3040301798" lon="18.1048388726">
        <ele>37.8</ele>
        <time>2011-05-12T18:51:43Z</time>
        <extensions><gpxtpx:TrackPointExtension><gpxtpx:hr>115</gpxtpx:hr></gpxtpx:TrackPointExtension></extensions>
      </trkpt>
      <trkpt lat="59.3040883502" lon="18.1045072009">
        <ele>40</ele>
        <time>2011-05-12T18:51:49Z</time>
        <extensions><gpxtpx:TrackPointExtension><gpxtpx:hr>115</gpxtpx:hr></gpxtpx:TrackPointExtension></extensions>
      </trkpt>
      <trkpt lat="59.3041450957" lon="18.1043110644">
        <ele>41</ele>
        <time>2011-05-12T18:51:53Z</time>
        <extensions><gpxtpx:TrackPointExtension><gpxtpx:hr>114</gpxtpx:hr></gpxtpx:TrackPointExtension></extensions>
      </trkpt>
      <trkpt lat="59.3041822275" lon="18.1041811449">
        <ele>42</ele>
        <time>2011-05-12T18:51:56Z</time>
        <extensions><gpxtpx:TrackPointExtension><gpxtpx:hr>115</gpxtpx:hr></gpxtpx:TrackPointExtension></extensions>
      </trkpt>
      <trkpt lat="59.3042246399" lon="18.1040012694">
        <ele>43</ele>
        <time>2011-05-12T18:52:00Z</time>
        <extensions><gpxtpx:TrackPointExtension><gpxtpx:hr>118</gpxtpx:hr></gpxtpx:TrackPointExtension></extensions>
      </trkpt>
      <trkpt lat="59.3042864145" lon="18.1036876187">
        <ele>44.6</ele>
        <time>2011-05-12T18:52:06Z</time>
        <extensions><gpxtpx:TrackPointExtension><gpxtpx:hr>121</gpxtpx:hr></gpxtpx:TrackPointExtension></extensions>
      </trkpt>
      <trkpt lat="59.3043273182" lon="18.1035197292">
        <ele>45.4</ele>
        <time>2011-05-12T18:52:10Z</time>
        <extensions><gpxtpx:TrackPointExtension><gpxtpx:hr>122</gpxtpx:hr></gpxtpx:TrackPointExtension></extensions>
      </trkpt>
      <trkpt lat="59.3043437467" lon="18.1034413585">
        <ele>45.8</ele>
        <time>2011-05-12T18:52:12Z</time>
        <extensions><gpxtpx:TrackPointExtension><gpxtpx:hr>121</gpxtpx:hr></gpxtpx:TrackPointExtension></extensions>
      </trkpt>
      <trkpt lat="59.3044390489" lon="18.1031717127">
        <ele>46.2</ele>
        <time>2011-05-12T18:52:18Z</time>
        <extensions><gpxtpx:TrackPointExtension><gpxtpx:hr>123</gpxtpx:hr></gpxtpx:TrackPointExtension></extensions>
      </trkpt>
      <trkpt lat="59.3044925254" lon="18.1030370994">
        <ele>46.4</ele>
        <time>2011-05-12T18:52:21Z</time>
        <extensions><gpxtpx:TrackPointExtension><gpxtpx:hr>123</gpxtpx:hr></gpxtpx:TrackPointExtension></extensions>
      </trkpt>
      <trkpt lat="59.3045967963" lon="18.1027474209">
        <ele>46.6</ele>
        <time>2011-05-12T18:52:27Z</time>
        <extensions><gpxtpx:TrackPointExtension><gpxtpx:hr>124</gpxtpx:hr></gpxtpx:TrackPointExtension></extensions>
      </trkpt>
      <trkpt lat="59.3046138115" lon="18.1027050085">
        <ele>46.6</ele>
        <time>2011-05-12T18:52:28Z</time>
        <extensions><gpxtpx:TrackPointExtension><gpxtpx:hr>124</gpxtpx:hr></gpxtpx:TrackPointExtension></extensions>
      </trkpt>
      <trkpt lat="59.3046880752" lon="18.10254131">
        <ele>46.8</ele>
        <time>2011-05-12T18:52:32Z</time>
        <extensions><gpxtpx:TrackPointExtension><gpxtpx:hr>122</gpxtpx:hr></gpxtpx:TrackPointExtension></extensions>
      </trkpt>
      <trkpt lat="59.3047055095" lon="18.1024434933">
        <ele>46.8</ele>
        <time>2011-05-12T18:52:34Z</time>
        <extensions><gpxtpx:TrackPointExtension><gpxtpx:hr>121</gpxtpx:hr></gpxtpx:TrackPointExtension></extensions>
      </trkpt>
      <trkpt lat="59.3047387857" lon="18.1022825608">
        <ele>46.8</ele>
        <time>2011-05-12T18:52:37Z</time>
        <extensions><gpxtpx:TrackPointExtension><gpxtpx:hr>121</gpxtpx:hr></gpxtpx:TrackPointExtension></extensions>
      </trkpt>
      <trkpt lat="59.3048454872" lon="18.1020694929">
        <ele>46.8</ele>
        <time>2011-05-12T18:52:43Z</time>
        <extensions><gpxtpx:TrackPointExtension><gpxtpx:hr>120</gpxtpx:hr></gpxtpx:TrackPointExtension></extensions>
      </trkpt>
      <trkpt lat="59.3049049987" lon="18.1017847597">
        <ele>46.8</ele>
        <time>2011-05-12T18:52:48Z</time>
        <extensions><gpxtpx:TrackPointExtension><gpxtpx:hr>121</gpxtpx:hr></gpxtpx:TrackPointExtension></extensions>
      </trkpt>
      <trkpt lat="59.3049177392" lon="18.1017274275">
        <ele>46.8</ele>
        <time>2011-05-12T18:52:49Z</time>
        <extensions><gpxtpx:TrackPointExtension><gpxtpx:hr>121</gpxtpx:hr></gpxtpx:TrackPointExtension></extensions>
      </trkpt>
      <trkpt lat="59.3050003848" lon="18.1014594582">
        <ele>46</ele>
        <time>2011-05-12T18:52:55Z</time>
        <extensions><gpxtpx:TrackPointExtension><gpxtpx:hr>118</gpxtpx:hr></gpxtpx:TrackPointExtension></extensions>
      </trkpt>
      <trkpt lat="59.3050843714" lon="18.1012282854">
        <ele>45.6</ele>
        <time>2011-05-12T18:53:00Z</time>
        <extensions><gpxtpx:TrackPointExtension><gpxtpx:hr>119</gpxtpx:hr></gpxtpx:TrackPointExtension></extensions>
      </trkpt>
      <trkpt lat="59.3051591379" lon="18.1009803488">
        <ele>44.4</ele>
        <time>2011-05-12T18:53:05Z</time>
        <extensions><gpxtpx:TrackPointExtension><gpxtpx:hr>120</gpxtpx:hr></gpxtpx:TrackPointExtension></extensions>
      </trkpt>
      <trkpt lat="59.3052309708" lon="18.1007294785">
        <ele>43.8</ele>
        <time>2011-05-12T18:53:10Z</time>
        <extensions><gpxtpx:TrackPointExtension><gpxtpx:hr>120</gpxtpx:hr></gpxtpx:TrackPointExtension></extensions>
      </trkpt>
      <trkpt lat="59.305296182" lon="18.1005403829">
        <ele>42.8</ele>
        <time>2011-05-12T18:53:14Z</time>
        <extensions><gpxtpx:TrackPointExtension><gpxtpx:hr>122</gpxtpx:hr></gpxtpx:TrackPointExtension></extensions>
      </trkpt>
      <trkpt lat="59.3053485689" lon="18.1003538856">
        <ele>42.2</ele>
        <time>2011-05-12T18:53:18Z</time>
        <extensions><gpxtpx:TrackPointExtension><gpxtpx:hr>121</gpxtpx:hr></gpxtpx:TrackPointExtension></extensions>
      </trkpt>
      <trkpt lat="59.3053926577" lon="18.1001953839">
        <ele>41.2</ele>
        <time>2011-05-12T18:53:22Z</time>
        <extensions><gpxtpx:TrackPointExtension><gpxtpx:hr>122</gpxtpx:hr></gpxtpx:TrackPointExtension></extensions>
      </trkpt>
      <trkpt lat="59.3054895524" lon="18.0999397359">
        <ele>39.4</ele>
        <time>2011-05-12T18:53:29Z</time>
        <extensions><gpxtpx:TrackPointExtension><gpxtpx:hr>122</gpxtpx:hr></gpxtpx:TrackPointExtension></extensions>
      </trkpt>
      <trkpt lat="59.3055354014" lon="18.0997742772">
        <ele>37.8</ele>
        <time>2011-05-12T18:53:34Z</time>
        <extensions><gpxtpx:TrackPointExtension><gpxtpx:hr>122</gpxtpx:hr></gpxtpx:TrackPointExtension></extensions>
      </trkpt>
      <trkpt lat="59.3055469685" lon="18.0994618838">
        <ele>35.8</ele>
        <time>2011-05-12T18:53:39Z</time>
        <extensions><gpxtpx:TrackPointExtension><gpxtpx:hr>122</gpxtpx:hr></gpxtpx:TrackPointExtension></extensions>
      </trkpt>
      <trkpt lat="59.3055297017" lon="18.0993866981">
        <ele>35.4</ele>
        <time>2011-05-12T18:53:40Z</time>
        <extensions><gpxtpx:TrackPointExtension><gpxtpx:hr>122</gpxtpx:hr></gpxtpx:TrackPointExtension></extensions>
      </trkpt>
      <trkpt lat="59.3054935758" lon="18.0992782364">
        <ele>34.2</ele>
        <time>2011-05-12T18:53:42Z</time>
        <extensions><gpxtpx:TrackPointExtension><gpxtpx:hr>122</gpxtpx:hr></gpxtpx:TrackPointExtension></extensions>
      </trkpt>
      <trkpt lat="59.3054998622" lon="18.0990623186">
        <ele>32.6</ele>
        <time>2011-05-12T18:53:46Z</time>
        <extensions><gpxtpx:TrackPointExtension><gpxtpx:hr>123</gpxtpx:hr></gpxtpx:TrackPointExtension></extensions>
      </trkpt>
      <trkpt lat="59.3055323001" lon="18.0989834449">
        <ele>31.2</ele>
        <time>2011-05-12T18:53:49Z</time>
        <extensions><gpxtpx:TrackPointExtension><gpxtpx:hr>122</gpxtpx:hr></gpxtpx:TrackPointExtension></extensions>
      </trkpt>
    </trkseg>
  </trk>
</gpx>